GFSNW_prec_radar_000.txt.gz
Reflectivity
-20 -3 11 -20 -20 -20 -20 -20 -20 -20 -20 -20 -20 -20 -20 -20 -20 -20 -20 -20 -20 -20 -20 -20 -20 -20 -20 -20 -20 -20 -20 -20 -20 -20 -20 -20 -20 -20 -20 -20 -20 -20 -20 -20
-19 8 9 -20 -20 -20 -20 -20 -20 -20 -20 -20 -20 -20 -20 -20 -20 -20 -20 -20 -20 -20 -20 -20 -20 -20 -20 -20 -20 -20 -20 -20 -20 -20 -20 -20 -20 -20 -20 -20 -20 -20 -20 -20
8 -20 -20 -20 -20 -20 -20 -20 -20 -20 -20 -20 -20 -20 -20 -20 -20 -20 -20 -20 -20 -20 -20 -20 -20 -20 -20 -20 -20 -20 -20 -20 -20 -20 -20 -20 -20 -20 -20 -20 -20 -20 -20 -20
9 -4 -20 -20 -20 -20 -20 -20 -20 -20 -20 -20 -20 -20 -20 -20 -20 -20 -20 -20 -20 -20 -20 -20 -20 -20 -20 -20 -20 -20 -20 -20 -20 -20 -20 -20 -20 -20 -20 -20 -20 -20 -20 -20
11 9 -20 -20 -20 -20 -20 -20 -20 -20 -20 -20 -20 -20 -20 -20 -20 -20 -20 -20 -20 -20 -20 -20 -20 -20 -20 -20 -20 -20 -20 -20 -20 -20 -20 -20 -20 -20 -20 -20 -20 -20 -20 -20
4 -20 -20 -20 -20 -20 -20 -20 -20 -20 -20 -20 -20 -20 -20 -20 -20 -20 -20 -20 -20 -20 -20 -20 -20 -20 -20 -20 -20 -20 -20 -20 -20 -20 -20 -20 -20 -20 -20 -20 -20 -20 -20 -20
-20 -20 -20 -20 -20 -20 -20 -20 -20 -20 -20 -20 -20 -20 -20 -20 -20 -20 -20 -20 -20 -20 -20 -20 -20 -20 -20 -20 -20 -20 -20 -20 -20 -20 -20 -20 -20 -20 -20 -20 -20 -20 -20 -20
-20 -20 -20 -20 -20 -20 -20 -20 -20 -20 -20 -20 -20 -20 -20 -20 -20 -20 -20 -20 -20 -20 -20 -20 -20 -20 -20 -20 -20 -20 -20 -20 -20 -20 -20 -20 -20 -20 -20 -20 -20 -20 -20 -20
-20 -20 -20 -20 -20 -20 -20 -20 -20 -20 -20 -20 -20 -20 -20 -20 -20 -20 -20 -20 -20 -20 -20 -20 -20 -20 -20 -20 -20 -20 -20 -20 -20 -20 -20 -20 -20 -20 -20 -20 -20 -20 -20 -20
-20 -20 -20 -20 -20 -20 -20 -20 -20 -20 -20 -20 -20 -20 -20 -20 -20 -20 -20 -20 -20 -20 -20 -20 -20 -20 -20 -20 -20 -20 -20 -20 -20 -20 -20 -20 -20 -20 -20 -20 -20 -20 -20 -20
-20 -20 -20 -20 -20 -20 -19 -20 -20 -20 -20 -20 -20 -20 -20 -20 -20 -20 -20 -20 -20 -20 -20 -20 -20 -20 -20 -20 -20 -20 -20 -20 -20 -20 -20 -20 -20 -20 -20 -20 -20 -20 -20 -20
-20 -18 9 5 -20 -20 23 3 -20 -20 -20 -20 -20 -20 -20 -20 -20 -20 -20 -20 -20 -20 -20 -20 -20 -20 -20 -20 -20 -20 -20 -20 -20 -20 -20 -20 -20 -20 -20 -20 -20 -20 -20 -20
-14 -20 -20 -3 -20 -10 30 -5 -10 -20 -20 -20 -20 -20 -20 -20 -20 -20 -20 -20 -20 -20 -20 -20 -20 -20 -20 -20 -20 -20 -20 -20 -20 -20 -20 -20 -20 -20 -20 -20 -20 -20 -20 -20
-20 -18 -20 -20 -20 -16 -14 -20 -20 -20 -20 -20 -20 -20 -20 -20 -20 -20 -20 -20 -20 -20 -20 -20 -20 -20 -20 -20 -20 -20 -20 -20 -20 -20 -20 -20 -20 -20 -20 -20 -20 -20 -20 -20
-17 -12 -20 -20 -20 -20 -20 -20 -20 -20 -20 -20 -20 -20 -20 -20 -20 -20 -20 -20 -20 -20 -20 -20 -20 -20 -20 -20 -20 -20 -20 -20 -20 -20 -20 -20 -20 -20 -20 -20 -20 -20 -20 -20
-20 -18 16 -20 -20 -20 -20 -20 -20 -20 -20 -20 -20 -20 -20 -20 -20 -20 -20 -20 -20 -20 -20 -20 -20 -20 -20 -20 -20 -20 -20 -20 -20 -20 -20 -20 -20 -20 -20 -20 -20 -20 -20 -20
-20 -20 -20 -20 -20 -20 -20 -20 -14 5 -20 -20 -20 -20 -20 -20 -20 -20 -20 -20 -20 -20 -20 -20 -20 -20 -20 -20 -20 -20 -20 -20 -20 -20 -20 -20 -20 -20 -20 -20 -20 -20 -20 -20
-20 -20 -20 -20 -20 -20 -20 -19 -1 -9 -20 -20 -20 -20 -20 -20 -12 -11 -20 -9 -20 -20 -20 0 -1 -19 -16 -20 -20 -20 -20 -20 -20 -20 -20 -20 -20 -20 -20 -20 -20 -20 -9 -4
-20 -20 -20 -20 -20 -20 -20 -20 -20 -20 -20 -20 -20 -20 -20 -20 -20 -20 -20 -20 -8 -20 -18 -14 -20 -11 -20 -20 -20 -20 -20 -20 -20 -20 -20 -20 -20 -20 -20 -20 -19 -7 12 28
-20 -20 -20 -20 -20 -9 -20 -20 -20 -20 -20 -20 -20 -20 -20 -20 -17 -19 -20 -5 -20 -20 -20 -3 -20 -20 -20 -20 -20 -20 -20 -20 -20 -20 -20 -20 -20 -20 -20 -20 -19 14 32 33
-20 -20 -10 -20 -20 -20 -20 -20 -20 -20 -20 -18 -14 -20 -20 -20 -20 -20 -20 -20 -18 -20 -20 -20 -20 -20 -20 -20 -20 -20 -20 -20 -20 -20 -20 -20 -20 -20 -11 33 30 11 3 9
-20 -20 -20 -20 -20 -20 -20 -20 -14 -20 -20 -9 2 -15 -19 -13 -20 -20 -20 -20 -4 -20 -20 -8 -11 -20 -20 -20 -20 -20 -20 -20 -20 -18 -13 -4 10 26 27 20 -7 4 3 -3
-20 -20 -20 -20 -20 -20 -20 -20 -20 -10 -20 -20 -20 -20 -20 -20 -20 -0 7 -20 -20 -20 -18 -19 -16 -20 10 22 0 -11 -5 -20 -11 5 -13 -15 -14 -17 -10 1 7 8 9 8
-20 -20 -20 -20 -20 -20 -20 -20 -20 -20 -20 -20 -20 -20 -20 -20 16 23 21 10 3 4 -17 -20 3 26 20 -13 -18 -18 2 10 -13 -20 -20 -19 -18 -17 -6 1 2 2 5 6
6 6 -3 -19 -20 -20 -20 -10 -10 -7 -6 -0 -1 10 14 22 21 11 5 -15 -6 -19 -20 -15 22 27 20 5 -12 -20 -20 -20 -20 -20 -20 -20 -20 -20 -20 -20 -20 -20 -20 -20
-20 -20 -20 5 -20 -15 -20 -19 -17 -18 -15 -16 8 7 -13 -16 -6 -20 -20 -20 -20 -20 1 21 16 10 15 14 -2 -6 -20 -20 -20 -20 -20 -20 -20 -20 -20 -20 -20 -20 -20 -20
-20 -20 -20 -20 -20 -20 -8 -2 -6 -0 -17 -20 -20 -20 -20 -19 -20 -20 -20 -20 -16 14 21 20 4 -12 -10 -1 4 -1 -14 -19 -20 -20 -20 -20 -20 -20 -20 -20 -20 -20 -20 -20

GFSNW_prec_radar_003.txt.gz
Reflectivity
-20 -20 -20 -20 -15 16 13 -20 -20 -20 -20 -20 -20 -20 -20 -20 -20 -20 -20 -20 -20 -20 -20 -20 -20 -20 -20 -20 -20 -20 -20 -20 -20 -20 -20 -20 -20 -20 -20 -20 -20 -20 -20 -20
-20 -20 -15 14 8 6 -20 -20 -20 -20 -20 -20 -20 -20 -20 -20 -20 -20 -20 -20 -20 -20 -20 -20 -20 -20 -20 -20 -20 -20 -20 -20 -20 -20 -20 -20 -20 -20 -20 -20 -20 -20 -20 -20
-20 -20 7 8 -20 -20 -20 -20 -14 -20 -20 -20 -20 -20 -20 -20 -20 -20 -20 -20 -20 -20 -20 -20 -20 -20 -20 -20 -20 -20 -20 -20 -20 -20 -20 -20 -20 -20 -20 -20 -20 -20 -20 -20
-20 6 -18 -15 -20 -20 -20 -20 -20 -20 -20 -20 -20 -20 -20 -20 -20 -20 -20 -20 -20 -20 -20 -20 -20 -20 -20 -20 -20 -20 -20 -20 -20 -20 -20 -20 -20 -20 -20 -20 -20 -20 -20 -20
-20 -10 -20 3 -20 -13 -20 -20 -20 -20 -20 -20 -20 -20 -20 -20 -20 -20 -20 -20 -20 -20 -20 -20 -20 -20 -20 -20 -20 -20 -20 -20 -20 -20 -20 -20 -20 -20 -20 -20 -20 -20 -20 -20
-14 -1 -15 -17 -20 -20 -20 -20 -20 -20 -20 -20 -20 -20 -20 -20 -20 -20 -20 -20 -20 -20 -20 -20 -20 -20 -20 -20 -20 -20 -20 -20 -20 -20 -20 -20 -20 -20 -20 -20 -20 -20 -20 -20
10 8 -20 -20 -20 -20 -20 -20 -20 -20 -20 -20 -20 -20 -20 -20 -20 -20 -20 -20 -20 -20 -20 -20 -20 -20 -20 -20 -20 -20 -20 -20 -20 -20 -20 -20 -20 -20 -20 -20 -20 -20 -20 -20
-20 -20 -20 -20 -20 -20 -20 -20 -20 -20 -20 -20 -20 -20 -20 -20 -20 -20 -20 -20 -20 -20 -20 -20 -20 -20 -20 -20 -20 -20 -20 -20 -20 -20 -20 -20 -20 -20 -20 -20 -20 -20 -20 -20
-20 -20 -20 -20 -20 -20 -20 -20 -20 -20 -20 -20 -20 -20 -20 -20 -20 -20 -20 -20 -20 -20 -20 -20 -20 -20 -20 -20 -20 -20 -20 -20 -20 -20 -20 -20 -20 -20 -20 -20 -20 -20 -20 -20
-20 -20 -20 -20 -20 -20 -20 -20 -20 -20 -20 -20 -20 -20 -20 -20 -20 -20 -20 -20 -20 -20 -20 -20 -20 -20 -20 -20 -20 -20 -20 -20 -20 -20 -20 -20 -20 -20 -20 -20 -20 -20 -20 -20
-20 -20 -20 -20 -20 -20 -20 -20 -20 -20 -20 -20 -20 -20 -20 -20 -20 -20 -20 -20 -20 -20 -20 -20 -20 -20 -20 -20 -20 -20 -20 -20 -20 -20 -20 -20 -20 -20 -20 -20 -20 -20 -20 -20
11 9 -20 -20 -20 -20 -20 -20 -16 -20 -20 -20 -20 -20 -20 -20 -20 -20 -20 -20 -20 -20 -20 -20 -20 -20 -20 -20 -20 -20 -20 -20 -20 -20 -20 -20 -20 -20 -20 -20 -20 -20 -20 -20
-20 -20 -0 -20 -20 -20 -11 8 3 -18 -15 -20 -20 -20 -20 -20 -20 -20 -20 -20 -20 -20 -20 -20 -20 -20 -20 -20 -20 -20 -20 -20 -20 -20 -20 -20 -20 -20 -20 -20 -20 -20 -20 -20
-20 -20 -20 -20 -20 -4 2 15 -1 -19 18 17 11 12 -20 -20 -20 -20 -20 -20 -20 -20 -20 -20 -20 -20 -20 -20 -20 -20 -20 -20 -20 -20 -20 -20 -20 -20 -20 -20 -20 -20 -20 -20
-20 -20 -20 -20 -20 -20 22 -18 -20 -6 -18 -18 5 -17 -20 -20 -20 -20 -20 -20 -20 -20 -20 -20 -20 -20 -20 -20 -20 -20 -20 -20 -20 -20 -20 -20 -20 -20 -20 -20 -20 -20 -20 -20
-20 -20 -20 -20 -20 -14 17 19 22 -19 -20 -20 -20 -20 -20 -20 -20 -20 -20 -20 -20 -20 -20 -20 -20 -20 -20 -20 -20 -20 -20 -20 -20 -20 -20 -20 -20 -20 -20 -20 -20 -20 -20 -20
-12 -20 -20 -20 -20 1 8 -8 -13 11 -20 -20 -20 -19 -20 -13 -20 -20 -20 -20 -20 -20 -20 -20 -20 -20 -20 -20 -20 -20 -20 -20 -20 -20 -20 -20 -20 -20 -20 -20 -20 -20 -20 -20
10 19 13 -20 -20 -20 -20 -20 -20 -17 -20 -20 -20 -20 -20 -20 -10 -13 -20 -9 -20 -20 -20 -20 -20 -20 -20 -20 -20 -20 -20 -20 -20 -20 -20 -20 -20 -20 -20 -20 -20 -20 -20 -20
14 11 -2 -20 -20 -20 -20 -20 -20 -20 -20 -20 -20 -20 -20 -20 -14 -6 -20 -19 -20 -20 -6 -19 -20 -17 -20 -20 -20 -20 -20 -20 -20 -20 -20 -20 -20 -20 -20 -20 -20 -19 2 0
-20 -8 -20 -20 -20 -20 -20 -20 -20 -20 -20 -20 -20 -20 -20 -20 -18 -2 -20 -20 -20 -20 -20 -20 -20 -20 -20 -20 -20 -20 -20 -20 -20 -20 -20 -20 -20 -20 -20 -1 -8 -5 13 27
-15 -16 -1 -7 -9 -20 -20 -20 -20 -20 -20 -16 -20 -20 -20 -20 -20 -20 -20 -20 -20 -20 -20 -20 -20 -20 -20 -20 -20 -20 -20 -20 -20 -20 -20 -20 -19 -3 4 20 24 25 14 4
-12 -20 -15 -16 -20 -20 -20 -20 -20 -20 -20 -20 -16 3 -6 -7 -10 -15 -20 -20 -5 -20 -20 -14 -20 -20 -20 -16 -16 -16 -16 -13 -20 -20 -17 -10 -14 -19 -20 -20 -20 -20 -15 0
-18 -20 -18 -20 -20 -20 -20 -20 -20 -12 0 10 -20 -20 -18 -20 -20 -20 -20 -20 -20 -20 -20 -20 -20 -18 23 -1 1 -10 -12 -19 -20 -20 -20 -20 -20 -20 -20 -20 -20 -17 -13 -17
-16 -20 -20 -20 -20 -20 -20 -20 -19 -20 -19 -20 -9 -9 -20 -20 -20 -20 3 7 14 3 -11 -18 -17 28 -7 -9 -15 -19 -20 -20 -20 -20 -20 -20 -20 -20 -20 -20 -20 -20 -20 -20
-11 -20 -20 -20 -20 -20 -20 -20 -20 -20 -20 -20 -20 -20 -18 -15 -8 -8 6 -20 -20 -20 -20 -10 20 4 -19 -19 -20 -20 -16 -20 -20 -20 -20 -20 -20 -20 -20 -20 -20 -20 -20 -20
18 16 10 -15 -19 -20 -20 -10 -4 11 1 8 17 8 10 -18 -9 -5 1 -9 -19 -20 -20 14 -2 -5 -20 -20 -20 -20 -20 -20 -20 -20 -20 -20 -20 -20 -20 -20 -20 -20 -20 -20
-18 -19 -11 -7 -4 -8 16 11 6 2 20 -3 -4 -16 -19 1 -20 -20 -20 -20 -2 16 18 10 -18 -20 -20 -20 -20 -20 -20 -20 -20 -20 -20 -20 -20 -20 -20 -20 -20 -20 -20 -20

GFSNW_prec_radar_006.txt.gz
Reflectivity
13 26 19 -20 -20 7 -20 -20 -20 -20 -20 -20 -20 -20 -20 -20 -20 -20 -20 -20 -20 -20 -20 -20 -20 -20 -20 -20 -20 -20 -20 -20 -20 -20 -20 -20 -20 -20 -20 -20 -20 -20 -20 -20
-10 34 19 -20 -10 -5 -20 -20 -5 -20 -20 -20 -20 -20 -20 -20 -20 -20 -20 -20 -20 -20 -20 -20 -20 -20 -20 -20 -20 -20 -20 -20 -20 -20 -20 -20 -20 -20 -20 -20 -20 -20 -8 -20
18 35 19 -20 -9 -20 -20 -20 8 -10 -20 -20 -20 -20 -20 -20 -20 -20 -20 -20 -20 -20 -20 -20 -20 -20 -20 -20 -20 -20 -20 -20 -20 -20 -20 -20 -20 -20 -20 -20 -20 -20 -20 -20
36 27 18 -20 -20 -20 -20 -20 -1 -20 -20 -20 -20 -20 -20 -20 -20 -20 -20 -20 -20 -20 -20 -20 -20 -20 -20 -20 -20 -20 -20 -20 -20 -20 -20 -20 -20 -20 -20 -20 -20 -20 -20 -20
38 25 -3 1 -13 -20 -20 -15 -20 -20 -20 -20 -20 -20 -20 -20 -20 -20 -20 -20 -20 -20 -20 -20 -20 -20 -20 -20 -20 -20 -20 -20 -20 -20 -20 -20 -20 -20 -20 -20 -20 -20 -20 -20
29 23 -20 2 15 -13 -20 -20 -20 -20 -20 -20 -20 -20 -20 -20 -20 -20 -20 -20 -20 -20 -20 -20 -20 -20 -20 -20 -20 -20 -20 -20 -20 -20 -20 -20 -20 -20 -20 -20 -20 -20 -20 -20
19 -1 -14 13 11 -20 -20 -20 -20 -20 -20 -20 -20 -20 -20 -20 -20 -20 -20 -20 -20 -20 -20 -20 -20 -20 -20 -20 -20 -20 -20 -20 -20 -20 -20 -20 -20 -20 -20 -20 -20 -20 -20 -20
-19 6 12 9 -16 -20 -20 -20 -20 -20 23 -20 -20 -20 -20 -20 -20 -20 -20 -20 -20 -20 -20 -20 -20 -20 -20 -20 -20 -20 -20 -20 -20 -13 -20 -20 -20 -20 -20 -20 -20 -20 -20 -20
4 7 9 -20 -20 -20 -20 -20 -20 -20 -20 -20 -20 -20 -20 -20 -20 -20 -20 -20 -20 -20 -20 -20 -20 -20 -20 -20 -20 -20 -20 -20 -20 -20 -17 -20 -20 -20 -20 -20 -20 -20 -20 -20
-9 -15 -16 -20 -20 -20 -20 -20 -20 -20 -20 -20 -20 -20 -20 -20 -20 -20 -20 -20 -20 -20 -8 23 -20 -20 -20 -20 -20 -13 -20 -19 13 -20 2 -20 -20 -20 -20 -20 -20 -20 -20 -20
-20 -20 -20 -20 -20 -20 -20 -20 -20 -20 -20 -20 -20 -20 -20 -20 -20 -20 -20 -20 -20 -20 -9 13 -20 -5 -20 -20 -20 -20 -20 -20 -20 -20 10 -20 -20 -20 -6 -20 -20 -20 -20 -20
-20 -20 -20 -20 -20 -20 -16 -20 -20 -20 -20 -20 -20 -20 -20 -20 -20 -20 -20 -20 -20 -20 -19 3 -20 8 9 -20 -20 -20 -20 -20 -20 -20 -20 -20 -20 -20 -20 -20 -20 -20 -20 -20
-17 -20 -20 -20 -20 -20 -20 -20 -4 -20 -20 -20 -20 -20 -20 -20 -20 -20 -20 -20 -20 -20 -20 -20 -20 23 -20 -11 -20 -20 -20 -20 -20 -20 -20 -20 -20 -20 -20 -20 -20 -20 -20 -20
1 -5 -20 -20 -20 -20 -20 -20 -20 -20 -20 18 -20 -20 -20 -20 -20 -20 -20 -20 -20 -20 -20 -20 -3 18 -20 -20 -20 -20 -20 -20 -20 -20 -20 -20 -20 -20 -20 -20 -20 -20 -20 -20
-20 -13 -20 -20 -20 -20 -20 -20 5 -20 -18 -11 -20 -20 -20 -20 -20 -20 -20 -20 -20 -20 -6 14 -7 -20 -20 -20 -20 -20 -20 -20 -20 -20 -20 -20 -20 -20 -20 -20 -20 -20 -20 -20
-20 -20 -20 -20 -20 -20 -20 -9 -16 18 21 -20 -20 -0 -2 -20 -20 -20 -20 -20 -20 -20 -20 3 -20 -20 -20 7 -20 -20 -20 -20 -20 -20 -20 -20 -20 -20 -20 -20 -20 -20 -20 -20
19 -20 -20 -20 -20 -12 -15 34 -3 9 18 -20 -13 -12 -14 -18 -20 -20 -20 -20 -20 -20 -20 -20 -20 -20 -20 -11 -20 -20 -20 -20 -20 -20 -20 -20 -20 -20 -20 -20 -20 -14 -20 -20
-9 -9 -16 13 25 -7 -20 5 -8 -20 -20 -20 -10 -3 -2 -20 -20 -20 -20 -20 -20 -20 -20 -20 -20 -20 -20 -20 -20 -20 -20 -20 -20 -20 -20 -20 -20 -20 -20 -20 -20 -20 -9 -12
8 13 25 19 11 20 20 7 -6 2 -3 -20 -20 -2 18 -20 -20 -20 -20 -20 -20 -18 -1 -20 -20 -20 -20 -20 -20 -20 -20 -20 -20 -20 -20 -20 -20 -20 -20 -20 -7 -12 7 -1
-5 -20 -20 -20 -17 -10 -20 -20 -20 -20 -20 -20 -19 -20 -20 -20 -12 -14 -20 -19 -20 -20 -16 -19 -4 -19 -20 -20 -20 -20 -20 -20 -20 -20 -20 -20 -20 -19 1 -20 -8 -8 -17 -20
-19 10 7 -20 -20 -18 -20 -20 -20 -20 9 -20 -13 -20 -20 -20 -10 -20 -20 -7 -20 -20 -20 -18 -11 -20 -20 -20 -20 -20 -20 -20 -20 -20 -20 -18 -20 -20 -20 -20 -20 -20 -20 -8
-12 -5 -2 -6 -20 -19 -20 -20 -8 -7 -19 -13 -2 -20 -20 -20 -20 -20 -20 -13 -16 -20 -20 6 0 -20 -20 -20 -19 -16 -20 -20 -2 -20 -9 -3 -20 -11 -0 -11 -19 -20 -20 -20
-20 -20 -20 -20 -15 -8 13 -20 -19 -19 0 10 11 10 -20 -20 -20 -7 -9 12 -5 -20 -6 -19 -19 -20 6 -4 1 -18 -20 -20 -20 -20 -20 -20 -20 -20 -20 -20 -20 -20 -20 -20
-0 22 16 7 -3 -20 -20 -18 -19 -7 -3 -20 -20 -18 -20 -20 6 -2 14 -17 -15 -20 0 -8 -6 10 22 14 -19 -20 -20 -20 -20 -20 -20 -20 -20 -20 -20 -20 -20 -20 -20 -20
7 8 5 -12 -17 -20 -12 -14 -13 -20 -20 -20 -20 -20 -20 -20 -15 -20 -20 -7 -11 -8 -11 -18 2 2 -7 -20 -20 -20 -20 -20 -20 -20 -20 -20 -20 -20 -20 -20 -20 -20 -20 -20
17 4 2 -3 -20 -19 -4 -4 -5 -16 -15 -19 -20 -20 -20 -16 10 15 -10 2 -18 -5 -13 4 -11 -13 -20 -20 -20 -20 -20 -20 -20 -20 -20 -20 -20 -20 -20 -20 -20 -20 -20 -20
23 18 30 27 23 24 27 26 28 24 27 20 29 26 13 22 0 -18 -1 3 21 20 -2 -5 -7 -19 -5 -20 -20 -20 -20 -20 -20 -20 -20 -20 -20 -20 -20 -20 -20 -20 -20 -20

GFSNW_prec_radar_009.txt.gz
Reflectivity
-18 -2 13 13 28 1 -20 3 -20 1 -20 -20 -20 -20 -20 -20 -20 -20 -20 -20 -20 -20 -20 -20 -20 -20 -20 -20 -20 -20 -20 -20 -20 -20 -20 -20 -20 -20 -20 -20 -20 -20 -20 -20
17 13 15 26 26 -9 -20 9 -5 15 -15 9 11 -20 -20 -20 -20 -20 -20 -20 -20 -20 -20 -20 -20 -20 -20 -20 -20 -20 -20 -20 -20 -20 -20 -20 -20 -20 -20 -20 -20 -20 -20 -20
-14 -1 15 32 26 -10 -9 -20 -4 -10 -19 -20 -20 -20 -20 -20 -20 -20 -20 -20 -20 -20 -20 -20 -20 -20 -20 -20 -20 -20 -20 -20 -20 -20 -20 -20 -20 -20 -20 -20 -20 -20 -20 -20
-11 6 20 31 26 -15 -20 -20 -20 -20 -11 3 -20 -20 -20 -20 -20 -20 -20 -20 -20 -20 -20 -20 -20 -20 -20 -20 -20 -20 -20 -20 -20 -20 -20 -20 -20 -20 -20 -20 -20 -20 -20 -20
19 19 24 35 26 -20 -3 14 -20 -20 -20 -20 -20 -20 -20 -20 -20 -20 -20 -20 -20 -20 -20 -20 -20 -20 -20 -20 -20 -20 -20 -20 -20 -20 -20 -20 -20 -20 -20 -20 -20 -20 -20 -20
1 27 21 32 21 -20 7 -20 -20 -19 -20 -20 -20 -20 -20 -20 -20 -20 -20 -20 -20 -20 -20 -20 -20 -20 -20 -20 -20 -20 -20 -20 -20 -20 -20 -20 -20 -20 -20 -20 -20 -20 -20 -20
11 19 32 24 19 -20 -20 -20 18 6 15 -20 -20 -20 -20 -20 -20 -20 -20 -20 -20 -20 -20 -20 -20 -20 -20 -20 -20 -20 -20 -20 -20 -20 -20 -11 -20 -20 -20 -20 -20 -20 -20 -20
-12 19 33 27 13 -20 -20 2 2 24 17 -20 -20 -20 -20 -20 -20 -20 -20 -20 -20 -20 -20 -20 -20 -20 -20 -20 -20 -20 -20 -20 -20 -15 -20 -20 -20 -20 -20 -20 -20 -20 -20 -20
19 38 26 26 -20 -20 17 21 -20 3 -20 -20 -20 -20 -20 -20 -20 -20 -20 -20 -20 -20 -20 -20 -20 -20 -20 -20 -20 -20 -20 -20 -20 -20 -20 -20 -20 -20 -20 -20 -20 -20 -20 -20
32 23 22 11 -20 -20 25 -16 -5 -20 -20 -20 -20 -20 -20 -20 -20 -20 -20 -20 -20 -20 -9 12 -20 -20 -20 -20 -20 -20 -20 -20 -3 -20 -10 -20 -20 -20 -20 -20 -20 -20 -20 -20
26 20 -1 -8 -20 0 21 -14 -14 -20 -20 -20 -20 -20 -20 -20 -20 -20 -20 -20 -20 -20 -20 -4 -20 -8 -20 -20 -20 -20 -20 -20 -20 -20 -20 -20 -20 -20 -20 -20 -20 -20 -20 -20
-1 2 8 -14 -20 -18 24 15 -20 -20 -20 -20 -20 -20 -20 -20 -20 -20 -20 -20 -20 -20 -20 -15 7 3 8 -20 -20 -20 -20 -20 -20 -20 -20 -20 -20 -20 -20 -20 -20 -20 -20 -20
11 1 -19 -20 -20 -20 21 -13 -20 -20 -20 -20 -20 -20 -20 -20 -20 -20 -20 -20 -20 -20 -20 -20 -20 15 -20 -20 -20 -20 -20 -20 -20 -20 -20 -20 -20 -20 -20 -20 -20 -20 -20 -20
-20 -20 -11 -20 -20 -20 26 -20 -20 -20 -20 13 12 -20 -20 -20 -20 -20 -20 -20 -20 -20 -20 -20 -13 7 -20 -20 -20 -20 -20 -20 -20 -20 -20 -20 -20 -20 -20 -20 -20 -20 -20 -20
-20 -20 -20 -20 -20 -20 15 -20 -20 -20 -20 14 -19 -20 -20 -20 -20 -20 -20 -20 -20 -20 -20 10 -9 -20 -20 -20 -20 -20 -20 -20 -20 -20 -20 -20 -20 -20 -20 -20 -20 -20 -20 -20
-20 -20 -20 -20 -20 -20 -20 28 -19 -20 -20 25 8 -20 -20 -20 -20 -20 -20 -20 -20 -20 -20 -20 -20 -20 -20 5 -20 -20 -20 -20 -20 -20 -20 -20 -20 -20 -20 -20 -20 -20 -20 -20
-9 -20 -20 -20 -20 -20 12 -20 -20 -20 17 26 -13 -20 -20 -20 -20 -20 -20 -20 -20 -20 -20 -20 -20 -20 -20 -20 -20 -20 -20 -20 -20 -20 -20 -17 -20 -20 -20 -20 -20 -20 -20 -20
-20 -20 -20 -20 7 -17 8 -16 -20 -15 19 9 10 4 -9 -20 -17 -6 -20 -7 -20 -20 -20 -20 -20 -20 -20 -20 -20 -20 -20 -20 -20 -20 -20 -20 -20 -20 -20 -20 -20 -19 -11 -10
-20 -20 -20 -20 -4 26 -20 -2 28 33 22 20 4 -13 -19 -20 -4 17 -12 -19 -20 -20 -20 -20 -20 -20 -20 -20 -20 -20 -20 -20 -20 -20 -20 -20 -20 -20 -20 -20 -10 -18 -9 -20
-20 -20 -19 23 -19 -20 12 37 15 15 18 0 -20 -20 20 -11 -9 4 -18 -20 -20 -20 -17 -20 -7 -19 -20 -20 -20 -20 -20 -20 -20 -20 -20 -20 -20 -20 -20 -13 -19 -19 -0 -20
-20 -20 -9 -20 -12 13 18 30 2 -12 -11 -16 -20 -10 -20 -20 -10 -19 -20 -20 -12 -20 -12 -20 4 -6 -20 -20 -20 -20 -20 -20 -20 -20 -20 -20 -15 -2 4 3 -14 -14 -20 -20
5 26 30 18 -1 8 14 4 -10 -5 -19 -12 -7 -20 -8 -8 -20 -20 -5 -20 -17 -20 -13 6 -18 -20 -20 -20 -15 -4 -20 -20 -20 -20 -12 -20 -20 -10 -20 -20 -20 -20 -20 -20
-19 -9 -6 -18 -5 5 6 -3 -20 -15 -2 7 11 15 -4 -19 -20 -1 -20 -13 5 -20 7 -17 -19 -11 -20 -14 -19 -20 -20 -20 -20 -20 -20 -20 -20 -20 -20 -20 -20 -20 -20 -20
-19 11 10 6 -6 -13 -2 -8 4 2 5 -4 -12 -17 -18 -6 -1 5 8 -6 -19 3 5 -8 -3 -18 -13 -3 -14 -20 -20 -20 -20 -20 -20 -20 -20 -20 -20 -20 -20 -20 -20 -20
27 20 17 10 -5 -13 -11 -0 -13 -16 -20 -19 -20 -17 -20 -18 9 -16 -9 -12 -9 -12 -0 -3 -16 -3 1 2 -5 -13 -20 -20 -20 -20 -20 -20 -20 -20 -18 -20 -20 -20 -20 -20
27 26 11 4 10 9 -3 5 0 3 -19 -20 -17 -2 -12 -19 -17 -9 -3 2 6 3 -20 -12 14 20 21 -20 -20 -20 -20 -20 -20 -20 -20 -20 -20 -20 -20 -20 -20 -20 -20 -20
14 23 31 19 14 -3 9 12 2 -3 -10 -18 -20 2 -8 11 13 -0 18 20 13 21 22 17 8 5 -9 -20 -20 -20 -20 -20 -20 -20 -20 -13 -20 -20 -20 -20 -20 -20 -20 -20

GFSNW_prec_radar_012.txt.gz
Reflectivity
23 17 -17 -18 12 10 21 9 -17 -20 -20 -20 -20 -11 -20 -20 -20 -20 -20 -20 -20 -20 3 -20 -20 5 -20 -20 -20 -20 -20 -20 -20 -20 -20 -20 -20 -20 -20 -20 -20 -20 -20 -20
21 15 -14 15 3 11 19 5 -6 2 -20 -20 -20 -20 -20 -20 -20 -20 -20 -20 -20 -20 -20 -20 -20 -19 4 -20 -20 -20 -20 -20 -20 -20 -20 -20 -20 -20 -20 -20 -20 -20 -20 -20
28 15 9 14 18 14 27 -2 18 24 16 -20 -20 -20 -20 -20 -20 -20 -20 -20 -20 -20 -20 -20 -20 -20 -20 -20 -20 -20 -20 -20 -20 -20 -20 -15 -16 -20 -20 -20 -20 -20 -20 -20
26 8 12 15 11 28 31 21 -2 7 1 -20 -20 -20 -20 -20 -20 -20 -20 -20 -20 -20 -20 -20 -20 -20 -20 -20 -20 -20 -20 -20 -20 -20 -14 -14 -20 -20 -20 -20 -20 -20 -20 -20
28 13 18 19 12 33 33 9 -20 -7 6 -20 -20 -20 -20 -20 -20 -20 -20 -20 -20 -20 -20 -20 -20 -20 -20 -20 -20 -20 -20 -20 -20 -20 -20 -20 -20 -20 -20 -20 -20 -20 -20 -20
18 -11 4 20 15 36 30 -20 -20 -14 -19 -20 12 -20 -20 -20 -20 -20 -20 -20 -20 -20 -20 -20 -20 -20 4 -18 -20 -20 -20 -20 -20 -20 -20 -20 -20 -20 -20 -20 -20 -20 -20 -20
16 -20 -20 11 18 33 8 -20 6 29 -11 -20 -20 -20 -20 -20 -20 8 -20 -20 8 -20 -20 -20 -20 -20 4 -7 -20 -20 -20 -20 -20 -20 -20 -20 -20 -20 -20 -20 -20 -20 -20 -20
12 4 -0 2 33 25 4 -19 1 26 29 -20 -20 -1 -20 -20 -20 10 -20 -20 -18 -20 -20 -20 -20 -20 -20 -20 -20 -14 -20 -20 -20 -20 -20 -20 -20 -20 -20 -20 -20 -20 -20 -20
23 5 -14 23 35 17 -15 -7 17 20 19 -18 -20 -8 0 -20 12 -10 20 -20 -20 -20 -20 -20 -20 -20 -20 -19 -20 -20 -20 -20 -20 -20 -20 -20 -20 -20 -20 -20 -20 -20 -20 -20
-9 -13 11 31 32 -1 6 9 32 21 26 -20 -20 -17 -16 -20 7 -20 -20 -20 -20 -20 -9 12 -20 -20 -20 -20 -20 -20 -20 -20 -20 -20 -20 -20 -20 -20 -20 -20 -20 -20 -20 -20
15 14 20 29 24 -20 -7 -20 32 46 19 -20 -20 -20 -20 -20 -7 -20 -20 -12 -20 -20 -19 -20 -20 -7 -20 -20 -20 -20 -20 -20 -20 -20 -20 -20 -20 -20 -20 -20 -20 -20 -20 -20
-6 18 15 25 5 -20 15 15 29 36 34 -0 -20 -20 -20 -20 -13 4 -20 -20 -20 -20 -16 -19 -6 -19 7 -20 -20 -20 -20 -19 -20 -20 -20 -20 -20 -20 -20 -20 -20 -20 -20 -20
4 17 24 17 -3 6 9 -0 24 42 29 6 -20 -20 -20 -20 -20 -8 -7 -20 -20 -20 -20 -20 -7 -16 -19 -20 -20 -20 -20 -20 -20 -20 -20 -20 -20 -20 -20 -20 -20 -20 -20 -20
13 11 -2 12 -6 9 42 26 23 25 -16 -0 5 -20 -20 -20 -20 -20 -20 -20 -20 -20 -20 -20 -20 3 -20 -20 -20 -20 -20 -20 -20 -20 -20 -20 -20 -20 -20 -20 -20 -20 -20 -20
3 -12 -0 -14 10 11 25 29 30 16 -20 -20 -20 -20 -20 -20 -20 -20 -20 -20 -20 -20 -20 9 6 -20 -20 -20 -20 -20 -20 -20 -20 -20 -20 -20 -20 -20 -20 -20 -20 -20 -20 -20
22 27 8 18 6 16 25 19 18 22 -20 -20 -12 -20 -20 -20 -20 -20 -20 -20 -20 -20 -20 -20 -20 -20 -20 -20 -20 -20 -20 -20 -20 -20 -20 -20 -20 -20 -20 -20 -20 -20 -20 -20
11 12 12 6 13 22 17 24 -9 -20 -20 -12 1 -14 -20 -20 -20 -20 -20 -20 -20 -20 -20 -20 -20 -20 -20 -10 -20 -20 -20 -20 -20 -20 -20 -20 -20 -20 -20 -20 -20 -20 -20 -20
10 -7 -8 3 -20 17 5 3 -2 -20 -20 -20 12 6 -16 -15 10 -20 -20 -20 -20 -1 -20 -20 -20 -20 -20 -20 -20 -20 -20 -20 -20 -20 -20 -20 -20 -20 -20 -20 -20 -20 -20 -20
-20 -20 -20 21 8 20 -13 -17 -7 -20 -20 15 23 -16 8 -20 -20 -20 -20 -18 -14 -20 -2 -20 -20 -20 -20 -20 -20 -20 -20 -20 -20 -20 -20 -20 -20 -20 -20 -20 -20 -20 -20 -20
-8 -20 -18 24 -6 -3 -19 -20 -20 -20 -20 28 8 -20 -20 -20 -20 -5 10 7 -9 -20 17 9 -20 -20 -20 -20 -20 -20 -20 -20 -20 -20 -20 -20 -20 -20 -20 -20 -20 -20 -20 -20
-20 6 6 -9 21 -4 -20 -20 -1 -8 12 18 11 -20 11 -20 9 13 17 8 5 -1 -20 -16 -16 -20 -20 -20 -20 -20 -20 -20 -20 -20 -20 -20 -20 -20 -20 -20 -20 -20 -20 -20
-20 -11 -11 -2 -6 -20 4 -13 -13 28 25 16 1 -9 -12 6 10 30 31 16 5 -19 -20 4 -20 -20 -20 -20 -20 -20 -20 -20 -20 -20 -20 -20 -20 -20 -20 -20 -20 -20 -20 -20
-20 6 -20 -20 -0 -5 -6 1 21 2 -1 5 6 10 -2 -19 -17 -10 -18 -17 -20 -18 -15 -18 -20 -20 -20 -20 -20 -20 -20 -20 -20 -20 -20 -20 -20 -20 -20 -20 -20 -18 -20 -20
-17 6 12 10 14 9 0 1 3 -16 3 0 -18 -12 -20 2 -20 8 -20 -4 -20 -20 -11 -13 -20 -20 -20 -18 -11 -13 -20 -20 -19 -15 -20 -20 -20 -20 -20 -20 -20 -20 -20 -20
17 23 16 -4 5 4 -10 -2 5 6 3 -11 -1 -9 -14 2 -8 -18 -20 -10 -9 -19 -15 -5 -17 -19 -9 -8 -3 -14 -11 -15 -20 -20 -20 -20 -20 -20 -20 -20 -20 -20 -20 -20
29 16 1 10 4 -1 -7 -2 -2 -20 -18 -5 -19 2 1 -20 -19 -3 -6 5 -8 -7 -20 7 -10 -2 17 23 15 19 -14 -12 -20 -20 -20 -20 -20 -20 -20 -20 -20 -20 -20 -20
25 18 29 27 11 1 6 2 -2 -7 1 8 -1 -11 -19 -19 -10 -19 8 -13 -4 -11 6 8 3 20 25 21 -1 -20 -20 -20 -20 -20 -20 -20 -20 -20 -20 -20 -20 -20 -20 -20

GFSNW_prec_radar_015.txt.gz
Reflectivity
-20 9 21 15 24 -3 19 15 12 -20 -20 4 2 -20 -20 -20 -20 -20 -20 -20 -20 -20 -19 -7 -20 -20 -20 -20 -17 3 -20 -20 -14 18 -20 -20 -20 -20 -20 -20 -20 -20 -20 -20
-20 14 20 21 27 -14 10 15 21 -6 -20 -20 -20 -20 -20 -20 -20 -20 -20 -20 -20 -20 -7 21 -20 -20 2 11 -8 -20 -20 -20 -20 -20 10 -20 -19 -20 -20 -20 -20 -20 -20 -20
-13 25 16 23 25 -11 10 24 14 22 -5 -20 -20 -20 -20 -20 -20 -20 -20 -20 -20 -20 9 19 3 -20 -20 -20 -20 -20 -20 -20 -20 -20 -20 -20 -20 -20 -20 -20 -20 -20 -20 -20
32 29 21 27 21 2 14 11 1 15 8 -2 -20 -20 -20 -20 -20 -20 -20 -20 -20 -20 -20 -13 10 -20 -20 -20 -20 -20 -20 -20 -20 -20 -20 -20 -20 -20 -20 -20 -20 -20 -20 -20
22 13 15 12 18 17 25 24 -13 8 -1 1 -20 -20 -20 -20 -20 -20 -20 -20 -20 -20 -20 -20 -20 -20 -20 -20 -20 -20 -20 -20 -20 -20 -20 -20 -20 -20 -20 -20 -20 -20 -20 -20
11 1 10 25 19 22 28 14 -15 -6 13 -20 -20 -20 -20 -20 -20 -20 -20 -20 -20 -20 -20 -20 -20 -20 -20 -20 -20 -20 -20 -20 -20 -20 -20 -20 -20 -20 -20 -20 -20 -20 -20 -20
12 0 2 20 18 22 22 3 -19 22 4 -13 -20 -20 -20 -20 -20 -20 -20 -20 -20 -20 -20 -20 -20 -20 -20 -20 7 -16 -20 -20 -20 -20 -20 -20 -20 -20 -20 -20 -20 -20 -20 -20
6 -19 13 1 13 20 12 -9 4 18 10 -20 -20 -20 -20 -20 -20 -20 -20 -20 -20 -20 9 -8 1 -14 -14 -20 -4 -2 -7 1 -20 -20 -20 -20 -20 -20 -20 -20 -20 -20 -20 -20
2 -0 9 -1 -19 27 29 14 11 26 22 2 -20 -20 -20 -20 -20 -20 -20 -4 21 -20 -20 -20 -20 -20 -20 -20 -20 -20 -20 -20 -20 -20 -20 -20 -20 -20 -20 -20 -20 -20 -20 -20
21 19 18 4 -17 33 27 29 28 16 26 -16 -8 -20 -20 -20 -20 -20 -19 27 -15 -20 -20 -20 -20 -20 -20 -20 -20 -20 -20 -20 -20 -20 -20 -20 -20 -20 -20 -20 -20 -20 -20 -20
18 24 18 10 7 21 28 26 18 26 16 -20 0 -20 -20 -20 -20 -20 -17 42 9 -20 8 -20 -20 -20 -20 -20 -20 -20 -20 -20 -20 -20 -20 -20 -20 -20 -20 -20 -20 -20 -20 -20
19 10 -19 -2 9 21 23 -7 3 16 27 21 -2 -20 -20 -17 -20 -20 -20 23 -20 -20 -20 -20 -20 -20 -2 -20 -20 -20 -20 -20 -20 -20 -20 -20 -20 -20 -20 -20 -20 -20 -20 -20
-20 -20 -20 -20 -20 -10 -16 17 15 21 14 18 5 -10 3 17 1 -20 -20 -20 -20 -20 -20 -20 -20 -20 -20 -20 -20 -20 -20 -20 -20 -20 -20 -20 -20 -20 -20 -20 -20 -20 -20 -20
-20 -20 -20 -20 -5 -11 9 25 21 26 23 51 28 27 -7 -14 -18 11 23 -20 -20 -20 -20 -20 -20 -20 -20 -20 -20 -20 -20 -20 -20 -20 -20 -20 -20 -20 -20 -20 -20 -20 -20 -20
-20 -20 -20 -2 -1 12 25 21 19 29 28 36 23 23 -19 -20 -20 -16 -13 -20 -20 -20 -20 -20 -20 -20 -20 -20 -20 -20 -20 -20 -20 -20 -20 -20 -20 -20 -20 -20 -20 -20 -20 -20
-20 -20 -17 8 20 13 33 41 36 40 41 41 28 2 -20 -20 -20 -20 -20 -20 30 -19 -20 -20 -20 -20 -20 -20 -20 -20 -20 -20 -20 -20 -20 -20 -20 -20 -20 -20 -20 -20 -20 -20
-2 5 14 20 22 31 40 37 38 30 24 14 3 4 -20 -20 -20 -20 -20 -20 -20 -20 -20 -20 -20 -20 -20 -6 -20 -20 -20 -20 -20 -20 -20 -20 -20 -20 -20 -20 -20 -20 -20 -20
5 10 6 22 21 -4 8 13 22 39 27 10 10 -13 3 2 1 5 -20 15 2 15 -20 -20 -20 -20 -20 -20 -20 -20 -20 -20 -20 -20 -20 -20 -20 -20 -20 -20 -20 -20 -20 -20
26 19 20 32 47 46 41 31 33 23 13 8 -14 -18 -4 0 -20 -13 -20 15 7 -20 -5 -9 -20 -20 -20 -20 -20 -20 -20 -20 -20 -20 -20 -20 -20 -20 -20 -20 -20 -20 -20 -20
-13 9 32 36 24 8 4 -8 9 -2 -20 -20 -20 -20 -4 -20 -20 -19 15 -11 -4 -3 -20 -20 -20 -20 -20 -20 -20 -20 -20 -20 -20 -20 -20 -20 -20 -20 -20 -20 -20 -20 -20 -20
20 2 -8 -20 3 -20 -20 -20 -20 -20 -20 -20 -20 13 31 -17 -8 7 -19 -17 -20 -20 -20 -20 -20 -20 -20 -15 -5 -14 -20 -20 -20 -20 -20 -20 -20 -20 -20 -20 -20 -20 -20 -20
13 21 22 -20 -10 -20 -20 -20 -20 -20 -20 -20 -20 -16 25 -20 -20 -16 -6 -15 -11 10 -20 -8 -20 -20 -20 -20 -20 -11 -18 -20 -20 -20 -20 -20 -20 -20 -20 -20 -20 -20 -20 -19
-10 -19 -20 -20 -14 8 -15 -20 -20 -20 -0 -17 -4 -14 21 12 -10 -15 -20 21 -18 -19 -20 -20 -20 8 12 9 4 -7 -20 -20 -20 -20 -20 -20 -20 -20 -12 -12 -20 -20 -20 -20
4 -20 -20 5 37 5 -16 -7 -2 -10 -20 -3 2 14 4 10 19 7 16 20 5 18 12 12 13 16 8 -10 -13 -16 -20 -20 -20 -20 -16 -11 -20 -20 -20 -20 -20 -20 -20 -20
-20 -20 -16 -20 1 3 -2 -9 -14 -4 -8 -20 -20 -20 -20 -11 -13 -12 -14 -19 -18 -20 -20 -17 -12 -9 -14 -13 -16 -19 -19 -18 -10 11 -17 -20 -20 -20 -20 -20 -20 -20 -20 -20
-14 -18 -11 6 -18 -17 3 1 -6 6 8 -3 -5 -2 3 -17 -15 -20 -20 -20 -20 -19 -20 -16 -20 -10 -2 -13 -17 8 14 20 2 -20 -20 -20 -20 -20 -20 -20 -20 -20 -20 -20
25 19 25 15 8 8 13 17 9 -18 -20 -11 -3 4 3 7 -7 -20 -20 -18 -17 -19 13 0 -3 7 10 20 21 -4 -17 -20 -20 -20 -20 -20 -20 -20 -20 -20 -20 -20 -20 -20

GFSNW_prec_radar_018.txt.gz
Reflectivity
-20 25 11 -20 17 12 18 20 17 11 -20 24 -6 -4 -20 -20 -4 -20 -20 -20 -20 -20 -20 -20 -20 -20 -20 -20 -20 -20 -20 -20 -20 -20 -20 -8 7 -20 -20 -20 -20 -20 -20 -20
-16 32 -15 -15 1 -4 10 20 10 20 -15 14 -17 -15 1 -19 -1 -20 -20 -20 -20 -20 -20 -20 -20 -20 -20 -20 -20 -20 -20 -20 -20 -20 -20 -20 -20 -20 -20 -20 -20 -20 -20 -20
21 22 -20 -20 6 12 18 20 18 27 14 -20 -20 -13 -13 -19 -20 -20 -20 -20 -20 -20 -20 -20 -20 -20 -20 -20 -12 -20 -5 -20 -20 -20 -20 -20 -20 -20 -20 -20 -20 -20 -20 -20
16 15 -7 -20 5 12 18 19 13 -3 2 -20 -20 -20 -20 -20 -20 -20 -20 -20 -20 -20 -20 -20 -20 -20 -20 -20 -20 -20 -1 -20 -20 -20 -20 -20 -20 -20 -20 -20 -20 -20 -20 -20
3 -20 -20 -20 21 16 22 20 16 11 -20 -17 -20 -20 -20 -20 -20 -20 -20 -20 -20 -20 -20 -20 -20 -20 -20 -20 -20 -20 -20 -20 -20 -20 -20 -20 -20 -20 -20 -20 -20 -20 -20 -20
6 -20 -20 -3 30 31 26 21 -18 15 -20 -15 -16 -20 -20 -20 -20 -20 -20 -20 -20 -20 -20 -20 -20 -20 -16 -20 -20 -20 -20 -20 -20 -20 -20 -20 -20 -20 -20 -20 -20 -20 -20 -20
-20 -20 -20 -19 30 35 20 22 -8 19 -14 -2 -20 -20 -20 -20 -20 -20 -20 -20 -20 -20 -20 -20 -20 -20 -20 -4 -20 -20 -20 -20 -20 -20 -20 -20 -20 -20 -20 -20 -20 -20 -20 -20
-19 -20 -20 13 27 33 16 20 19 21 11 6 -20 -20 -20 -20 -20 -20 -20 -20 -20 -20 -20 -20 -20 16 12 -14 -20 -20 -20 2 -20 -20 -20 -20 -20 -20 -20 -20 -20 -20 -20 -20
-20 -20 -1 10 9 29 -7 18 22 21 22 -20 6 -20 -20 -20 -20 -20 -20 -20 -20 -20 -16 -20 -20 -20 -20 -20 -20 -20 -20 21 22 -20 -20 -20 -20 -20 -20 -20 -20 -20 -20 -20
-20 4 -7 -20 -19 17 -14 30 32 21 4 16 -20 -6 -20 -20 -20 -20 -20 -20 -20 -20 -20 -20 -20 -20 -20 -20 -20 -20 -20 -20 -20 -20 -20 -20 -20 -20 -20 -20 -20 -20 -20 -20
-7 -17 -14 -20 -18 -8 15 19 29 33 40 8 14 -20 -20 -20 -20 -20 -20 19 22 22 5 -20 -20 -20 -20 -20 -20 -20 -20 -20 -20 -20 -20 -20 -20 -20 -20 -20 -20 -20 -20 -20
1 -20 -19 -18 -18 17 11 22 22 22 31 10 19 -20 -20 -20 -20 -20 -20 5 -20 -16 -20 -20 -20 -20 -20 -20 -20 -20 -20 -20 -20 -20 -20 -20 -20 -20 -20 -20 -20 -20 -20 -20
5 16 -11 0 3 20 5 22 17 6 14 19 -2 -19 -20 -20 -20 -20 -13 -16 -20 6 9 21 -20 -18 -20 -20 -20 -20 -20 -20 -20 -20 -20 -20 -20 -20 -20 -20 -20 -20 -20 -20
13 7 14 24 25 18 4 21 34 31 23 21 23 1 -20 -20 -20 4 -20 -14 -20 -12 -1 2 -20 -20 -20 -20 -20 -20 -20 -20 -20 -20 -20 -20 -20 -20 -20 -20 -20 -20 -20 -20
24 21 24 22 22 10 1 24 19 31 21 4 35 0 17 20 -2 30 -20 -19 -20 -12 9 -20 -20 -20 -20 -20 -20 -20 -20 -20 -20 -20 -20 -20 -20 -20 -20 -20 -20 -20 -20 -20
17 23 24 12 -0 7 19 32 8 7 1 36 33 15 21 26 14 33 21 28 -15 -11 -20 -20 -20 -20 -20 -20 -20 -20 -20 -20 -20 -20 -20 -20 -20 -20 -20 -20 -20 -20 -20 -20
25 20 7 10 3 19 34 24 -7 15 16 4 25 43 23 27 9 -14 -20 13 -2 27 20 5 -20 -20 -20 -20 -20 -20 -20 -20 -20 -20 -20 -20 -20 -20 -20 -20 -20 -20 -20 -20
-20 7 18 10 21 31 19 18 19 14 -1 -3 11 35 31 31 27 4 25 26 27 26 10 14 8 -20 -20 -20 -20 -20 -20 -20 -20 -20 -20 -20 -20 -20 -20 -20 -20 -20 -20 -20
15 8 17 24 15 2 18 44 47 42 39 37 16 23 36 23 3 20 11 -19 6 -3 21 20 15 -13 -20 -20 -20 -20 -20 -20 -20 -20 -20 -20 -20 -20 -20 -20 -20 -20 -20 -20
8 29 27 17 29 39 35 38 41 35 31 16 8 22 23 7 1 -13 -20 -20 -20 -20 -20 -11 -20 -20 -20 -20 -20 -20 -20 -20 -20 -20 -20 -20 -20 -20 -20 -20 -20 -20 -20 -20
25 23 25 31 37 41 43 39 13 26 15 9 9 3 -14 -20 -20 -20 -20 -5 -20 -20 -20 -20 -2 -20 -20 -20 -20 -20 -20 -20 -18 -16 -20 -20 -20 -20 -20 -20 -20 -20 -20 -20
12 25 29 40 41 30 19 -0 -5 1 -7 -15 -20 -20 -20 -20 -20 -20 -1 -20 -15 -20 -20 -20 -20 -20 -20 -20 -20 -20 -8 -20 -16 -20 -20 -20 -20 -20 -20 -20 -20 -20 -20 -20
38 25 32 28 8 9 -20 -20 -18 -10 -20 -20 -14 -20 -17 26 21 32 -19 -20 -20 -20 -20 -20 -20 -20 -20 -4 -6 -5 -20 -20 -20 -20 -20 -20 -20 -20 -20 -20 -20 -20 -9 -17
32 24 19 -20 -20 -18 2 -12 -18 -19 -20 -19 -20 -18 13 18 17 31 24 23 -14 6 -18 -20 -20 -19 -20 -20 -20 -17 -5 -2 -6 -13 -20 -20 -20 -20 -20 -20 -20 -20 -20 -20
20 16 14 -15 3 1 2 5 -11 0 10 4 -14 18 -10 20 35 35 18 13 6 -20 -20 -2 6 6 11 6 8 9 13 6 -16 -20 -20 -14 -10 -20 -20 -20 -20 -20 -20 -20
-20 -15 6 9 7 6 8 12 16 11 0 -20 -20 -20 -20 -14 -19 -20 -20 -20 -20 -20 -7 -8 -11 -9 -11 -1 9 15 5 -19 -17 -19 -19 -17 -18 -20 -20 -20 -20 -20 -20 -20
-20 -6 13 5 1 15 18 25 12 -20 -20 -9 -20 -20 -20 -18 -20 -20 -19 -18 -16 -18 -18 -1 14 19 18 15 6 20 -6 -16 -20 -20 -20 -20 -20 -20 -20 -20 -20 -20 -20 -20

GFSNW_prec_radar_021.txt.gz
Reflectivity
-19 36 19 15 21 8 19 10 12 12 -20 21 6 -20 -4 -20 2 -18 -20 -20 -20 -20 -20 -20 -20 -20 -20 -20 -20 -20 -20 -20 -20 -20 -20 -20 -20 -20 -20 -20 -20 -20 -20 -20
3 27 19 22 8 20 6 13 17 15 -20 11 -3 -20 -20 -20 2 -20 -20 -20 -20 -20 -20 -20 -20 -20 -20 -20 -20 -20 -20 -20 -20 -20 -20 -20 -20 -20 -20 -20 -20 -20 -20 -20
-2 13 35 3 2 20 11 15 13 23 21 -20 -19 -20 -20 -20 -4 -20 -20 -20 -20 -20 -20 -20 -20 -20 -20 -20 -20 -20 -20 -20 -20 -20 -20 -20 -20 -20 -20 -20 -20 -20 -20 -20
6 -5 21 14 -15 9 22 3 2 13 7 0 -10 -20 -20 -20 4 -10 -20 -20 -20 -20 -20 -20 -20 -20 -20 -20 -20 -20 -20 -20 -20 -20 -20 -20 -20 -20 -20 -20 -20 -20 -20 -20
13 12 -14 -20 -11 12 29 19 15 9 -20 -7 -2 -1 -20 -20 4 1 -20 -20 -20 -20 -20 -20 -20 -20 -20 -20 -20 -20 -20 -20 -20 -20 -20 -20 -20 -20 -20 -20 -20 -20 -20 -20
13 8 15 5 15 23 35 13 -17 10 -20 -17 -7 -20 -20 -15 13 -10 -20 -20 -20 -20 -20 -20 -20 -20 -20 -20 -17 -20 -20 -20 -20 -20 -20 -20 -20 -20 -20 -20 -20 -20 -20 -20
13 18 -14 14 17 -6 27 19 -14 15 -8 -19 -20 -20 -20 -19 6 7 -20 -20 -20 -20 -20 -20 -20 -20 -20 -20 -20 -20 -20 -20 -20 -20 -20 -20 -20 -20 -20 -20 -20 -20 -20 -20
9 7 9 -19 -17 -17 13 8 11 28 15 -20 -7 -20 -20 -20 -19 -19 -20 -20 -20 -20 -20 -20 -20 -20 -20 -20 -20 -20 -20 -20 -20 -20 -20 -20 -20 -20 -20 -20 -20 -20 -20 -20
6 -20 -20 -20 -8 -20 19 19 11 29 28 -10 -8 -20 -20 -20 -20 -20 -20 -20 -5 -20 -20 -20 -20 -20 -20 -20 -20 -20 -20 -20 -20 -20 -20 -20 -20 -20 -20 -20 -20 -20 -20 -20
-5 -20 -20 -20 -0 -18 23 30 23 27 29 -1 10 4 -20 -20 -20 -20 -20 -20 1 -20 -2 -20 -11 -20 -20 -20 -20 -20 -20 -20 -20 -20 -20 -20 -20 -20 -20 -20 -20 -20 -20 -20
-15 -20 -20 -19 6 -4 30 23 25 6 7 5 8 20 -20 -20 -20 -20 -20 -19 -20 -20 -20 -4 -20 -20 -20 -20 -20 -20 -20 -20 -20 -20 -20 -20 -20 -20 -20 -20 -20 -20 -20 -20
8 8 -11 -15 14 15 28 12 28 18 27 -7 -20 -12 -20 -20 -20 -20 -20 -20 -20 -20 8 0 -20 -20 -20 -20 -20 -20 -20 -20 -20 -20 -20 -20 -20 -20 -20 -20 -20 -20 -20 -20
4 18 22 19 20 20 11 13 17 18 29 -15 -20 -20 -13 -20 -20 -20 -20 -20 -20 -20 -19 13 -1 -20 -20 -20 -20 -20 -20 -20 -20 -20 -20 -20 -20 -20 -20 -20 -20 -20 -20 -20
-20 -20 11 2 -20 -8 11 21 28 17 14 17 -19 15 26 -20 -20 -20 -20 -20 -20 -17 -17 15 11 -19 -20 -20 -20 -20 -20 -20 -20 -20 -20 -20 -20 -20 -20 -20 -20 -20 -20 -20
-14 7 -20 -19 -20 11 9 16 30 25 17 18 14 31 17 12 -20 -20 -20 -16 -20 13 29 20 5 -20 -20 -20 -20 -20 -20 -20 -20 -20 -20 -20 -20 -20 -20 -20 -20 -20 -20 -20
-20 -20 -20 -20 -10 19 24 28 18 33 30 43 36 31 -9 -20 -20 -20 -20 -20 -3 -20 18 -19 -19 -19 -12 -9 -20 -20 -20 -20 -20 -20 -20 -20 -20 -20 -20 -20 -20 -20 -20 -20
-20 -16 -11 24 15 -5 27 11 -11 15 32 23 -5 -14 -20 22 3 23 -10 1 -20 -10 16 -13 -20 -20 -20 -20 -20 -20 -20 -20 -20 -20 -20 -20 -20 -20 -20 -20 -20 -20 -20 -20
26 19 34 24 -20 -8 -7 -3 19 -3 16 23 -11 5 42 24 19 21 1 -8 37 15 -10 -17 -20 -20 -20 -20 -20 -20 -20 -20 -20 -20 -20 -20 -20 -20 -20 -20 -20 -20 -20 -20
19 18 1 14 10 23 29 35 39 31 21 14 9 -4 28 15 25 -1 -5 36 40 16 8 8 1 26 4 -20 -20 -20 -20 -20 -20 -20 -20 -20 -20 -20 -20 -20 -20 -20 -20 -20
19 11 21 33 20 17 29 33 26 25 24 13 3 5 1 39 17 23 37 40 26 30 26 -0 -9 10 8 -20 -20 -20 -20 -4 -20 -19 -19 -20 -20 -20 -20 -20 -20 -20 -20 -20
32 28 20 25 28 28 24 38 22 14 35 22 37 37 5 19 21 22 18 23 30 9 -3 -7 -17 -10 -20 -20 -4 -2 -20 -5 -12 -20 -20 -12 -20 -20 -20 -20 -20 -20 -20 -20
5 36 19 32 32 37 36 32 38 34 26 20 14 22 22 19 36 38 27 12 -3 -20 -20 -20 -20 -20 -20 -20 -20 -20 -20 -20 -20 -20 -20 -20 -20 -20 -18 -20 -20 -20 -19 -20
37 33 32 36 35 28 23 20 15 1 -2 -5 8 12 -1 3 4 22 11 -19 -20 -20 -20 -20 -20 -20 -19 -20 -20 -20 -20 -18 -20 8 32 13 -20 -20 -20 -20 -20 -9 -19 -20
39 39 26 23 12 7 12 11 -1 1 10 7 -20 -19 -20 -2 10 5 1 -19 -20 -20 -20 -20 -20 -20 -20 -20 -20 -18 -13 5 8 10 -7 -20 -11 -20 -18 -4 -17 -20 -20 -20
21 32 9 -3 12 11 11 -2 -9 -9 -10 -20 -20 -20 -20 -17 -4 20 32 17 11 -14 -20 -20 -20 -20 -16 -10 -4 19 21 18 8 12 9 4 7 16 14 2 -20 -20 -20 -20
2 -6 3 4 -15 10 -7 -13 -11 3 9 -11 17 29 16 20 13 -2 -1 -11 -15 -17 -15 -13 -15 -3 17 20 9 4 13 11 8 8 6 9 6 -1 -17 -20 -20 -20 -20 -20
-20 -1 14 -14 -14 1 11 12 21 11 1 -20 -20 -7 12 4 -16 -20 -17 -4 -9 8 1 12 0 7 4 15 16 13 13 11 9 5 -5 -6 -14 -19 -20 -20 -20 -20 -20 -20

GFSNW_prec_radar_024.txt.gz
Reflectivity
17 6 -20 -18 19 34 13 24 -3 -10 12 11 4 -2 -20 -20 -11 12 3 -20 -20 -20 -20 -20 -20 -20 -20 -20 -20 -20 -20 -20 -20 -20 -20 -20 -20 -20 -20 -20 -20 -20 -20 -20
21 17 -20 -20 4 37 1 27 5 29 -20 4 -7 -3 -2 -20 4 18 -18 -20 -20 -19 -20 -20 -20 -20 -20 -20 -20 -20 -20 -20 -20 -20 -20 -20 -20 -20 -20 -20 -20 -20 -20 -20
27 20 -20 -3 4 36 11 30 14 24 17 -20 -20 -11 -9 -20 -1 5 -5 -20 -20 -20 -20 -20 -20 -20 -20 -20 -20 -20 -20 -20 -20 -20 -20 -20 -20 -20 -20 -20 -20 -20 -20 -20
22 30 -7 6 23 25 -8 30 20 12 14 -15 -20 -20 -20 -20 -7 1 -17 -20 -20 -20 -20 -20 -20 -20 -20 -20 -20 -20 -20 -20 -20 -20 -20 -20 -20 -20 -20 -20 -20 -20 -20 -20
23 32 12 23 27 31 8 30 3 13 -20 -20 -1 4 -3 -20 -10 7 -16 -20 -20 -20 -20 -20 -20 -20 -20 -20 -20 -20 -20 -20 -20 -20 -20 -20 -20 -20 -20 -20 -20 -20 -20 -20
25 30 22 9 30 20 6 27 -16 1 -20 -20 -2 -20 -20 -18 12 2 -18 -20 -13 -20 -20 -20 -20 -20 -20 -20 -20 -20 -20 -20 -20 -20 -16 -20 -20 -20 -20 -20 -20 -20 -20 -20
27 33 21 32 24 25 6 -4 -11 3 7 -0 -20 -20 -6 -8 14 8 -20 -3 -14 -20 -20 -18 -20 -20 -20 -20 -20 -20 -20 -20 -20 -20 -20 -20 -20 -20 -20 -20 -20 -20 -20 -20
28 32 14 9 13 -18 -20 -20 -8 26 15 -16 -2 -18 -20 -20 14 16 13 10 -4 -17 0 15 -20 -20 -20 -20 -20 -20 -20 -20 -20 -20 -20 -20 -20 -20 -20 -20 -20 -20 -20 -20
32 28 12 -18 24 8 -20 -20 -20 30 29 -18 3 -12 -20 -20 -1 11 4 12 9 10 20 -1 -20 -17 -20 -20 -20 -20 -20 -20 -20 -20 -20 -20 -20 -20 -20 -20 -20 -20 -20 -20
32 20 10 8 -11 -7 -20 -20 -16 26 30 18 -1 -2 -20 -20 -20 -6 -7 7 9 7 -20 -20 -20 -20 9 -20 -20 -20 -20 -20 -20 -20 -20 -20 -20 -20 -20 -20 -20 -20 -20 -20
23 8 8 4 9 15 -12 -20 -13 26 31 19 24 10 -20 -20 -20 -20 -20 -1 -1 -19 -20 -20 -20 -20 -20 -20 -20 -20 -20 -20 -20 -20 -20 -20 -20 -20 -20 -20 -20 -20 -20 -20
7 8 5 -8 12 17 -13 -20 11 19 32 8 31 17 -20 -20 -20 -20 -20 -20 -20 -20 -20 -20 -20 9 -13 -20 -20 -20 -20 -20 -20 -20 -20 -20 -20 -20 -20 -20 -20 -20 -20 -20
13 10 15 14 -5 16 -17 -19 8 29 37 10 18 13 -12 -20 -20 -20 -20 -20 -20 -20 -20 -20 -20 2 -20 -20 -20 -20 -20 -20 -20 -20 -20 -20 -20 -20 -20 -20 -20 -20 -20 -20
10 15 15 -1 16 19 -20 -18 23 30 17 28 14 20 -2 -6 -20 -20 -20 -20 -20 -20 -4 3 1 -20 -17 -20 -6 -5 -20 -20 -20 -20 -20 -20 -20 -20 -20 -20 -20 -20 -20 -20
-13 -16 -18 -19 -16 5 18 -11 25 34 15 22 -15 -20 -20 -11 6 -20 3 -20 -20 -20 6 -12 -20 -18 19 -20 -20 12 -20 -20 -20 -20 -20 -20 -20 -20 -20 -20 -20 -20 -20 -20
16 -3 -13 20 22 20 27 11 11 12 20 10 -16 -20 -20 17 14 19 -20 -20 -20 -20 -15 -20 -20 10 16 -20 -20 -20 -8 -17 -20 -20 -20 -20 -20 -20 -20 -20 -20 -20 -20 -20
3 16 21 19 14 2 18 8 27 9 3 20 23 -18 -20 -20 -4 22 9 -20 -6 -20 -15 -2 -20 12 7 -20 -20 -4 6 -20 4 -20 -20 -20 -20 -20 -20 -20 -20 -20 -20 -20
-15 -10 -20 -2 -4 13 19 -6 1 20 7 14 20 13 -20 -14 21 16 -20 -20 -20 -20 -20 -20 12 -20 -4 -20 -20 -20 -20 -13 1 -20 -20 -20 -20 -20 -20 -20 -20 -20 -20 -20
-20 -20 7 14 23 -17 -11 -11 6 -1 9 8 -20 -5 -20 26 21 16 20 6 -7 -20 5 -6 9 -20 -20 -20 -20 -20 -20 3 -19 -20 -20 -20 -20 -20 -20 -20 -20 -20 -20 -20
20 24 32 31 15 -8 11 28 37 35 29 33 29 14 -12 -16 22 43 15 3 18 16 -20 16 -20 -20 -20 -20 -20 -20 -6 -8 -20 -17 -20 -20 -20 -20 -20 -20 -20 -20 -20 -20
37 15 -14 -15 15 5 11 42 33 34 33 25 10 -4 10 17 27 23 39 1 -20 -20 -18 -15 33 23 -20 -6 5 15 28 16 -4 10 17 9 -14 -20 -20 -20 -20 -20 -20 -20
-7 24 15 -2 17 29 24 -10 26 26 3 10 -1 -10 15 24 15 -8 42 24 -17 -20 -19 7 28 31 25 21 20 -12 15 11 -6 -16 -20 -13 -20 -20 -20 -20 -20 -20 -20 -18
23 22 9 31 16 11 -17 19 15 12 -20 -0 13 4 37 29 9 14 37 32 24 28 31 25 12 -1 9 12 15 14 -2 -16 -20 -20 -20 -20 -20 -18 5 17 20 16 12 4
20 9 -5 22 21 20 15 -3 -3 2 -11 -4 -17 -20 -8 26 12 17 6 18 18 6 -2 -14 -7 -20 -19 -19 -20 -20 -20 -20 -20 -19 -3 17 11 14 20 20 10 7 11 9
26 32 24 21 23 24 22 22 23 2 4 21 26 26 -18 -17 23 18 4 -4 -15 4 11 10 3 -20 -16 -10 10 1 1 18 25 21 19 16 16 15 15 15 12 7 3 -3
22 20 18 6 5 4 7 7 5 6 7 3 -7 1 -5 -20 -20 -20 -3 14 8 10 2 1 10 16 3 8 17 20 20 18 11 -0 -0 -6 -1 3 -3 -14 -19 -14 -10 -9
12 19 9 3 -1 8 17 14 15 20 12 10 10 9 1 7 -19 -20 -16 5 14 14 12 10 17 19 20 20 15 10 -4 -3 1 -1 6 6 -0 1 -1 -14 -20 -20 -20 -20

GFSNW_prec_radar_027.txt.gz
Reflectivity
13 15 25 20 -20 -20 22 36 -3 -20 -20 24 25 1 -20 -20 -20 -20 -20 -20 -20 -19 9 -4 -20 -20 -20 -20 -20 -20 -20 -20 -20 -20 -20 -20 -20 -20 -20 -20 -20 -20 -20 -20
20 23 24 23 -20 1 20 38 2 -14 -20 23 8 -13 -20 -20 -20 -20 -20 -20 -14 -18 13 6 11 -19 -20 -20 -20 -20 -20 -20 -20 -20 -20 -20 -20 -20 -20 -20 -20 -20 -20 -20
35 24 26 27 11 8 25 32 15 27 9 -9 -16 -6 4 -8 -20 -20 -20 -20 -8 -20 -20 -19 -0 -20 -20 -20 -20 -20 -20 -20 -20 -20 -20 -20 -20 -20 -20 -20 -20 -20 -20 -20
35 29 26 31 28 21 21 31 18 -0 4 0 -20 -20 -20 -20 -20 -20 -20 -20 -17 -20 -20 -14 13 -13 -20 -20 -20 -20 -20 -20 -20 -20 -20 -20 -20 -20 -20 -20 -20 -20 -20 -20
28 38 28 35 30 13 25 35 -20 9 -20 -20 2 -20 4 -20 -20 -20 -20 -20 -6 -13 -20 -18 8 -19 -20 -20 -20 -20 -20 -20 -20 -20 -20 -20 -20 -20 -20 -20 -20 -20 -20 -20
13 26 34 35 30 25 30 15 -20 -20 -20 -17 -15 -20 6 9 -20 -20 -20 -6 18 -1 -20 7 8 -20 -20 -20 -20 -20 -20 -20 -20 -20 -20 -20 -20 -20 -20 -20 -20 -20 -20 -20
6 12 39 32 33 25 3 14 -15 -15 11 1 -20 -16 5 -20 -20 -20 -20 -9 25 13 9 15 7 -20 -20 -20 -20 -20 -20 -20 -20 -20 -20 -20 -20 -20 -20 -20 -20 -20 -20 -20
-2 18 40 31 27 6 2 -12 -18 -4 22 -20 -9 -9 -7 10 -20 -20 4 13 21 15 9 11 11 0 -20 -20 -20 -20 -20 -20 -20 -20 -20 -20 -20 -20 -20 -20 -20 -20 -20 -20
1 15 36 33 15 13 -16 -20 -19 -9 18 13 -20 -15 -6 -16 6 -16 1 10 22 21 -1 -11 -20 12 -11 -20 -20 -20 -20 -20 -20 -20 -20 -20 -20 -20 -20 -20 -20 -20 -20 -20
-20 21 19 32 10 10 -1 -20 -20 -20 5 25 -7 3 5 -11 -20 -20 -15 1 19 15 -10 -20 -20 -20 -20 -19 -20 -20 -20 -20 -20 -20 -20 -20 -20 -20 -20 -20 -20 -20 -20 -20
18 19 37 12 5 18 4 4 -20 -20 12 5 16 2 0 -14 -20 -20 -16 7 9 3 -13 -20 -20 -20 -0 -2 -11 -20 -20 -20 -20 -20 -20 -20 -20 -20 -20 -20 -20 -20 -20 -20
20 35 24 16 9 16 -8 -5 -20 -20 -11 35 28 2 -20 -20 -20 -20 -19 7 17 4 -17 -20 -20 -20 -17 9 -20 -20 -20 -20 -20 -20 -20 -20 -20 -20 -20 -20 -20 -20 -20 -20
20 31 22 26 19 26 1 -20 -19 -20 1 12 22 6 -17 -20 -20 -20 -20 -13 0 -13 -20 -20 -20 -20 -20 -20 -20 -20 -20 -20 -20 -20 -20 -20 -20 -20 -20 -20 -20 -20 -20 -20
31 24 13 19 27 32 27 12 14 -20 7 26 -18 28 -0 -7 -20 -20 -20 -20 -18 -20 -20 -20 -20 -20 -13 -20 -20 -20 -5 -20 -20 -20 -20 -20 -20 -20 -20 -20 -20 -20 -20 -20
24 24 28 34 31 31 20 -14 4 -19 11 30 7 21 15 8 12 -20 -20 -20 -20 -20 -20 -20 -20 -20 -20 -20 -20 -20 -20 -20 -20 -20 -20 -20 -20 -20 -20 -20 -20 -20 -20 -20
23 12 20 18 11 18 -18 13 -20 -20 16 26 31 -15 -20 -7 17 25 -2 -20 -20 -20 -20 -20 -20 -20 -20 -20 -20 -20 -11 -6 -20 -3 -12 -20 -20 -20 -20 -20 -20 -20 -20 -20
16 -7 -20 -20 1 -11 -4 11 -20 12 28 33 23 15 25 -20 -8 -6 25 -4 -11 -20 -20 -20 -20 -20 -20 -20 -20 -20 -20 -20 -20 0 4 -20 -20 -20 -20 -20 -20 -20 -20 -20
-20 -20 -20 -20 -20 -3 32 16 10 26 36 28 -16 -6 1 -7 12 10 19 24 2 -15 -20 -20 -20 -20 -20 -20 -20 -20 -20 -20 -20 -20 -9 -20 -20 -20 -20 -20 -20 -20 -20 -20
-20 6 13 22 26 27 16 17 10 15 -2 9 -13 29 -10 -18 24 18 26 23 13 -15 -20 -20 -20 -20 -20 -20 -20 -20 -19 1 -10 4 -8 4 2 -5 -20 -20 -20 -20 -20 -20
16 24 26 9 -9 16 5 23 29 28 -18 -20 -4 -20 8 -20 10 22 20 -20 -20 10 12 6 -20 -20 -20 -20 -20 -20 -20 -19 -16 -5 9 -10 -20 -20 -20 -20 -20 -20 -20 -20
7 9 -8 -20 19 14 -3 -17 -19 -13 -17 -16 -16 6 34 -17 -20 10 -16 24 13 9 -2 -13 -13 -20 -20 -20 -20 -20 -20 -20 -2 10 -10 -17 7 -20 -20 -20 -19 -20 -20 -20
24 5 -11 2 13 -7 15 19 17 16 -7 -20 -15 -20 -13 -15 -15 -13 -20 3 17 17 -20 -19 -19 -20 -20 -20 -20 -20 -20 -17 -20 6 18 28 26 22 15 -10 -13 4 10 16
27 12 -19 -20 -11 3 -6 13 24 21 22 2 -4 -15 -7 4 13 8 11 11 7 21 -3 -13 -20 -20 -20 -20 -20 -11 28 36 22 17 11 -12 10 -12 -16 -8 -11 -12 12 19
9 6 11 17 7 3 7 23 25 17 15 18 19 -12 -18 21 31 25 -4 11 19 27 21 7 4 24 17 16 22 20 18 9 8 4 -1 2 -7 -13 10 18 21 22 20 18
20 33 26 25 24 25 24 26 22 27 25 23 -8 -20 -5 32 30 23 13 14 15 7 11 16 22 32 24 11 -1 14 9 -2 -8 -6 3 15 16 17 20 21 20 21 19 18
19 23 22 25 27 24 20 3 4 9 12 10 21 30 9 -5 -7 15 9 -3 -19 -5 14 16 24 25 25 21 21 22 20 22 21 18 19 17 14 9 9 10 10 11 11 9
16 14 17 15 11 7 9 5 10 7 -7 -18 -19 -19 -20 -19 -20 -20 -18 5 17 18 18 18 21 21 23 21 18 16 17 17 16 13 12 8 5 2 0 -3 -4 -7 -12 -20

GFSNW_prec_radar_030.txt.gz
Reflectivity
25 14 9 16 11 27 23 7 14 19 17 10 10 8 -19 -20 -20 -20 -20 -20 -20 -20 -20 -20 -20 -20 6 11 -7 -20 -20 -20 -20 -20 -20 -20 -8 -9 -20 -20 -20 -20 -20 -20
20 34 15 16 22 29 23 9 17 21 15 10 17 -20 -20 -20 -20 -20 17 -20 -20 -20 -20 -20 -20 -20 -3 4 -13 -20 -20 -20 -20 -20 -20 -20 -20 -20 -20 -20 -20 -20 -20 -20
-3 36 18 13 33 28 26 16 20 30 23 -20 10 -20 -20 -19 -20 -20 -20 -20 -20 -20 -1 -16 -10 -20 -2 -3 -8 -20 -20 -20 -20 -20 -20 -20 -20 -20 -20 -20 -20 -20 -20 -20
-20 -5 32 20 37 35 29 27 27 16 15 9 -20 -20 -20 -20 -18 -20 -20 -20 -20 -20 13 -7 -0 -8 -7 -6 3 -20 -20 -20 -20 -20 -20 -20 -20 -20 -20 -20 -20 -20 -20 -20
-20 -9 30 42 37 38 34 29 20 18 -2 -20 -20 -20 -20 -20 -20 -20 -20 -20 -20 -20 -20 13 4 8 -10 -1 1 -20 -20 -20 -20 -20 -20 -20 -20 -20 -20 -20 -20 -20 -20 -20
8 13 7 38 36 39 39 14 -16 18 3 5 -14 -9 -20 -20 -20 -20 -20 -20 -6 -19 -8 30 17 15 2 -13 2 -20 -20 -20 -20 -20 -20 -20 -20 -20 -20 -20 -20 -20 -20 -20
10 19 -16 37 37 40 26 -10 -0 21 10 13 -20 -20 -10 -20 -20 -20 -20 -20 -13 3 12 26 14 17 -5 -20 -6 -20 -20 -20 -20 -20 -20 -20 -20 -20 -20 -20 -20 -20 -20 -20
18 16 4 31 37 36 -0 5 -3 15 13 -2 -20 -14 -16 -20 -20 -20 -20 -20 -20 3 15 9 0 23 12 -20 -7 -20 -20 -20 -20 -20 -20 -20 -20 -20 -20 -20 -20 -20 -20 -20
16 12 -20 32 33 30 3 2 -20 2 5 11 17 -6 -3 14 12 11 -19 -13 -16 6 21 -13 -15 -3 2 21 -10 -20 -20 -20 -20 -20 -20 -20 -20 -20 -20 -20 -20 -20 -20 -20
11 -4 2 42 36 31 -4 9 -20 -13 14 23 23 10 27 -7 -8 2 1 -4 6 -13 17 -15 -20 -7 14 1 -16 -20 -20 -20 -20 -20 -20 -20 -20 -20 -20 -20 -20 -20 -20 -20
11 -20 -9 35 23 34 -6 -18 -1 -11 15 25 -20 16 27 14 -8 15 -6 8 -0 -8 0 -17 -20 -18 -16 -13 -6 -20 -20 -20 -20 -20 -20 -20 -20 -20 -20 -20 -20 -20 -20 -20
12 -20 16 23 34 35 15 8 -2 -20 19 9 -20 5 11 19 -16 -20 18 -20 -20 -20 -13 -20 -20 -6 -0 -15 -13 7 -3 -18 -20 -20 -20 -20 -20 -20 -20 -20 -20 -20 -20 -20
-20 -9 11 25 36 33 8 18 10 21 -14 -14 3 17 15 7 -20 -20 -20 -20 -20 -20 -20 -16 1 -8 -18 2 -12 -20 -20 8 -18 -20 -20 -20 -20 -20 -20 -20 -20 -20 -20 -20
-16 17 10 32 36 26 19 -14 -10 -10 -20 -20 -7 36 -2 -20 -20 -20 -20 -20 -20 -20 -20 -20 -20 -19 -20 -3 1 -7 -14 9 -18 -20 -20 -20 -16 -20 -20 -20 -20 -20 -20 -20
20 23 28 36 28 19 -9 -20 -10 -20 8 -9 -15 7 -17 -11 -20 -1 -20 -20 -2 13 -20 -9 -20 -20 -20 -19 -0 -17 -20 -20 -20 -20 -20 -14 -20 -20 -20 -20 -20 -20 -20 -20
32 28 32 34 26 5 -20 27 14 -20 -20 -3 30 20 29 23 -4 -20 -20 -20 -19 -18 3 13 -20 -20 -20 -20 -20 -20 -20 -18 -20 -20 -20 -20 -20 -20 -20 -20 -20 -20 -20 -20
21 27 30 20 6 -9 19 6 -20 -20 -20 -19 17 29 8 36 21 1 18 -0 -20 -14 -15 7 -20 -2 -20 -20 -20 -20 -20 -20 -20 -20 -20 -20 -20 -20 -20 -20 -20 -20 -20 -20
18 19 17 2 3 2 10 22 -20 -20 -20 -12 27 29 8 22 45 34 13 20 18 5 16 -20 -3 -19 -20 -20 -20 -20 -20 -18 -20 -20 -20 -20 -20 -20 -20 -20 -20 -20 -20 -20
-18 3 11 8 8 -0 0 -11 5 -20 -10 29 23 35 18 4 14 25 32 38 22 -2 -12 7 16 -14 10 -3 -20 -20 -20 -20 -20 -20 2 -15 -20 -20 -20 -20 -20 -20 -20 -20
-20 -20 -19 3 12 24 23 14 6 9 28 21 14 14 1 14 14 5 14 26 38 30 -7 -20 -10 11 -20 -20 -20 -20 -20 -20 -20 -20 -20 -20 13 6 -20 -20 -20 -20 -20 -20
-20 5 8 6 28 35 23 -1 26 29 6 -17 -20 -20 -9 -17 -12 -14 -5 41 23 14 -2 -17 -5 14 -1 -20 -20 -20 -20 -20 -20 -20 -20 -20 -20 -20 -20 -20 -20 -20 -20 -14
16 22 0 34 18 -20 -10 -8 9 -1 7 18 -19 -17 6 16 -4 -18 -20 -14 9 1 -19 1 -4 -2 -20 -20 -20 -20 -19 2 -18 -20 -20 -20 -20 -20 -20 -20 -20 -11 16 20
16 24 22 7 -13 -6 -3 0 -9 -3 -14 17 21 19 -0 -7 -7 -15 -13 -17 -20 -11 8 13 13 21 -8 -11 -20 -20 -20 -20 -19 -14 3 14 -4 21 26 -0 6 20 13 16
4 10 -5 20 8 16 -6 -18 -1 -16 -18 16 -5 -20 4 24 25 16 30 22 21 22 8 12 7 13 23 24 21 3 5 20 22 20 -17 -2 14 19 22 25 27 25 25 21
5 -6 6 18 26 21 18 15 22 9 11 -18 -1 23 18 25 28 20 23 18 -2 1 3 7 7 21 23 20 25 27 28 24 19 15 17 18 21 20 13 13 15 14 15 16
17 14 -2 7 21 22 24 24 16 24 14 31 32 32 -11 -6 -7 14 6 7 -9 1 6 9 18 14 10 18 22 22 22 22 21 21 21 18 13 9 11 13 14 16 15 14
22 20 24 22 20 22 25 26 27 26 26 3 4 -20 -20 -19 -20 -20 -4 -1 4 10 13 17 16 14 16 18 15 12 12 12 13 11 11 13 14 11 6 4 10 8 8 8

GFSNW_prec_radar_033.txt.gz
Reflectivity
20 19 15 13 13 13 27 24 27 11 -18 25 17 8 -1 -20 -20 -20 -20 6 -20 -20 -17 4 -20 -20 -20 -20 -4 -1 1 -14 -18 -20 -20 -20 -8 -9 -20 -20 -13 -20 -20 -12
17 -1 18 18 17 20 27 28 15 23 -9 15 11 -20 -20 -20 -20 -20 -20 -20 22 3 -19 -2 -17 -20 -18 -20 -2 -18 1 -6 -20 -20 -20 -20 -20 -20 -20 -20 0 -9 23 -20
12 22 22 22 29 25 26 32 25 23 24 9 5 -14 -20 -20 -20 -20 -20 -20 -9 8 24 -8 2 -3 -1 -20 -2 11 2 -20 -20 -20 -20 -20 -20 -20 -20 -20 13 -20 -5 -20
-1 7 -19 16 24 32 28 39 34 21 23 14 -16 -20 -20 -20 -20 -20 -20 -20 -17 -15 5 -13 -2 -7 16 -20 -20 -20 -20 -20 -20 -7 -20 -20 -20 -20 -20 -20 -20 -20 -20 -20
-14 -19 -20 -18 25 36 34 41 30 18 -20 4 4 5 -20 -20 -20 -20 -20 -20 -20 21 26 10 20 10 -7 8 -19 -20 -20 -20 -20 -8 -20 -20 -20 -20 -20 -20 -20 -20 -20 -20
11 11 9 -20 32 41 44 38 23 11 -18 6 18 -2 -20 -20 -20 -20 -20 -20 -20 -20 28 27 -6 31 -15 26 -13 -20 -20 -20 -7 -12 -20 -20 -20 -20 -20 -20 -20 -20 -20 -20
12 11 9 -3 7 35 40 34 11 16 2 20 -13 -20 -20 -20 -20 -20 -20 -14 -14 -20 3 9 -13 11 17 5 -20 -17 -20 -20 -0 4 -19 7 -20 -20 -20 -20 -20 -20 -20 -20
12 14 16 9 -18 36 35 26 16 19 18 -16 1 -14 -20 -20 -20 -4 -15 -20 -19 -13 -15 -12 -20 13 28 29 15 8 -20 1 -3 18 -20 -20 -20 -20 -20 -20 -20 -20 -20 -20
16 13 19 16 7 28 33 20 22 15 17 17 -20 2 -20 -20 -20 13 -10 10 8 8 -8 -7 -20 -20 12 7 28 -17 -11 -5 20 1 -20 -20 -20 -20 -20 -20 -20 -20 -20 -20
18 11 32 -5 -20 35 26 36 20 8 13 19 22 23 -3 -20 -14 5 -9 29 30 -18 17 9 -20 -20 -6 15 22 29 -6 -12 -20 23 -3 -20 -20 -20 -20 -20 -20 -20 -20 -20
15 28 24 -20 -20 16 35 32 18 1 20 19 26 -3 -12 -20 15 19 1 25 22 21 20 -18 -20 -20 -11 9 -9 31 14 -6 -19 18 12 -20 -19 -20 -20 -20 -20 -20 -20 -20
16 26 8 -18 -3 29 39 21 4 -2 29 36 13 -3 -9 8 -18 -20 -20 -18 -11 -20 -20 -20 -20 4 -20 -6 -15 -4 20 28 25 -18 -20 -15 -11 -20 -20 -20 -20 -20 -20 -20
9 10 -16 -19 19 34 36 9 6 -1 20 21 -5 -20 -15 9 -15 8 27 -6 5 -18 -20 -20 -20 -19 -8 12 8 -20 3 19 -2 -12 -20 -20 -20 -20 -20 -20 -20 -20 -20 -20
-11 4 -10 9 27 32 24 12 -5 6 16 21 23 -20 -20 9 -10 -20 -19 -7 -15 15 -20 13 -20 -19 -20 -19 -20 -11 -14 -1 1 -20 -20 -20 -20 -20 -20 -20 -20 -20 -20 -20
-7 5 29 34 33 31 9 7 22 27 13 1 7 -20 -20 -13 -14 -20 2 -7 24 -3 2 -11 -18 -20 -20 -7 -20 -16 -16 -17 -17 -20 4 14 -19 15 -3 -20 -20 -20 -20 -20
12 26 26 30 20 24 21 35 27 -2 14 17 0 -20 -20 -20 -20 -20 2 17 15 -20 -15 16 -13 -20 -20 -20 -20 -20 -20 4 12 -4 11 -2 -20 -20 -20 -20 -20 -20 -20 -20
23 22 20 15 7 17 26 4 -8 -20 -20 -12 -20 -4 -8 -18 -10 -19 19 -13 -20 26 16 15 -12 -20 -20 -20 -20 -3 3 7 5 -12 -15 1 -9 14 -17 -20 -20 -20 -20 -20
17 18 20 28 30 1 15 -20 -20 -20 -20 -20 -3 21 30 16 11 16 19 19 15 0 12 -5 7 -8 17 1 -11 8 14 -9 -14 -20 -20 -16 -12 -20 -12 -20 -12 -20 -20 -20
10 10 15 -4 -6 5 17 -20 -20 4 6 7 15 21 34 33 30 17 -0 24 19 -11 9 13 10 15 22 15 6 -3 -6 -20 -4 -19 -20 -20 -20 -19 -20 -20 -20 -20 -20 -20
23 24 23 16 7 -20 -20 7 15 -20 -2 6 13 32 40 34 30 26 27 11 16 12 -0 -19 13 11 13 -19 -19 -3 -8 -20 -20 -20 -20 -20 -20 -20 -3 -20 6 -20 -19 -20
-9 14 17 7 -20 4 7 -8 12 -12 13 12 17 31 40 33 39 23 35 32 24 24 8 15 10 7 -6 -6 -18 -20 -20 -20 -20 -20 -20 -20 -20 -20 -20 -20 -20 -16 -15 -20
7 16 -7 -0 35 35 14 11 9 -3 -11 24 19 2 -1 16 16 32 25 37 23 32 15 29 23 14 1 -1 -17 -20 -20 -20 -20 -20 -20 -20 -20 -20 -20 -20 -20 -20 -14 -1
22 32 21 27 -10 7 -14 -14 -15 -3 8 -13 5 -16 17 0 -18 -9 -6 14 29 34 5 6 11 1 -3 2 -0 -20 -20 -20 -20 -20 -20 -20 -20 -20 -20 -20 -20 -19 -3 12
-7 7 -12 12 12 0 1 2 3 -2 -3 -20 -17 -20 -19 -2 -3 12 5 17 6 3 5 8 6 5 6 0 1 -13 -11 -9 -6 -4 1 7 15 15 17 22 24 24 23 24
-17 -19 -1 -2 5 5 2 2 7 -9 -13 25 26 -3 21 16 26 8 18 10 3 3 7 7 12 8 6 3 8 12 17 17 20 24 27 27 25 21 20 19 18 20 20 19
-11 5 11 8 -1 9 -5 -15 -4 -15 3 22 18 31 19 4 5 7 7 -8 2 7 9 9 10 8 11 11 11 13 15 13 14 19 20 21 21 21 18 16 16 17 16 16
18 17 15 14 -1 6 8 4 0 11 19 11 26 18 2 -14 -18 -2 6 17 18 13 9 9 11 10 11 13 10 12 9 0 4 6 5 8 11 11 7 -3 8 4 8 5

GFSNW_prec_radar_036.txt.gz
Reflectivity
8 8 12 13 16 17 20 19 28 -3 19 15 16 15 -20 -20 -20 -20 -20 -20 -20 -20 -20 -10 25 -20 -20 -20 -20 -20 -20 -20 -20 -20 5 3 -19 -20 -20 -20 3 -14 -20 -20
12 -12 -15 7 20 26 25 27 25 19 -18 12 8 -6 -20 -20 -20 -20 -20 -20 -20 -20 -20 10 21 17 -20 -14 3 -20 -20 -20 -20 -20 3 4 -19 -19 -5 -20 -4 -18 -20 -20
16 9 21 18 17 27 33 31 28 22 25 -11 -1 0 -20 -20 -20 -20 -20 -20 -20 -20 -20 9 18 4 5 13 -10 -20 7 -16 -20 -20 -20 9 8 -11 -18 -15 -11 -13 -20 -20
2 -20 -20 13 17 28 32 38 30 18 23 13 -20 -8 -20 -20 -20 -20 -20 -20 -20 -20 -20 -19 -19 11 29 28 -19 -20 15 9 -20 -20 -20 -18 0 -20 -20 -20 16 11 -20 13
19 -20 -20 13 34 21 30 37 31 11 -20 10 5 -3 -17 -20 -20 -20 -20 -20 -20 -20 -20 15 22 38 38 15 7 -20 9 -20 -20 -20 -17 -20 -20 7 -9 -20 -20 -3 -2 -20
2 9 -20 -18 -18 31 40 39 33 13 -19 14 14 1 -20 -20 -20 -20 -20 -20 -20 -20 -20 2 -2 12 23 26 17 12 -20 -20 -3 -12 -20 -20 -19 -20 -20 -20 -20 -20 -20 -20
2 -3 -20 -20 -20 12 37 39 29 33 26 11 -13 -20 -20 -20 -20 -20 -20 -20 -20 -20 -20 -2 -5 -8 28 34 0 4 -20 -20 -20 15 -20 -20 -20 -20 -18 -20 -20 -20 -20 -20
16 2 1 17 12 10 13 40 35 25 27 8 5 -20 -20 -20 -16 -18 -20 -20 -20 -20 -20 16 15 10 31 16 36 8 -18 -20 7 9 -20 -20 -20 -19 -8 -20 -20 -20 -20 -20
15 21 16 11 14 16 21 24 29 28 26 12 -20 -20 -20 11 7 6 -20 -20 -7 15 -20 28 36 26 4 2 14 30 29 -16 20 8 -16 -20 -20 -5 -1 -20 -20 -20 -13 -20
14 16 31 29 19 17 22 -12 34 31 31 -11 2 9 -7 -1 -8 -5 -20 -20 -13 21 -20 -11 23 -19 -19 -13 1 24 30 -14 17 7 -4 -18 -20 10 -8 8 -11 -20 -9 -20
11 26 32 31 23 21 19 -13 37 35 30 17 13 -16 -20 15 1 -2 -20 6 -20 19 16 11 23 -20 -20 -20 -17 -0 24 35 17 20 8 -20 1 9 -1 -20 -13 7 -20 5
14 16 15 19 28 19 -2 23 37 23 14 33 -16 -10 7 11 -12 -17 -13 -18 33 9 19 0 15 -20 -20 -20 -20 -20 -1 9 27 -16 0 -20 17 13 -5 -17 -20 -20 -20 -20
19 16 16 24 32 4 -10 21 23 24 29 -7 -9 -5 20 21 -17 -20 23 -14 2 -3 37 20 -11 -17 -19 -10 -20 -20 -6 23 -17 12 -18 29 16 13 -20 -3 -20 -20 -20 -20
11 27 13 32 7 -20 14 20 18 32 14 35 28 -2 24 -11 -20 -18 -11 -20 -20 -13 4 16 -14 14 -20 -20 -20 -13 1 25 21 1 -16 2 16 21 16 -5 -20 -20 -20 -20
29 28 6 -14 3 11 14 24 37 16 8 -2 9 6 -17 -20 -20 8 -1 -20 21 35 -9 16 20 -20 -20 -20 -20 -20 2 -2 -10 -6 19 21 24 29 11 -19 -20 -20 -20 -20
-19 9 6 -6 -14 22 20 38 32 23 3 18 18 -20 -20 -20 -20 -20 -20 31 32 29 38 28 -5 -20 -20 -20 -20 -20 -3 5 -16 5 17 17 -4 3 8 -20 -1 16 -6 -20
14 6 19 20 33 35 6 14 -7 -2 -6 16 3 13 12 -20 -20 -20 -7 10 27 24 27 4 -17 -14 -20 -20 -20 -19 4 -8 -13 -2 -8 -0 -18 -13 -18 -20 4 24 -19 -20
30 30 27 24 -8 -9 -1 -20 -6 -20 8 -18 -11 -10 -15 -13 -6 12 -2 -10 7 -3 25 8 -2 -4 -12 15 -5 4 0 -2 -17 -20 -20 -20 -18 -4 1 -15 -20 -20 -14 -18
20 25 26 26 28 29 -14 -20 -20 13 18 -8 -20 -19 19 9 23 11 23 18 23 15 8 18 22 16 15 3 -20 -14 -15 -19 -20 -20 -20 -20 -20 -20 -19 3 -16 -10 -17 7
22 4 -1 26 -2 -1 -20 -18 -20 7 14 6 -20 7 17 31 10 13 16 -7 20 -19 -16 -19 14 -9 -20 -20 -6 -2 -20 -20 -20 -20 -20 -20 -20 -20 -20 -20 -20 -20 -20 -20
12 16 15 17 -20 -8 8 -11 -14 -18 -7 -14 13 22 23 13 28 8 -16 -2 14 -18 17 12 1 -4 -20 -20 -3 0 -18 6 -18 -20 -20 -20 -20 -20 -20 -20 -20 -20 -20 -20
-12 -16 -20 -10 -20 -20 -20 -19 -20 -17 16 22 27 26 37 38 41 7 16 30 -15 20 8 17 20 11 2 -5 -3 -20 -20 -20 -20 -20 -20 -20 -20 -11 -20 -20 -20 -20 -20 -20
-11 -1 -14 27 13 10 12 -15 -7 15 10 12 21 36 40 35 20 31 14 14 28 28 19 4 10 2 3 4 -14 -20 -20 -20 -20 -20 -20 -20 -20 -20 -20 -20 -20 -19 -17 -8
29 30 10 6 2 4 11 -13 -3 4 12 16 27 33 26 33 33 28 30 28 36 23 10 9 8 8 9 10 5 -14 2 -2 -4 -1 -2 -7 -1 0 -3 -7 -2 10 18 19
-20 -20 1 -2 7 5 1 -0 2 -4 9 -3 1 18 6 6 19 4 8 1 13 7 7 7 10 7 6 4 4 3 -1 1 10 17 18 18 20 20 21 20 19 21 24 23
-20 -20 -3 -8 -0 -4 -20 -19 -2 -18 -1 26 32 28 6 -3 6 -17 -11 -20 2 8 8 6 8 3 6 8 6 7 4 2 5 10 13 16 16 15 17 16 17 18 17 18
10 12 6 8 2 7 7 4 -13 -10 -7 4 5 -7 4 -4 -14 1 7 2 8 4 11 7 9 10 10 9 7 9 9 9 12 13 14 14 14 12 10 6 12 8 6 3

GFSNW_prec_radar_039.txt.gz
Reflectivity
8 4 9 -4 12 18 30 35 30 10 -20 25 5 -15 -20 -20 -20 -20 -20 -20 -20 -20 -20 -20 -20 -20 -19 -20 -20 -20 -20 -20 -20 -20 -20 -20 -20 -20 -20 -20 -20 -20 -13 4
10 8 7 3 14 18 32 36 30 4 5 -0 -20 -17 -20 -20 -20 -20 -20 -20 -20 -20 -20 -20 -20 -20 -6 -8 -6 -2 -17 -20 -20 -20 -20 -20 -20 -20 -20 -20 -20 -20 -20 -20
4 -7 -1 12 12 16 30 35 32 31 27 -11 -20 -20 -20 -12 -20 -20 -20 -20 -20 -20 -20 -20 -20 -20 -18 10 -16 -20 8 10 -20 -20 -20 -20 -20 -20 -20 -20 -20 -20 -20 -20
5 10 9 1 12 15 27 38 29 7 30 12 -14 -20 -20 -20 -20 -20 -20 -20 -20 -20 -20 -20 -20 -20 -20 13 8 -20 12 25 -6 -20 -20 -20 -1 -20 -20 -20 -20 -20 -20 -20
-2 19 28 20 8 26 30 36 32 5 -20 6 5 4 -20 -20 -20 -20 -20 -20 -20 -20 -20 -20 -20 -20 -20 -11 29 9 9 18 -12 -20 -20 -20 -20 -20 -20 -20 -20 -20 -20 -20
11 16 19 19 -10 18 38 39 29 -7 -8 -15 9 -18 -20 -20 -20 -20 -20 -20 -20 -20 -20 -20 -20 -20 -20 -13 8 35 21 -15 -20 -13 -13 -19 1 -20 -20 -20 -20 -20 -20 -20
-5 -20 -17 10 1 16 29 34 30 29 30 0 -6 -15 -20 -20 -20 -20 -20 -20 -20 -20 -20 -20 -13 -20 -20 -18 4 23 39 28 -20 -20 -6 17 17 1 -20 -20 -20 -20 -20 -20
13 7 -20 -20 -20 0 25 41 32 31 30 16 -13 -20 -20 -20 -20 -20 -20 -20 -20 -20 -20 -20 -20 -10 -20 -3 13 11 19 41 16 3 -13 16 -19 -20 -20 -20 -20 -20 -20 -20
16 12 18 13 -20 -20 17 32 35 35 30 34 -16 -20 -20 -20 -20 -20 -20 -20 -20 -20 -20 -20 -9 -19 -20 -19 -9 1 19 42 24 0 9 -20 -20 -20 -20 -20 -20 -20 -20 -20
9 -2 10 15 15 -9 18 13 11 28 41 33 7 -16 -20 -18 -2 1 -20 -20 -20 -20 -20 -20 -20 -2 -20 -15 -3 -1 6 10 24 7 14 -20 -20 -20 -16 -13 -19 -20 3 -20
13 14 17 14 11 17 21 15 -4 10 28 22 0 -0 2 -17 7 -18 -20 -10 -1 1 -20 -20 -2 6 -20 1 7 1 -9 16 25 40 -1 -20 -5 -20 8 5 -8 1 -8 -20
5 16 22 19 14 25 23 32 15 -17 19 28 20 6 -20 -20 -20 -20 -20 -20 -10 -12 -20 -20 -20 -18 -20 -15 0 -14 -20 0 19 20 25 18 -4 -7 -10 3 4 -11 -16 -20
7 -10 10 11 12 28 30 30 5 -2 -2 34 19 6 -3 -1 -20 -20 9 -20 -8 12 -20 17 19 -15 -20 -20 -20 -12 -20 -11 16 -2 -15 1 11 -8 -13 -11 7 20 28 19
11 19 17 11 24 35 34 14 -20 14 17 37 34 28 -20 -20 -20 -20 -19 11 18 -15 -20 -20 4 -7 -15 -20 -20 -20 -20 5 12 -6 12 22 -20 -20 -18 17 2 -20 -20 23
5 -2 21 27 29 30 13 6 -20 24 25 29 21 -5 -20 -19 -2 -12 25 13 -6 24 -20 -10 -19 -20 -20 -20 -12 -20 -20 -6 -12 3 17 16 -19 4 31 7 22 -15 -13 13
10 13 29 25 32 21 23 19 25 32 -20 21 38 9 13 -17 -18 23 -20 19 5 29 -20 -5 -8 -14 -4 26 -20 27 -20 2 -16 -10 -6 -20 11 17 13 14 25 29 28 29
21 28 21 25 7 0 32 24 -3 25 30 23 -20 3 -8 -20 -20 -20 10 16 -9 25 0 2 -20 10 25 2 -20 -20 -20 -20 -20 -17 -20 -20 -4 -12 -11 5 7 -6 -7 -20
6 -17 35 39 31 34 9 28 32 28 17 -20 -20 -20 -20 -20 -20 -10 -20 -20 10 22 30 28 18 15 22 15 -18 -20 -20 -20 -20 -20 -20 -20 -20 -18 10 4 4 -20 -20 -20
27 21 12 22 22 7 11 17 26 11 -16 -20 -20 -20 -20 -20 17 3 10 16 1 20 33 36 22 23 24 24 -9 -20 -20 -20 -20 -20 -20 -20 -20 -20 -20 -20 -20 -20 -20 -20
24 23 24 31 24 5 5 18 7 -20 -20 -20 -20 -20 -4 -20 -20 15 -19 -20 -14 15 16 22 18 24 13 4 4 -1 -20 -20 -20 -20 -20 -20 -20 -20 -20 -20 -20 -20 -20 -20
16 1 11 -20 -20 -20 -20 -20 -20 -20 -20 -20 -20 -20 8 -1 23 -4 -20 -16 16 -20 -3 -20 -20 -4 6 1 2 7 -14 1 22 26 -5 -20 -0 -20 -20 -20 -20 -20 -20 -20
-7 -18 -20 -20 -20 -20 -20 -20 -20 -20 -20 -20 -6 6 4 26 29 -5 -19 -1 -20 -2 4 -20 -7 7 5 -20 1 -10 -18 -3 -20 -20 -20 -20 -20 -20 -20 -20 -20 -14 -20 -20
-20 -20 -10 5 -9 -0 -20 -20 -20 -3 12 15 21 30 30 17 24 0 -14 -20 -11 -17 -15 3 6 4 3 -0 -3 -7 -14 -14 -16 -13 -11 -20 -20 -20 -20 -20 -16 -18 -15 -1
-20 -20 -18 -20 -20 -19 -19 -19 -17 10 6 -0 12 28 27 13 10 15 -20 8 26 2 17 7 1 1 3 2 0 -2 -4 3 5 12 11 10 7 3 3 6 7 0 9 15
-20 -20 -20 -20 8 -7 -11 -10 1 4 7 6 20 30 40 28 25 4 9 23 24 11 -4 8 9 10 5 13 17 19 16 9 7 9 6 7 2 -5 3 9 8 6 11 14
-20 -20 -20 -20 -20 -20 -19 -20 -15 -3 -5 10 36 21 26 24 21 10 14 15 20 22 20 18 15 16 18 17 11 3 -0 -5 -4 -8 -14 -12 -15 -2 11 10 11 12 9 9
-20 -20 -20 -20 -20 -20 -8 -19 -19 -14 -20 6 -2 6 4 17 7 3 17 6 5 1 7 7 9 9 9 2 -15 -16 -18 -20 -19 -20 -20 -19 -20 -20 -20 -20 -20 -19 -17 -14

GFSNW_prec_radar_042.txt.gz
Reflectivity
12 0 10 -5 4 -1 31 36 34 1 -6 20 5 -20 -20 -20 -20 -20 -20 -20 -20 -20 -19 -4 -20 -20 -20 -20 -20 -20 -20 -20 -20 -20 -20 -20 -20 -20 -20 -20 -20 -20 -20 -20
9 6 10 22 18 25 31 37 33 25 -20 -20 -15 -20 -20 -20 -20 -20 -20 -20 -20 -20 -20 6 -18 -20 -18 9 -2 -6 -15 -20 -20 -20 -20 -20 -20 -20 -20 -20 -20 -20 -20 -12
10 11 13 16 27 29 31 37 29 30 12 -20 -20 -13 -20 -18 -13 -20 -20 -20 -20 -20 -20 -20 -20 -11 -20 14 8 -1 -8 9 -20 -20 -20 -20 -20 -20 -20 -20 -20 -20 -20 -20
15 16 22 21 19 31 35 39 24 3 24 -4 -20 -20 -20 -20 -16 -15 -20 -20 -20 -20 -20 -20 -20 -20 -20 -17 7 -9 5 22 -14 -20 -20 -20 -20 -20 -20 -20 -20 -20 -20 -20
15 11 11 15 21 29 37 36 23 2 -17 4 3 -20 -20 -20 -20 -20 -20 -20 -20 -20 -20 -20 -20 -20 -20 -20 -20 25 13 -3 24 -20 -20 -20 -20 -20 -20 -20 -20 -20 -20 -20
13 14 13 13 17 29 39 32 17 -6 5 -3 3 -17 -20 -20 -20 -20 -20 -20 -20 -20 -20 -20 -20 -20 -20 -20 -7 11 10 6 9 -12 -20 -19 -16 -20 -20 -20 -20 -20 -20 -20
19 19 17 20 20 24 33 30 24 29 14 14 -1 -20 -20 -20 -16 -20 -20 -20 -20 -20 -20 -20 -20 -20 -20 -20 -20 -20 -20 -10 31 22 -20 7 13 -20 -20 -20 -20 -12 -20 -20
-20 -20 -20 -20 -7 29 32 28 29 21 22 16 -20 -20 -20 -20 -20 -20 -20 -20 -20 -20 -20 -20 -20 -20 -20 -20 -20 -20 -20 -4 11 12 14 24 -20 -20 -20 -20 -20 -20 -20 -20
5 -3 -19 -20 -20 -5 24 28 17 31 32 18 -20 -20 -20 -20 -20 -20 -20 -20 -8 13 -20 3 -20 -20 -20 -20 -20 -18 -20 2 5 14 11 27 3 -20 -20 -18 -20 -20 -20 11
16 16 18 13 -2 -16 15 25 28 27 35 24 -20 -20 -20 -20 -20 -20 -20 -20 -19 1 -7 -19 -20 -6 -20 -12 -20 -7 7 -3 -7 13 17 -9 29 6 -20 11 8 1 8 10
-5 22 22 2 16 -2 24 11 29 20 31 14 21 -20 -20 -20 -20 -20 -20 -18 -20 -8 2 9 -20 -20 -20 -20 -20 -20 -20 -15 -12 12 12 -14 21 24 4 -1 -20 11 12 2
10 -2 -0 16 14 20 24 26 13 17 27 22 16 -20 -20 -20 -20 -20 -20 -20 -20 -19 -18 -8 -20 -9 -19 -20 -20 -20 -20 -20 -4 13 8 0 -7 29 -19 -20 -20 -4 -20 -20
-20 13 7 15 8 15 22 28 21 21 29 26 1 -0 -20 -20 -4 -13 -19 -20 -6 9 12 12 -7 -20 -20 -20 -20 -20 -20 -19 -20 2 9 -9 -20 10 9 7 -12 -20 -20 -20
-19 4 12 18 16 15 29 33 19 8 -2 2 -20 -20 -20 3 -6 19 -20 -20 -16 -20 -0 -10 15 -20 -20 -20 -20 -20 -1 -13 -20 -11 1 -15 -18 -1 31 6 -20 -20 -15 -20
4 18 16 15 29 33 36 25 15 -20 -20 -20 -16 -20 -20 -17 -10 -14 22 -1 -4 27 22 -5 -19 -20 3 -20 -20 -20 -20 -14 20 -15 0 -4 -20 -3 18 2 -20 -20 -20 -20
14 17 12 18 16 37 36 34 20 3 15 32 26 31 23 13 11 19 10 -8 -5 -19 24 33 -9 -20 -20 -20 -20 -20 27 23 -11 -20 -20 -20 -20 -12 -19 -11 -11 -20 -20 -19
13 16 -18 17 24 18 28 20 -5 -15 9 36 22 10 18 24 19 19 -8 24 32 29 2 39 17 19 -18 -20 -20 -13 20 23 -12 -20 -20 -9 -4 -20 -20 -20 -20 -20 -2 24
12 19 24 27 20 7 -0 -19 16 35 42 24 -0 24 25 -20 -20 20 36 27 20 -6 -9 29 18 12 10 -17 27 26 -0 -6 -20 -20 -20 -14 -2 -20 -20 -20 -20 -20 -1 4
32 28 25 21 34 36 17 21 36 21 -7 -20 -20 -16 -1 -20 -20 -20 -14 -10 -20 3 2 0 29 -3 12 25 3 -15 -20 -6 -1 -20 -20 -20 -18 -20 -20 -20 -20 -20 -20 -20
32 36 29 32 37 34 22 28 19 12 -8 -20 -20 -20 -20 -20 -20 -20 -18 -11 18 -20 1 13 18 27 6 4 5 16 -6 5 4 -19 -20 -20 -20 -20 -20 -20 -20 -20 -20 -20
-20 -9 19 30 15 1 -11 3 -18 -20 -20 -20 -20 -20 -20 -20 -20 -20 -20 -20 -20 -4 2 6 28 24 19 -11 -7 18 20 9 13 2 3 27 23 -5 1 21 11 -20 -20 -20
-11 -20 -20 -20 -20 -20 -20 -20 -20 -20 -20 -20 -20 -20 -20 -20 -20 3 2 -20 -20 -20 -20 -20 -17 5 -4 -15 -5 -15 0 -2 -3 -19 -15 5 9 11 -3 -20 -20 -20 -20 -20
-20 -20 -20 -20 -20 -20 -20 -20 -20 -20 -5 -7 7 -4 -20 -19 28 4 -14 4 -20 -2 -20 -2 4 2 -19 -3 -11 0 -13 -15 -16 -13 -11 -14 0 -4 -17 -12 -5 -14 -14 2
-20 -20 -20 -20 -20 -20 -18 -20 -20 -0 -0 10 14 12 12 9 26 10 -20 11 -13 -20 -20 -17 -1 -2 -2 -2 -2 -17 -1 7 8 9 8 6 9 14 16 16 15 12 11 17
-20 -20 -20 -20 -6 -16 -20 -18 -12 -14 -11 5 1 22 30 3 21 -5 -20 12 -3 -20 -18 -7 -1 3 -9 -0 6 8 13 16 16 16 13 15 16 13 10 12 11 9 10 9
-20 -20 -20 -20 -20 -20 -20 0 13 5 -10 10 24 16 5 1 -12 -20 -20 -20 -18 -15 -6 5 10 15 18 18 19 21 20 19 19 19 16 13 9 -5 -1 -15 -20 -19 -20 -20
-20 -20 -19 -20 -20 -20 3 -19 -14 4 10 23 18 24 14 -1 0 -20 -7 11 24 16 10 10 9 11 16 17 15 13 4 6 6 2 -11 -20 -20 -20 -20 -20 -20 -20 -20 -20

GFSNW_prec_radar_045.txt.gz
Reflectivity
-20 -20 14 18 17 18 20 33 33 13 -19 30 18 -20 -20 -20 -20 -20 -20 -20 -20 -20 -17 -20 -20 -20 -20 -20 -20 -20 -20 -20 -20 -20 -20 -20 -20 -20 -20 -20 -20 -20 -20 -20
-1 -17 -15 2 18 13 20 38 28 22 -12 13 -16 -13 -20 -20 -20 -20 -20 -20 -20 -20 -20 -20 -20 -18 1 -20 -20 -20 -10 -18 -20 -20 -20 -20 -20 -20 -20 -20 -20 -20 -20 -20
-10 -18 -6 19 16 20 29 38 21 31 27 -1 -20 -3 -19 -12 -20 -20 -20 -20 -20 -20 -20 -20 -20 -20 -1 -20 -20 -11 -20 -10 -5 9 -20 -20 -20 -20 -20 -20 -20 -20 -20 -20
-4 -20 16 12 16 25 34 38 18 5 21 23 -13 -16 -9 -20 -12 -20 -20 -20 -20 -20 -20 -20 -20 -20 -18 5 -4 4 -20 -20 -20 -20 -7 -20 -20 -20 -20 -20 -20 -20 -20 -20
-20 13 11 12 19 30 38 30 15 9 18 5 5 -13 -20 -20 -20 -7 -20 -20 -20 -20 -20 -20 -20 -20 -20 -20 1 -20 12 -5 -6 -20 -19 -3 -20 -20 -20 -20 -20 -20 -20 -20
12 12 13 15 25 34 38 27 1 4 14 12 0 -19 -4 -14 -20 -20 -20 -20 -20 -20 -20 -20 -20 -20 -20 -20 -12 -20 -10 -10 -4 3 -20 -7 -20 -20 -20 -20 -20 -20 -20 -20
14 15 13 18 31 35 31 18 12 6 -2 -13 6 -3 -20 -20 -19 -20 -20 -20 -20 -20 -20 -20 -20 -4 9 -12 -13 -8 -20 -20 -19 -19 -17 4 -0 -20 -20 -20 -20 -16 -20 -18
14 16 16 21 29 33 31 25 15 11 -1 13 8 10 -4 -16 -20 -20 -20 -20 -20 -7 -20 -20 -20 -20 -20 -20 -20 -1 -20 -20 -20 -20 -20 -10 3 -19 1 -5 -20 -20 8 -4
19 19 22 27 27 30 33 31 25 22 17 13 8 25 7 0 -20 -20 -20 -20 -15 -20 -20 5 -9 -20 -20 -20 12 4 -18 -20 -20 -12 -20 -20 -20 -20 13 11 -9 -20 -20 -9
-20 -20 -20 2 4 21 31 34 32 21 14 13 12 20 8 12 -19 -20 -20 -14 6 -16 -20 2 -7 -19 -19 -20 -12 -18 -7 -13 -16 -3 -20 -20 -20 0 -1 -17 -5 -20 -20 -20
-9 2 14 3 -1 12 17 23 26 29 31 19 22 6 17 -18 -5 -20 -20 5 12 3 -2 10 -9 -20 -20 -20 -20 -20 -20 -15 -20 -13 -4 -20 -17 0 -13 -0 16 -20 -20 -20
11 5 15 16 18 16 21 14 13 27 29 14 -20 -19 -20 -20 -17 -9 -18 -20 -9 5 -20 -20 -20 -20 -20 -20 -20 -20 -20 -20 -20 -20 -20 -20 -1 7 -10 14 26 -18 -20 -20
1 -18 2 -11 20 22 27 25 18 13 23 12 -20 -20 -20 -10 20 12 -16 -20 -19 -10 -17 -20 -20 -20 -20 -20 -20 -20 -20 -20 -20 -20 -20 -20 1 6 4 7 5 22 5 -20
6 12 4 -15 17 19 24 34 22 -10 7 13 -13 -20 -10 -14 -20 -4 -20 -20 -8 -20 -1 -20 -20 -20 -20 -20 -20 -20 -20 -20 -20 -20 -20 -16 2 -2 10 6 12 33 4 -15
-10 5 18 17 14 17 22 18 24 3 -13 -20 -20 -20 -20 -14 -20 -18 -1 7 -20 -13 15 -3 -20 -20 -20 9 4 -20 -20 -16 -9 -20 -20 -18 -17 4 7 8 -20 13 23 -11
12 -10 -13 18 15 19 31 39 30 9 -9 8 -20 -20 -20 -20 -20 -20 10 -12 25 -13 17 -20 -20 -20 16 14 20 11 -20 -20 -20 -6 -20 -19 -5 -5 -8 5 -20 -3 -12 -17
17 20 19 11 19 22 25 15 11 4 3 28 1 -5 5 -20 -15 -14 -15 -2 26 14 19 6 -20 -20 23 13 21 13 -16 -20 -20 -20 -17 13 -5 17 -20 -5 -5 -15 -16 -17
17 37 36 19 28 25 28 8 -20 -18 15 25 32 9 1 6 27 4 17 12 23 27 -10 2 -4 14 30 15 4 -20 -20 -20 -20 -20 -20 -6 17 19 -20 -5 -20 -20 -20 -20
22 20 17 20 32 35 16 -7 -1 5 21 27 26 3 11 41 22 16 8 -10 4 -8 33 28 28 28 35 7 -2 -19 -11 -3 -20 -20 -15 -20 -19 7 -16 -20 -20 -20 -20 -20
26 12 26 30 18 2 24 30 35 38 32 29 10 -19 -19 -20 -5 -16 -6 23 35 26 19 7 -10 6 7 13 -2 -7 -2 33 19 -20 -5 11 -17 -20 -3 -20 -20 -20 -20 -20
29 32 35 24 19 11 37 28 27 28 17 4 -12 -11 -20 -20 -20 -20 -11 9 -10 -17 14 -20 -15 -20 -0 -14 -20 -20 -7 -5 1 13 6 -7 -20 -20 -15 -1 0 5 2 12
17 24 12 21 6 -11 -16 -20 -20 -20 -20 -10 -20 -20 -20 -20 -20 -20 -20 16 -20 -19 15 -20 -20 5 -14 17 7 6 19 24 24 20 18 20 3 -13 12 14 7 2 13 11
-20 -20 -20 -20 -20 -20 -20 -20 -20 -20 -17 -17 -20 -20 -20 -12 -20 -20 -20 -20 -19 -20 5 -7 -1 -7 -20 -5 -18 1 4 -4 9 7 3 -2 -10 -7 -6 -3 0 0 5 10
-20 -20 -20 -20 -20 -20 -15 -17 -17 -16 -17 -13 -12 -19 -7 20 27 27 11 12 -20 -20 -20 -19 -14 -3 0 -5 -5 -20 -5 6 1 -8 0 -8 -15 1 4 7 14 13 13 17
-20 -20 -20 -20 -14 -17 -18 -18 -20 -19 -11 14 16 19 -4 0 23 -19 -20 -18 -20 -20 -20 -20 -5 -1 -13 -13 -20 -20 -19 -14 -2 8 2 5 11 13 14 15 14 12 9 9
-20 -20 -20 -20 -20 -18 -19 -19 -20 -16 6 5 3 -16 -20 -19 7 -20 -20 -20 -20 -20 -20 -17 -18 -16 -7 -9 -9 0 10 17 21 19 16 18 19 18 16 14 9 -0 -10 -16
-20 -20 -20 -20 -20 -20 -12 5 8 10 11 9 7 -19 -19 -19 -20 -11 -20 -20 -19 -17 -12 2 5 3 -1 10 14 17 19 18 12 7 -1 -3 -12 -20 -20 -20 -20 -20 -20 -20

GFSNW_prec_radar_048.txt.gz
Reflectivity
7 6 8 -20 -20 -20 20 19 20 7 -8 21 30 9 -20 -20 -20 -20 -20 -20 -20 -20 -20 -20 -20 -20 -20 -20 -20 -20 -20 -20 -20 -20 -20 -20 -20 -20 -20 -20 -20 -20 -20 -20
10 -20 11 -12 -20 5 17 25 7 5 21 18 -1 5 -19 -20 -20 -20 -20 -20 -20 -20 -20 -20 -20 -0 -20 -20 -20 -19 -20 -20 -20 -20 -20 -20 -20 -20 -20 -20 -20 -20 -20 -20
9 -7 9 -14 -20 -7 19 29 13 13 29 22 -8 -4 -3 -20 -20 -20 -20 -20 -20 -20 -20 -20 -20 -20 -20 -15 -17 -20 -20 -20 -20 -20 -20 -20 -20 -20 -20 -20 -20 -20 -20 -20
4 5 -10 -15 -20 -3 23 34 15 22 12 23 22 -1 -5 -20 -20 -20 -20 -20 -20 -20 -20 -20 -20 -17 -0 -20 -20 -20 -20 -20 -20 -20 -20 -20 -20 -20 -20 -20 -20 -20 -20 -20
-20 -10 14 -20 -20 15 28 26 20 12 16 4 2 26 -14 -10 -4 -20 -5 -20 -20 -20 -20 -20 -20 -20 -20 -20 -20 -20 -20 -20 -20 -20 -20 -20 -20 -20 -20 -20 -20 -20 -20 -20
-20 -1 -15 -20 -1 7 32 24 17 17 -1 10 3 8 0 -5 9 -15 -20 -19 -13 -20 -19 -20 -20 -20 -20 -20 -20 -20 -20 -20 -20 -20 -20 -20 -20 -20 -20 -20 -20 -20 -20 -20
-20 -10 -20 -20 -15 18 24 29 16 28 14 -14 11 14 -9 0 2 2 12 13 -5 12 -20 -20 -20 -20 -20 -20 -20 -20 -20 -20 -20 -20 -20 -12 -20 -20 -9 -20 -20 -20 -20 -20
-20 -5 10 10 16 17 28 30 13 13 12 -4 10 11 27 5 9 7 7 -18 15 -8 -12 -15 -20 -20 -20 -20 -20 -20 -20 -20 -20 -20 -13 -20 -20 -20 -20 -19 -20 -20 -20 -20
11 10 10 15 16 19 28 29 22 26 29 7 -20 23 17 -5 -12 2 -13 8 13 -17 -20 7 1 -20 -20 -20 -3 -20 -20 -20 -18 -20 -20 -20 -20 -20 -20 -20 -20 -20 -20 -20
15 13 16 14 5 23 29 31 23 32 32 5 -11 13 24 18 -18 -10 -7 17 9 -20 -16 9 3 -19 -20 -14 -17 2 4 0 1 -2 5 -20 -20 -20 -20 -20 -20 -20 -20 -20
14 16 21 28 29 30 30 32 31 30 34 22 24 -1 20 26 22 10 -16 17 20 31 15 2 -10 -19 -20 -20 -18 -11 3 -19 -13 6 -9 -20 -20 -20 -20 -20 -20 -20 -20 -20
7 16 21 20 20 21 26 29 27 31 30 22 -9 13 -10 -17 -16 9 13 -12 -20 -2 -20 -18 -20 -20 -20 -20 -20 -20 -2 -20 -20 -20 -20 -20 -20 -20 -20 -20 -20 -20 -20 -20
18 14 13 18 3 14 22 21 1 30 37 32 28 25 5 -1 7 7 6 -18 -12 -1 -20 -20 -20 -20 -20 -20 -20 -20 -20 -20 -20 -20 -20 -20 -20 -20 -20 -20 -20 -20 -20 -20
-3 13 4 11 6 0 24 13 2 3 27 15 20 -14 -20 -14 -20 -20 -20 -19 8 6 18 -4 -20 -20 -20 -20 -20 -20 -20 -20 -20 -20 -20 -20 -20 -20 -20 -20 -3 -17 -2 -7
21 18 21 19 -0 18 22 31 17 -20 -11 -14 -20 -20 -20 -19 -15 -20 -20 -17 -18 12 15 34 -10 -20 -8 -20 -20 -20 -20 -20 -20 -20 -20 -20 -20 -20 -20 -20 -18 -14 -11 5
-20 -20 15 19 22 23 35 42 30 3 -20 25 3 -20 -20 -20 -20 -20 1 14 9 14 28 10 -20 -20 -12 -20 -20 -20 -20 -20 -20 -20 -20 -20 -20 -20 -20 -20 9 14 22 19
12 -20 -18 18 21 17 23 20 7 22 12 22 -4 -20 -20 -20 -20 14 -4 13 24 29 21 1 -20 -20 17 12 -20 -20 -20 -2 -6 -15 -16 -16 -20 -20 -20 -20 18 8 14 -7
17 -5 20 21 22 33 33 17 -16 -16 17 22 -9 8 7 0 4 -2 -0 -20 3 -5 32 37 -1 14 24 -3 -16 -20 -20 -17 23 28 10 13 -20 -20 -20 -20 3 -8 -15 -20
15 21 23 34 33 33 20 10 17 -16 -2 -17 -18 2 17 1 8 14 22 17 -16 -20 -14 -8 2 -20 -20 -7 -20 -20 -20 -12 -9 -20 -16 6 -20 -20 -20 -20 -17 -20 -20 6
34 27 35 37 9 12 11 20 27 27 4 -3 -20 -11 27 -2 35 27 19 -10 -1 18 31 25 8 10 -19 -20 -18 14 9 -4 -17 -20 -15 -13 -20 -20 -20 -20 -14 -20 -20 -20
30 16 29 25 28 26 27 9 0 10 -2 7 25 29 26 21 27 4 -20 -20 -20 -14 20 3 17 15 -4 -15 -20 -18 -20 -20 -20 -8 17 13 -10 -19 -17 3 5 -19 -17 -16
-8 21 19 8 17 19 20 10 19 8 -10 23 22 18 28 18 28 22 -7 -20 -20 -13 -3 3 -20 -6 -20 -20 -20 -6 5 -18 -19 -13 -8 7 -3 12 4 -9 -0 5 4 -14
-3 -18 10 13 4 -15 -6 -18 -20 -17 -18 -4 -20 -8 -5 -12 -19 -20 -19 -20 -16 -20 -17 4 -16 -17 -20 -20 -15 -2 -0 20 18 9 -3 9 11 -9 -10 5 5 2 -4 12
-13 -20 -20 -20 -20 -20 -19 -20 -20 -20 -19 -20 -10 3 -20 10 -20 -20 7 -8 -20 -20 -20 -20 -16 -18 -3 -5 -5 -20 -16 -19 -10 6 7 3 6 3 -6 -0 8 5 -4 5
-20 -20 -20 -20 -5 -16 -10 -8 -16 -16 -16 -12 -18 -20 -20 -20 12 -14 -20 -20 -20 -20 -20 -20 -14 -20 -11 -16 -5 3 -16 -7 -12 -15 -18 -16 -14 -15 -3 8 9 2 -3 1
-20 -20 -20 -20 -20 -20 -19 -20 -20 -8 6 6 0 -20 -20 -17 14 -14 -20 -20 -20 -20 -20 -20 -20 -19 -16 -12 -7 -13 -1 3 8 9 9 8 13 14 15 14 13 11 11 11
-20 -20 -20 -20 -20 -20 -20 -20 -20 -20 -2 -16 -19 -14 -20 -19 -20 -20 -20 -20 -20 -20 -7 -3 -14 -17 -14 -10 1 12 16 14 10 11 12 14 12 7 -6 -19 -20 -19 -19 -20

GFSNW_prec_radar_051.txt.gz
Reflectivity
16 10 15 -20 -20 -20 17 16 8 -5 15 11 16 15 19 -20 -20 -20 -20 -20 -20 -20 -20 -20 -20 -20 -20 -20 -20 -20 -20 -20 -20 -20 -15 -20 -20 -20 -20 -20 -20 -20 -20 -20
21 15 21 -20 -13 -5 -14 18 -16 -6 20 -2 12 11 -5 -20 -20 -20 -20 -20 -20 -20 -20 -20 -20 -20 -20 -20 -20 -20 -20 -20 -20 -9 2 -6 -17 -20 -20 -20 -20 -20 -20 -20
16 6 18 -3 15 1 23 15 -2 11 19 -6 11 17 -20 -20 -20 -20 -20 -20 -20 -20 -20 -20 -20 -20 -20 -20 -19 -10 -18 -16 -20 -20 -19 -20 -20 -20 -20 -20 -20 -20 -20 -20
9 -18 22 13 19 -2 21 18 6 -4 8 2 20 14 28 -20 -20 -20 -20 -16 -18 -3 -20 -20 -20 -20 -20 -20 -20 -20 -20 -20 -20 -20 -20 -20 -20 -20 -20 -20 -20 -20 -20 -20
23 2 22 -20 -20 -20 22 16 18 13 -18 14 16 14 30 -20 -20 -20 -20 -20 -9 11 -10 -20 -20 -20 -20 -20 -20 -20 -20 -20 -20 -20 -20 -20 -20 -20 -20 -20 -20 -20 -20 -20
-8 21 19 -11 -20 3 18 11 19 27 15 -20 4 -13 -7 -6 -17 -15 -11 7 19 -10 -19 -20 -20 -20 -20 -20 -20 -20 -20 -20 -20 -20 -20 -20 -20 -20 -20 -20 -20 -20 -20 -20
9 8 -4 -20 -20 17 12 8 21 22 11 -5 -20 -20 17 -9 -17 2 13 22 19 -19 -10 -20 -20 -20 -20 -20 -20 -20 -20 -20 -20 -20 -20 -20 -20 -20 -20 -20 -20 -20 -20 -20
1 -18 11 -20 -18 -17 22 12 28 30 3 -7 -10 -20 -16 15 28 9 2 10 14 29 23 -5 -20 -20 -20 -20 -20 -20 -20 -20 6 -2 -20 -20 -20 -20 -20 -20 -20 -20 -20 -20
16 17 16 -14 14 -20 21 16 22 24 22 -19 -13 11 5 20 26 32 24 30 21 17 10 8 -18 -20 -20 -18 -20 -20 -20 -20 -5 -13 -20 -20 -20 -20 -20 -20 -20 -20 -20 -20
16 16 15 -8 -12 -20 16 10 22 28 24 9 1 3 7 20 26 18 11 27 31 19 20 -8 -1 -19 -20 -20 -12 -20 -4 -11 10 14 -20 -20 -20 -20 -20 -20 -20 -20 -20 -20
22 20 19 13 8 9 21 23 23 21 31 23 -20 -20 10 16 35 26 7 26 29 25 9 10 4 -4 -20 -20 4 -10 -20 -9 4 8 2 -20 -20 -20 -20 -20 -20 -20 -20 -20
24 8 21 16 12 14 24 29 24 20 27 24 -20 -3 -12 11 3 16 27 5 3 -6 -16 -20 -20 -20 -20 -20 -20 -20 13 -19 -20 -20 -20 -20 -20 -20 -20 -20 -20 -20 -20 -20
22 15 22 21 19 19 26 36 26 26 39 23 7 15 -5 5 5 12 20 -18 6 -3 -20 -20 -20 -20 -20 -20 -20 -20 -20 -20 -20 -20 -20 -20 -20 -20 -20 -20 -20 -20 -20 -20
29 30 17 17 26 29 32 32 28 28 25 13 18 -20 -20 -1 10 16 5 12 16 17 17 6 -18 -20 -20 -20 -20 -20 -20 -20 -20 -20 -20 -20 -20 -20 -20 -20 -20 -20 -20 -20
19 2 20 20 17 21 30 29 24 21 14 13 -16 -20 -11 -4 10 20 -6 -20 -12 19 20 30 30 -20 2 -20 -20 -20 -20 -20 -20 -20 -20 -20 -20 -20 -20 -20 -20 -20 -20 -20
18 17 18 12 28 34 32 39 26 24 31 33 3 -15 -9 -20 -19 -20 -20 -20 6 21 29 25 -19 -20 11 -20 -20 -20 -20 -20 -20 -20 -20 -20 -20 -20 -20 -20 -20 -20 -20 -20
15 6 20 21 21 31 31 26 14 3 21 -0 -16 -20 -20 -20 -20 -20 16 -5 26 25 29 1 30 8 15 30 -20 -20 -20 -20 -20 -20 -20 -20 -20 -20 -20 -14 -12 -20 -20 -20
-12 12 19 21 25 25 24 28 13 11 23 28 -5 -20 -3 -14 -13 -20 -20 29 31 39 38 22 18 -19 25 1 -20 -20 -20 -20 -20 -20 -20 -10 3 -0 -18 -19 -20 -20 -20 -15
21 14 21 32 28 29 23 32 27 12 10 -2 -20 -20 -20 13 -8 10 13 13 34 21 16 3 12 28 4 -14 -20 -20 -20 -6 -5 -20 -19 -10 -14 7 -15 -20 -20 -20 -20 -19
12 23 32 38 24 15 12 31 26 25 10 10 -20 -20 -20 32 19 6 -19 -17 -17 -0 14 -3 -20 -20 -3 -20 -20 -20 -20 -13 -20 -20 -20 -20 -20 -20 0 8 -1 -20 -20 -20
22 38 32 20 37 34 26 6 -20 7 -7 -19 -20 -20 -3 -13 26 6 -19 -14 7 -6 -4 6 -7 -20 -7 -20 -20 -20 -19 -20 -20 -19 -16 -13 -13 -9 12 -0 -9 -1 9 3
-4 18 18 10 7 15 -13 -20 -11 -20 -20 -15 -20 -15 -6 6 34 35 -8 -20 -20 -5 -18 -20 -20 -2 -4 -20 -9 -6 -4 -15 -5 -14 -17 -14 -16 -3 5 7 0 11 3 -12
-20 -20 -5 -11 -20 -20 -19 -20 -19 -20 -19 -17 11 18 32 33 24 35 14 -12 -20 -20 -20 -20 -20 -7 -8 -15 -18 -17 -5 2 6 3 10 12 15 12 6 4 8 7 -18 -9
-14 -20 -20 -20 -20 -20 -20 -20 -20 -20 -20 5 14 13 -11 -18 -6 -13 -19 -20 -20 -20 -20 -20 -5 -6 -4 -4 -6 -20 -9 -6 0 11 11 5 -7 -4 6 8 11 9 0 0
-20 -20 -20 -20 -20 -20 -20 -20 -20 -20 -16 -14 -20 -20 -20 -20 -20 -20 -16 -20 -20 -20 -20 -20 -9 -9 -10 -15 -18 -10 -5 2 -2 6 3 3 6 5 9 13 14 11 6 6
-20 -20 -20 -20 -20 -19 -19 -20 -20 -18 -16 -18 -20 -20 -20 -19 -20 -20 -20 -20 -20 -20 -20 -20 -20 -19 -20 -20 -20 -20 -18 -1 4 4 9 14 15 14 12 11 6 5 2 -1
-20 -20 -20 -20 -20 -20 -19 -17 -19 -16 -15 -20 -20 -20 -20 -20 -20 -20 -20 -20 -20 -20 -18 -18 -16 -17 -16 -19 -20 -16 -3 6 12 12 6 -4 -13 -15 -20 -20 -20 -20 -20 -20

GFSNW_prec_radar_054.txt.gz
Reflectivity
-20 -20 -2 18 19 -20 6 19 10 -4 19 18 -5 6 2 -20 -20 -20 -20 -20 -20 -20 -20 -20 -20 -20 -16 -16 -20 -20 -3 -19 -20 -13 -20 -20 -20 -20 -20 -20 -20 -20 -20 -20
16 -12 14 18 20 0 14 13 1 7 27 14 4 9 10 10 -20 -20 -17 -3 -20 -20 -20 -20 -20 -20 -9 -3 -18 -20 -20 -19 -12 -20 -20 -20 -20 -20 -20 -20 -20 -20 -13 -20
-16 3 -1 -6 -7 22 20 20 15 -8 21 17 11 10 8 11 -20 -12 -20 -20 -20 6 5 -20 -20 -20 -20 -20 10 -3 -20 -8 -20 -20 -20 -20 -20 -20 -20 -20 -20 -20 -20 -20
-13 -8 -11 8 -20 17 21 21 15 9 16 9 3 13 -6 9 8 -20 -20 -20 -20 -2 2 8 -20 -20 -20 -20 -19 9 12 3 -20 -20 -20 -20 -20 -20 -20 -20 -20 -20 -20 -20
20 -20 -20 -17 19 -14 22 15 11 12 11 14 6 10 5 12 -5 6 3 -20 -11 -20 -7 4 6 -20 -20 -20 -20 -20 -19 -7 -1 -20 -20 -20 -20 -20 -20 -20 -20 -20 -20 -20
14 18 -15 13 -15 20 17 15 16 22 -18 8 12 12 8 -15 18 -14 9 12 -1 -2 -19 9 7 -5 -20 -20 -20 -20 -20 -16 -20 -20 -20 -20 -20 -20 -20 -20 -20 -20 -20 -20
10 -19 8 19 11 18 16 19 12 20 4 13 13 1 -9 6 -2 19 -1 1 -9 0 0 -13 -13 6 -20 -20 -20 -20 -20 9 13 -20 -20 -20 -20 -20 -20 -20 -20 -20 -20 -20
-12 -17 11 -15 20 15 24 15 22 20 15 -13 -9 7 6 2 9 17 32 4 -1 25 21 18 14 14 14 -20 -20 -20 -20 -1 9 5 -3 -20 -20 -20 -20 -20 -20 -20 -20 -20
15 -20 15 9 11 -18 20 18 15 19 10 23 7 7 8 10 6 8 -13 35 29 19 29 26 10 13 12 12 5 -20 -20 -15 14 10 -18 -20 -20 -20 -20 -20 -20 -20 -20 -20
-8 -8 17 18 10 -12 16 1 19 20 7 -20 -14 16 8 15 16 -1 16 20 32 23 24 16 14 11 -0 16 12 10 11 10 9 1 14 -2 -20 -20 -20 -20 -20 -20 -20 -20
3 -20 -9 -19 -20 -7 6 -6 20 18 6 13 23 -20 11 11 14 15 24 27 34 29 16 18 13 12 3 -9 18 -1 -7 5 9 4 8 2 -20 -20 -17 6 -20 -20 -20 -20
-13 5 10 13 16 17 19 22 18 22 14 16 -20 -12 -3 1 8 12 23 22 5 10 18 13 19 13 11 -19 1 -16 17 -19 -18 -20 -7 -20 -20 -16 -20 -20 -20 -20 -20 -20
9 7 12 15 27 17 26 11 10 23 14 29 14 16 2 1 7 18 20 15 22 12 -19 21 19 21 9 10 -14 -20 -20 -20 3 7 -20 -20 -20 -20 -20 -20 -20 -20 -20 -20
-1 24 28 28 19 24 25 11 8 22 33 18 3 -17 -12 3 13 14 11 14 13 15 8 19 20 18 -17 13 -20 -20 -20 -13 -17 -20 -20 -20 -20 -20 -20 -20 -20 -20 -20 -20
12 20 24 23 20 20 19 11 17 21 20 26 16 -8 -20 -20 -7 4 17 26 21 18 25 20 11 15 18 5 -20 -20 -20 -20 3 3 -20 -20 -20 -20 -20 -20 -20 -20 -20 -20
10 32 30 29 27 33 37 38 33 30 32 30 14 -19 -15 -20 -20 4 14 28 33 27 36 20 19 14 22 17 11 -20 -20 -20 -20 -20 -20 -20 -20 -20 -20 -20 -20 -20 -20 -20
17 29 28 27 28 30 25 19 17 26 23 8 -7 -20 -20 -20 -20 18 0 12 12 23 26 7 19 19 6 -9 6 -20 -20 -20 -20 -20 -20 -16 -19 -18 -20 -20 -20 -16 -20 -20
19 24 19 27 27 18 5 16 -3 5 27 20 7 9 3 -20 2 7 1 21 19 -14 -13 3 10 19 24 28 -20 -20 -20 -20 -20 -20 -20 -20 -15 -20 -20 -20 -19 -20 -20 -20
11 21 33 36 33 32 31 18 17 13 -13 5 0 -10 -16 2 -7 4 14 14 21 18 17 37 16 7 13 -9 -20 -20 -20 -20 -20 -20 -20 -18 -20 -20 -20 -19 -16 -16 -20 -20
20 32 31 40 16 20 34 34 34 36 34 15 -19 -6 -19 -9 -10 8 18 19 2 14 18 28 22 -9 -20 -20 -20 -5 -12 -20 -20 -20 -20 -20 -19 -20 -20 -20 -18 -18 -14 -13
24 22 34 15 15 10 27 33 25 15 1 -7 -1 -20 0 1 33 15 -18 8 5 -13 14 12 -14 -2 -3 -19 -12 -5 -15 -4 -20 -6 -2 -3 -8 -4 -20 -16 -1 2 -6 2
11 25 20 5 25 22 -10 -0 -10 -2 -4 -3 8 -0 -2 0 -9 20 1 8 -7 21 -13 -16 -4 -3 -4 -4 -4 -4 -7 -7 -3 -4 -2 -0 -3 -1 -3 -3 -3 5 10 7
4 -10 28 11 -14 -15 -15 9 13 2 -16 -5 12 4 -20 4 -7 31 4 15 -14 -20 -20 -20 -5 -3 -4 -4 -6 -2 -0 -3 -7 -3 4 10 2 -4 -7 -2 7 5 -4 1
-20 -20 -20 -20 -20 -2 -2 -1 -4 -6 -19 -18 -1 20 27 22 27 31 10 -4 -14 -20 -20 -12 2 -0 0 -3 0 -5 -3 -2 -5 -3 -18 -19 -8 4 8 6 7 -0 -15 -2
-20 -20 -14 -1 -0 -1 -1 -4 -4 -13 -7 -7 17 23 29 6 -2 6 8 -20 -20 -20 -4 2 2 2 1 1 -0 -4 -16 -6 -3 8 6 2 2 -3 -16 -3 6 6 3 3
-20 -20 -13 -15 -7 -20 -20 -19 -13 -13 -18 -15 4 -12 -20 -20 -20 -20 -20 -20 -20 -1 3 3 1 -3 -4 -16 -2 -3 -4 3 4 2 3 5 1 -6 -16 -12 -13 -9 -9 -20
-20 -2 2 0 -2 -3 -4 -0 -12 -18 -19 -20 -20 -20 -20 -20 -20 -20 -5 -14 3 3 4 4 1 -4 -5 -1 -9 -16 -7 -16 -17 -20 -20 -19 -3 -7 -20 -20 -4 -20 -20 -20

GFSNW_prec_radar_057.txt.gz
Reflectivity
-6 -4 -20 9 -18 -8 12 10 17 9 16 17 11 10 -20 -20 -20 -20 -20 -20 -20 -20 -20 -20 -20 -20 -20 -20 -20 25 -6 -15 -5 4 5 7 8 6 -4 5 9 -20 -2 11
-3 19 -13 -20 4 16 15 11 12 2 24 16 14 -8 1 -20 -20 -20 -20 -20 -20 -20 -20 -20 -20 -20 -18 -20 -20 -20 0 -20 -9 13 -2 -6 4 9 6 4 -2 15 18 -11
2 7 -5 -20 -9 18 16 21 21 -1 25 16 13 7 9 6 -20 -20 -20 -20 -20 -20 -20 -20 -20 -20 -20 -20 -10 -20 -20 -20 -20 -3 14 2 -20 1 1 -1 -2 -12 18 14
-20 -13 11 -20 -20 6 24 14 5 19 13 8 14 18 22 5 9 -20 -20 -20 -20 -20 -20 -20 -20 -20 -18 -20 -9 11 12 14 -9 -2 -8 -10 13 -4 -6 -3 -5 16 -3 12
17 -2 17 17 14 16 25 18 17 18 13 21 8 10 2 12 13 8 8 -20 -20 -18 -20 -20 12 -20 6 -20 -20 -4 20 8 -20 -6 -20 -20 -17 -9 -20 -20 -20 -20 -20 -20
-20 7 22 19 19 21 23 9 16 16 14 -5 19 21 -20 -20 -20 6 8 -20 -4 18 -20 11 -7 1 22 -20 -20 -4 -1 6 18 2 -20 -20 -20 -20 -20 -3 -18 -20 -20 -20
-20 -20 10 19 18 18 7 20 18 23 2 15 13 -10 22 17 -12 -20 -13 -4 22 8 -12 -20 -20 -20 -20 -20 -20 -20 -20 -0 16 19 -2 9 -3 -20 -20 -20 -20 -20 -20 -20
12 11 -20 -11 21 19 23 24 22 22 19 -9 -12 16 12 -20 -4 12 12 -19 23 28 -20 -16 3 6 11 -11 -20 -20 -20 -20 10 -20 -18 -20 -18 -20 -20 -20 -20 -20 -20 -20
8 14 19 14 12 2 23 9 22 21 20 3 -18 -11 -20 8 17 11 20 -17 -20 25 20 18 13 18 13 17 1 -20 -19 -20 7 20 -3 -11 -20 -20 -20 -20 -20 -20 -20 -20
0 3 -4 3 1 20 23 22 20 22 17 -20 10 3 23 2 -7 17 20 14 2 8 28 16 20 23 10 24 21 10 6 3 -5 1 7 -20 -20 -20 -20 -20 23 -20 -20 -20
-18 3 -20 -20 -20 18 21 14 20 22 12 -20 -8 -9 3 -13 22 23 19 11 25 18 19 14 19 17 13 5 12 17 3 10 9 6 18 12 -20 -20 -14 -20 -20 -20 -20 -20
4 -7 -20 -18 12 13 -12 19 7 19 23 1 5 -20 -20 -12 8 6 24 -2 22 14 21 19 19 18 17 16 16 23 14 -17 19 -17 -18 -20 -20 -20 -20 -20 -20 -20 -20 -20
2 -11 -20 -20 -20 -20 8 5 12 24 16 21 11 -20 -20 -20 0 -4 27 15 18 25 19 18 22 19 -12 11 -12 22 -15 22 19 23 -18 27 -15 -7 -20 -20 -20 -20 -20 -20
3 -8 -6 -20 -20 -11 -3 21 20 22 21 13 -20 -20 -19 13 13 -12 6 2 20 26 25 24 8 20 1 16 11 19 0 12 -20 -20 -6 5 -18 -4 -20 -20 -20 -20 -20 -20
-5 -20 -8 -12 7 5 17 18 21 21 -9 14 2 -5 4 -2 -20 12 15 16 13 13 22 13 17 21 7 -20 8 15 -20 -19 12 15 7 -13 5 -8 -20 -20 -20 -20 -20 -20
-16 -20 -3 18 18 21 33 34 15 20 3 4 17 22 17 -9 -20 9 20 26 26 24 38 6 -13 -20 -12 21 17 -1 20 -20 -20 -19 -20 -20 -20 -20 -20 -20 -20 -20 -20 -20
-14 6 20 27 21 23 36 29 6 18 20 24 27 25 -16 -6 7 20 15 19 27 10 29 -2 19 -19 17 11 8 30 -19 -20 -20 -20 -20 -20 -20 -20 -20 -20 -20 -20 -20 -20
14 19 28 25 29 24 6 -8 -17 -4 18 31 33 25 6 4 5 22 21 22 23 31 21 8 -2 19 22 18 -20 -20 -20 -20 -20 -20 -20 -20 -20 -20 -20 -20 -20 -20 -20 -20
26 32 33 31 31 31 32 11 17 12 25 24 -1 10 16 -20 6 6 21 22 20 17 14 -14 -20 -16 16 1 -20 -20 -20 -20 -20 -20 -20 -20 -20 -20 -20 -20 -20 -20 -20 -20
36 32 33 31 16 10 32 36 34 36 28 23 9 15 -1 1 7 9 16 -8 11 10 6 -12 9 20 -11 -20 -20 -20 -20 -20 -20 -20 -20 -20 -20 -20 -20 -20 -20 -20 -20 -19
30 26 25 10 26 31 35 31 23 25 16 14 11 22 -1 -14 14 17 22 -4 18 12 10 2 22 7 -16 -20 -20 -20 -20 -20 -20 -1 -5 -8 -10 0 -10 -15 -5 -5 -16 -6
31 26 22 35 31 24 17 17 6 7 13 -9 2 11 21 -7 11 23 20 18 9 18 -3 16 15 -0 -20 -12 -11 -11 -13 -13 -3 -20 -3 -3 2 -11 -3 -1 0 2 -2 -2
18 16 4 -19 7 14 17 5 -4 10 11 12 8 11 8 5 -15 -2 14 -6 18 -19 12 6 -1 -20 -20 -7 -7 1 -20 -9 -1 -4 -5 -4 -3 -1 2 3 -1 -2 -6 -0
-7 -20 -20 -2 -18 -5 -3 -2 0 2 -5 6 6 -16 -6 -18 -9 -4 24 -2 -2 3 5 -3 -0 -3 2 2 -10 -5 -4 -3 -5 -2 -2 -3 -4 -3 -9 -18 -18 -19 -20 -20
-20 -20 -14 -1 -6 -6 1 -9 -10 -17 -20 3 3 3 10 3 18 7 19 4 0 -9 -3 3 4 5 2 3 -0 -1 -1 -2 -4 -3 -20 -20 -20 -20 -20 -14 -7 -20 -19 -5
-20 -14 3 -3 7 5 4 4 4 -3 -9 -0 17 13 20 17 6 -0 -17 5 -14 2 7 5 4 3 3 3 2 2 -0 -1 -2 -4 -10 -9 -20 -20 -8 -18 -20 -5 -20 -20
-14 4 5 6 -2 5 4 3 -0 -0 3 7 6 -5 -2 -13 -11 -7 -6 -1 5 9 11 9 6 1 1 0 -0 1 1 -1 -2 -1 -0 0 1 3 -11 -7 -4 -20 -20 -20

GFSNW_prec_radar_060.txt.gz
Reflectivity
4 -19 8 -18 -18 -20 5 14 14 -20 28 14 10 9 7 -20 -20 -20 -20 -20 -20 -20 -20 -20 -20 -20 -19 -20 -20 -20 -20 -20 -20 -12 -7 13 8 14 6 3 -8 -4 -10 13
3 -20 -20 -13 19 -17 14 20 5 -20 28 20 4 3 7 -20 -20 -20 -20 -20 -20 -20 -20 -20 -20 -20 -6 -20 -20 -20 -20 -18 -17 -20 10 17 -1 5 11 -13 23 31 17 -14
-4 -12 -16 -20 20 2 21 25 18 -14 19 9 18 15 8 6 -20 -20 -20 -20 -20 -20 -20 -20 -20 -18 0 -20 -20 -15 -20 -9 -20 -20 14 31 19 3 13 5 31 25 30 20
-20 19 17 -10 20 20 20 27 4 17 21 11 -2 4 20 12 -20 -20 -20 -20 -20 -20 -20 -20 -20 -20 -20 -18 -20 -20 -0 7 -10 -20 -17 14 7 -3 16 9 16 24 -0 16
21 -20 -20 14 -7 22 21 12 16 -7 -20 17 22 17 -20 2 14 -5 -19 -20 -20 -20 -20 -17 -20 4 -20 -20 -20 9 11 15 -16 -20 -20 -20 -20 -18 33 14 15 15 12 5
-6 -17 -5 21 19 22 13 5 -17 25 -17 2 8 14 -9 -20 -20 9 16 5 -13 -20 19 -1 -18 -20 -7 -20 -20 2 -1 12 21 -15 -11 -20 -20 -16 7 27 15 -4 2 3
-15 -13 -1 -19 19 23 16 13 21 22 -6 5 -6 13 17 17 -2 -20 -8 11 19 0 -19 -20 -20 -20 -20 -20 -20 -20 -20 -1 22 10 22 -8 -20 -20 -11 -8 -20 -6 2 -3
18 10 -9 7 18 20 21 19 23 26 14 1 -4 8 15 5 7 -15 -20 13 23 -20 -20 -16 -20 -20 -20 -20 -20 -20 -20 -20 19 16 13 22 10 -13 -20 -20 -20 5 9 10
7 -2 -12 -20 5 15 20 21 20 20 32 -6 -20 4 6 4 14 17 -20 -2 -4 -20 20 8 -14 -19 9 -18 -20 -20 -20 -19 16 14 10 -15 -6 12 -12 -10 4 13 -20 -20
10 -2 -20 -20 7 11 20 19 19 19 29 -2 -14 14 15 26 21 6 22 15 5 -9 -4 0 5 -1 -15 19 20 16 -6 17 -1 13 1 11 -2 10 -20 -20 -1 -20 -20 -20
33 26 0 -20 -3 -9 16 11 19 22 21 -14 -19 -1 6 -20 -14 26 15 14 -18 7 6 7 3 12 24 20 20 22 -20 12 11 8 11 10 -20 -16 -18 -6 -20 -20 14 2
30 29 25 -1 -20 -10 12 9 19 21 20 -20 -20 -20 -20 2 6 21 31 12 31 20 2 2 18 -13 20 18 23 -11 28 -17 13 -20 -20 -20 -20 -20 -20 -20 -20 -5 13 -2
24 29 23 3 -20 -18 -20 1 -4 24 22 -4 -7 -20 -20 -20 -20 -15 22 -15 17 1 31 31 25 25 18 -10 -20 25 22 19 6 -8 -19 -18 17 26 -20 -2 -20 -20 -16 -20
29 18 11 -11 -8 -12 -20 -20 7 22 11 8 -20 -20 -20 -20 -20 -20 -20 -20 11 31 28 35 21 -11 3 8 -16 -0 27 33 -1 3 26 25 19 39 -20 -20 -20 -20 -20 -20
-3 5 8 -14 -20 -20 -8 19 17 17 -10 12 9 -20 -20 -20 -20 -20 -20 11 6 -4 26 27 6 17 13 9 -20 -20 22 40 29 23 38 33 39 29 -14 -20 -20 -20 -20 -20
10 8 3 -20 -13 13 24 19 18 21 21 19 -1 9 -17 0 -20 -20 -20 -20 17 17 2 28 19 -20 20 17 17 20 27 1 -20 -15 -1 -14 -20 -20 -20 -20 -20 -20 -20 -20
0 -12 -20 -20 5 21 20 17 17 -20 21 36 4 -20 -12 -12 10 17 17 15 26 22 31 12 -12 22 20 15 8 24 17 -8 -20 -20 -20 -20 -20 -20 -20 -20 -20 -20 -20 -20
-20 -12 -4 -16 15 13 25 -9 -20 10 8 16 -1 23 25 -14 18 35 18 22 18 25 22 5 21 -1 21 -1 -11 -16 -14 -12 -20 -20 -20 -20 -20 -20 -20 -20 -20 -20 -20 -20
-20 3 23 38 41 36 19 13 23 15 3 2 5 21 19 -11 19 22 25 25 25 20 21 14 -14 13 10 -7 -20 -20 -5 -19 -20 -20 -20 -20 -20 -20 -20 -20 -20 -20 -20 -20
26 29 33 32 25 20 26 37 25 21 -18 -6 19 10 18 16 19 15 22 -9 15 -10 -13 1 13 -6 -9 -20 -20 -20 -20 -20 -20 -20 -20 -20 -20 -20 -20 -20 -20 -20 -20 -20
29 31 27 15 27 31 30 26 29 29 21 -14 -16 18 25 0 19 16 16 16 16 15 -10 -5 14 -4 -14 -20 -20 -20 -20 -20 -19 -19 -17 -20 -20 -18 -20 -20 -20 -20 -20 -6
5 21 21 28 31 11 15 5 4 16 13 17 13 19 25 13 3 20 18 21 18 13 -20 9 3 1 -19 -20 -20 -10 -5 -20 -20 -20 -20 -20 -11 -19 -20 -20 -12 -1 -6 -7
6 17 22 32 16 22 20 7 -6 18 -1 -16 -2 9 4 -7 -19 -15 9 -14 11 -14 -10 -10 -1 -16 0 3 -8 -6 -4 -20 -10 -20 -11 -20 -8 -20 -20 -2 -2 -8 -18 -8
7 -15 -20 3 -19 -19 -6 -3 -3 2 3 -17 4 -5 2 -20 -20 -20 5 -10 -5 12 15 -4 2 1 -2 -3 -16 -7 1 -6 -17 -1 -3 -13 -7 -18 -12 -18 -17 -20 -20 -20
-18 -20 -11 -9 -7 -3 -5 0 1 -15 -14 8 2 -15 14 1 -20 -20 -20 -14 9 -20 -4 4 -6 3 1 2 0 -2 -1 -0 1 -3 -5 -9 -19 -20 -4 -5 -20 -20 -20 -12
-20 -20 1 -10 5 9 -6 9 4 -9 -16 -18 -6 1 -2 -9 1 -4 -18 5 -6 1 3 4 -3 -5 -1 2 3 3 0 -14 -1 -1 -4 -14 -20 -20 -13 -20 -20 -20 -20 -20
-4 3 -1 8 -2 7 5 -1 -0 -0 -2 9 4 -8 -16 4 -6 -20 -5 1 4 8 10 5 1 1 -0 -1 -3 2 3 3 2 2 -3 -16 -20 -20 -11 -20 -20 -20 -20 -20

GFSNW_prec_radar_063.txt.gz
Reflectivity
-14 -20 -20 16 18 1 -16 3 13 -20 15 2 13 -3 -20 -20 -20 -20 -20 -20 -20 -20 -20 -20 -20 -20 -20 -20 -20 -20 -20 -19 -20 -15 -20 16 28 15 17 30 8 -20 -4 -20
22 -16 -20 -20 -20 15 1 10 -15 -20 11 24 -11 -20 -20 -20 -20 -20 -20 -20 -20 -20 -20 -20 -20 -20 -19 -20 -20 -20 -20 -20 -19 -20 -18 -3 -1 5 17 -3 4 10 8 14
-17 -20 -20 -3 19 19 25 -5 -12 -20 -20 -12 37 16 -20 -20 -20 -20 -20 -20 -20 -20 -20 -20 -20 -20 -17 -19 -20 -20 -20 -20 -5 -20 -3 7 -18 7 11 10 22 -2 -2 8
-18 -20 12 -20 18 19 15 -7 3 -20 20 -6 -20 -20 -20 -10 11 -20 -20 -20 -20 -20 3 -20 15 -19 -20 -20 -20 -20 -20 -20 -19 -20 -20 -10 29 18 8 21 -4 13 5 26
10 19 17 19 -20 20 15 -2 13 -20 -20 -14 20 30 -19 -20 1 29 -10 9 -20 -20 -2 -6 -20 -20 10 -8 8 11 -20 -20 -20 -20 -3 4 11 13 15 22 4 9 14 26
-19 -9 -20 19 16 21 12 -5 -15 -1 -19 -16 -20 -20 14 17 9 -12 19 21 18 -11 -1 -7 -20 -20 -20 -20 -20 8 -19 13 -20 -19 -20 -20 -20 -19 -1 -8 7 15 34 25
2 -10 -20 -20 19 23 -20 -20 13 17 -18 -20 -20 -20 -20 10 12 -7 9 13 26 -4 -20 -20 -20 -20 -20 -20 -20 -20 -20 -20 0 -20 -20 -16 -20 -20 -20 -5 32 28 27 17
-13 -16 19 -20 -20 21 17 -6 18 24 14 -20 -20 -20 -20 -20 22 20 -20 14 5 -20 15 -14 -17 -20 -20 -20 -20 -20 -20 -20 -8 -20 3 -11 -20 -2 -20 -3 16 24 16 5
-10 -20 11 16 14 1 16 2 14 33 -17 -20 -20 -2 4 12 -19 5 4 26 16 -20 -8 -12 -20 -20 -20 -18 -18 -20 -20 -20 -20 12 -18 7 -20 -14 -20 -20 -16 -13 -20 -15
-2 7 7 -20 -13 2 20 -14 -14 33 15 -20 -19 -0 22 -9 18 20 29 25 11 -20 -20 -20 -20 -20 -17 -20 -20 15 -10 -17 -18 -20 0 -11 -8 6 13 8 -19 -20 -20 -20
-20 6 13 9 -20 -3 15 -14 4 23 20 -4 -17 -8 25 -9 20 16 31 11 10 -20 -20 -20 -20 -20 -9 -8 -20 -11 26 -14 10 5 7 -20 10 7 6 -16 -20 -20 -20 -20
8 19 32 37 16 9 17 14 -8 12 7 -5 -20 -20 -20 -19 -20 -20 4 30 40 8 -19 -13 16 -18 -19 20 14 24 21 16 12 -20 -20 -15 22 -8 -20 -20 -20 -20 -20 -20
20 14 16 35 25 10 -16 1 1 13 8 7 -20 -20 -20 -20 -20 -20 -15 6 26 23 6 17 -10 13 17 -0 11 20 -20 2 15 20 -7 -20 -6 17 6 -20 -20 7 -20 -19
25 29 31 28 27 5 -3 -3 -20 -20 27 -20 -20 -20 -20 -20 -20 -20 -20 -13 -12 16 17 19 11 33 23 21 17 -20 -5 8 12 18 29 11 3 35 18 27 2 -20 -7 -16
15 22 12 18 18 12 -8 -19 -20 -20 -16 7 2 -20 -20 -20 -20 -20 -20 -20 -20 8 26 22 14 32 22 19 -17 16 10 33 39 30 26 24 24 24 22 33 27 -8 -20 -20
-19 -6 11 14 11 1 14 16 -20 -19 -17 -19 -14 -20 -20 -20 -20 -20 -20 -20 -20 4 17 27 2 4 19 -19 -15 20 13 24 32 40 40 33 30 33 34 18 14 -20 -20 -20
-4 14 13 4 -18 -20 -20 -20 8 -18 -5 32 -0 -19 1 -13 -20 -20 -20 -20 -20 -3 8 -5 -1 -20 24 -15 2 -20 12 -2 19 31 25 -2 -13 4 6 -6 -20 -20 -20 -20
1 9 6 -5 2 -6 -18 17 11 -19 -6 -2 6 -3 13 22 19 18 17 14 -11 22 24 -11 -7 -20 -14 8 -19 -20 -20 -16 3 -20 -9 -15 -20 -20 -20 -20 -20 -20 -20 -20
11 -1 17 12 15 15 -15 -20 4 11 -20 -18 -0 3 29 22 19 35 4 23 16 23 16 -16 2 -19 -16 -20 -20 -20 -20 -20 -20 -20 -20 -20 -20 -20 -20 -20 -20 -20 -19 -20
16 -6 4 -0 -11 -2 -20 13 38 42 15 14 6 -1 10 30 28 2 27 28 21 -2 -20 -4 -20 -20 -20 -20 -20 -20 -20 -20 -20 -20 -20 -20 -19 -20 -20 -19 -20 -20 -20 -20
6 22 32 11 7 14 28 18 17 -12 -9 -20 -20 -20 -20 20 21 20 -9 -3 -0 2 -20 -20 -14 -19 -4 -19 -17 -20 -20 -20 -8 -20 -17 -20 -19 -20 -20 -15 -20 -20 -20 -20
-11 27 24 20 25 34 18 -5 6 -14 -20 -20 -20 -11 -20 0 23 6 14 -20 -14 9 -17 -3 -12 -0 -18 -20 -20 -11 -20 -20 -20 -20 -20 -20 -20 -20 -20 -20 -12 -19 -17 -20
0 22 31 23 7 9 6 -20 -20 -20 -20 -15 -3 11 23 19 -17 -19 7 9 -2 -12 9 -20 -18 -3 -18 -20 -20 -20 -20 -20 -20 -20 -20 -20 -20 -20 -20 -20 -20 -20 -20 -20
-15 -19 -20 3 -15 12 5 -20 -20 -18 -20 -13 -20 -20 -20 -3 -20 -20 -20 -20 -20 -9 -10 -19 -15 -20 -20 -20 -20 -20 -20 -20 -20 -20 -20 -20 -20 -20 -20 -20 -20 -20 -20 -20
-0 -19 0 -20 -20 -20 -20 -19 -20 -19 -15 -20 -20 -20 -20 -20 -20 -20 -20 -20 -20 -20 -20 -14 -20 -20 -20 -20 -20 -20 -20 -20 -20 -20 -20 -20 -20 -20 -20 -20 -20 -20 -20 -20
-20 -20 -7 -3 -19 -19 -18 -19 -20 -20 -17 -20 -20 -20 -20 -20 -20 -20 -20 -20 -19 -17 -20 -20 -20 -20 -20 -20 -20 -20 -20 -20 -20 -20 -20 -20 -20 -20 -20 -20 -20 -20 -20 -20
-20 -20 -19 -20 -20 -19 -20 -20 -20 3 -18 -17 -20 -20 -20 -20 -20 -20 -20 -17 -20 -20 -18 -20 -20 -20 -20 -20 -20 -20 -20 -20 -20 -20 -20 -20 -20 -20 -20 -20 -20 -20 -20 -20

GFSNW_prec_radar_066.txt.gz
Reflectivity
12 -20 -1 -20 -20 1 -17 -20 -19 -20 -14 3 3 4 -20 -20 -20 -20 -20 -19 -13 -20 -20 -20 -20 -0 -20 -20 -20 -19 -20 -19 -20 -20 -20 -11 9 2 15 13 10 13 27 30
-17 -13 -20 -20 -20 2 -20 9 -20 -20 4 24 -12 -2 2 -20 -20 -20 -20 -20 11 -20 -20 -20 3 -20 -20 -20 -20 -20 -20 -20 -20 -20 -20 -2 -19 -17 -18 -1 25 11 1 12
-20 -13 1 -19 -20 20 -1 9 -20 -20 -20 -15 16 24 15 -11 -20 -20 -20 -20 -5 -20 -20 -20 -20 -20 -20 -20 -20 -20 -20 -20 -20 -6 -6 10 12 16 -13 24 30 18 -19 5
-20 -20 -20 -20 -6 20 16 33 -14 -20 -17 15 9 17 -4 10 4 15 -20 -20 -20 -20 -20 -20 -20 -20 -20 -20 -20 -20 -20 -20 -20 -20 -20 -20 -20 24 16 -3 -3 4 -20 -12
16 15 18 -20 -7 19 20 -20 -20 -20 -20 7 5 7 -20 1 19 -20 -19 2 3 -20 -20 -20 -20 1 -20 -7 -20 -20 -20 -20 -20 -20 -20 -20 -20 11 9 31 18 15 -20 -20
11 16 -20 -20 20 11 29 24 -20 -18 -20 -20 -20 -20 17 -10 -9 6 13 16 10 -20 -20 -14 -20 18 -9 -20 -20 -20 8 17 -20 -20 -20 -20 -20 -20 7 17 26 18 17 1
-20 -17 -7 1 5 22 -15 -20 -15 3 -19 -20 -20 -20 -19 -20 -4 7 -19 11 33 4 -20 17 -10 16 -20 -20 -20 -20 -20 -20 -20 -20 -20 -20 -20 -20 -19 -1 19 -2 5 33
-18 -1 -20 17 -13 20 -11 -20 8 7 5 -18 -18 -20 -20 -20 -20 -20 -20 -20 -19 20 -20 -0 -11 -20 -20 -20 -20 -20 -20 -20 -20 -20 -20 -20 -20 16 -2 14 -14 -20 29 29
-20 -20 -13 20 -19 24 -14 -20 0 27 6 -20 -20 -20 -20 -18 -20 -20 -18 -20 26 25 19 9 -19 -20 -20 -20 -20 -20 -20 -20 -20 -18 -20 -18 -20 0 9 -20 0 -15 3 16
-15 -14 9 -20 -20 -5 -14 -20 -20 22 17 -20 -20 -20 -20 -7 -11 -12 15 17 7 1 -7 -20 -20 -20 -20 -20 -20 -20 -20 -20 -20 -20 -18 -20 -20 -20 4 2 29 16 -6 13
-20 -15 2 -4 -3 -20 18 -14 -15 -1 18 -20 -20 -20 -20 -19 25 4 21 24 30 -15 -20 -20 -20 -20 -20 -20 -20 -20 -20 -20 -20 -7 3 5 -20 -20 -10 27 21 29 17 4
1 -4 -15 -20 14 14 21 7 -13 -20 21 -20 -20 -20 -20 -2 -20 6 9 6 4 38 -20 -4 -20 -20 -20 -20 -20 18 26 12 9 -20 -20 4 -20 -20 -20 5 28 16 34 24
-16 2 12 11 16 28 34 1 -10 12 30 -11 -20 -20 -14 -20 -20 -20 9 5 29 37 31 -0 -6 -13 -20 -20 -18 14 23 15 26 15 -14 -17 -20 21 -20 -20 -3 -17 -2 -19
15 16 28 26 27 27 40 9 -18 -11 1 -20 -20 -20 -20 -20 -20 -20 -20 -14 5 -12 -0 -0 -1 -11 13 15 25 26 9 -20 5 31 4 -3 3 13 11 -6 4 -2 -20 -20
22 20 20 31 32 37 36 -12 -20 -20 -20 5 -19 -20 -20 -20 -20 -20 -20 -20 -20 -20 -8 -17 2 16 29 32 25 12 18 -4 16 19 28 36 27 6 16 35 19 -14 -20 -20
18 8 31 19 21 35 10 10 -20 -20 -20 -13 -20 -20 -20 -20 -20 -20 -20 -20 -20 -20 4 -16 4 18 35 23 23 27 26 25 30 37 31 35 39 27 5 -10 19 19 9 -8
16 -3 19 17 21 -14 -20 -20 -20 -20 4 19 9 -20 -20 -20 -20 -20 -20 -20 -15 2 -12 -2 -9 -12 0 29 -12 2 1 15 15 24 30 14 13 16 13 12 -12 -18 14 -17
12 6 8 18 -18 -20 -15 5 -9 -20 -20 -20 -20 -20 -14 -6 -20 -9 -20 12 -0 -6 -8 -10 -10 -16 -4 -15 15 -2 -13 17 -19 -20 -20 -20 -10 -12 1 -8 -20 -20 -20 -20
12 16 18 6 -20 -20 -1 7 16 2 -20 -20 -8 3 8 40 38 17 2 1 -6 -15 9 -20 -20 -20 -8 -8 -20 -18 -19 -20 -20 -20 -20 -20 -20 -20 -20 -20 -20 -20 -20 -20
14 -16 -20 -20 -20 -20 -8 15 17 23 -17 15 10 -20 10 21 33 33 1 31 21 -14 -4 -13 18 -18 -15 -17 -20 -20 -20 -20 -20 -20 -20 -20 -20 -20 -20 -20 -20 -20 -20 -20
-20 -20 14 -20 -20 -13 -20 -16 -20 20 -15 -18 -20 -20 -19 5 24 17 7 -20 2 -20 -20 8 -1 -20 -7 -16 -19 -20 -20 -20 -20 -20 -20 -20 -20 -20 -20 -20 -20 -20 -20 -20
-20 18 17 17 -11 -11 18 14 -20 -13 -20 -20 -20 -20 -20 -20 1 10 -12 -20 -17 -20 29 -14 -20 -5 -17 -20 -20 -20 -20 -20 -20 -20 -20 -20 -20 -20 -20 -20 -20 -20 -20 -20
26 -13 -14 1 11 7 -17 -20 -20 -20 -20 -10 -6 -19 -20 -20 -15 -16 -5 24 -19 -16 -14 -18 -20 -20 -20 -20 -20 -20 -20 -20 -20 -20 -20 -20 -20 -20 -20 -20 -20 -20 -20 -20
6 2 -18 16 -20 -20 -19 -20 -20 -20 -9 -11 -20 -20 -20 -20 -20 -20 -20 -20 -20 -20 -20 -20 -20 -20 -20 -20 -20 -20 -20 -20 -20 -20 -20 -20 -20 -20 -20 -20 -20 -20 -20 -20
-20 -20 -20 -20 -20 -20 -18 -19 -20 -16 -1 -18 -20 -20 -20 -19 -20 -20 -20 -20 -20 -20 -20 -20 -20 -20 -20 -20 -20 -20 -20 -20 -20 -20 -20 -20 -20 -20 -20 -20 -20 -20 -20 -20
-20 -20 -8 -19 -20 -18 -20 -19 -16 -19 -20 -20 -20 -20 -20 -20 -20 -20 -20 -20 -20 -20 -20 -20 -20 -20 -20 -20 -20 -20 -20 -20 -20 -20 -20 -20 -20 -20 -20 -20 -20 -20 -20 -20
-20 -20 -20 -20 -20 -20 -20 -20 -20 -6 -19 -20 -20 -20 -20 -20 -20 -20 -20 -20 -20 -20 -20 -20 -20 -20 -20 -20 -20 -20 -20 -20 -20 -20 -20 -20 -20 -20 -20 -20 -20 -20 -20 -20

GFSNW_prec_radar_069.txt.gz
Reflectivity
3 -19 -20 -20 -20 -20 -20 -20 -20 -20 -20 9 -20 -20 -20 -20 -20 -20 -20 -20 -20 -20 9 -20 -19 -18 -10 1 5 22 -7 -3 -20 -20 -20 -20 -20 -16 28 23 20 -19 17 8
-20 -20 -20 -20 3 19 -20 -12 -20 -20 -20 -20 13 -14 -20 12 -17 -20 -20 -20 -11 -20 -19 12 7 5 -20 -20 -20 -1 -20 -8 -20 -20 -20 -17 7 4 26 27 21 -10 9 13
-20 -20 -20 -20 -8 7 -3 -12 -20 -20 -20 -20 -20 2 -2 -7 20 -3 18 -11 -20 -20 -20 14 13 10 -20 -12 -3 -20 -20 -20 -20 -20 -0 11 -3 -18 18 28 20 -20 -16 13
-20 -20 -20 -20 -17 -16 -17 0 -20 -20 -20 -10 -15 5 -10 19 11 -8 12 -20 0 1 -14 -16 -11 15 12 0 -20 -20 -20 -20 -20 -20 -20 -20 -20 -20 8 17 25 30 -11 -0
-20 -20 -20 -18 15 3 16 -18 -20 -20 -20 -20 -20 12 14 -10 5 -6 16 15 -20 7 9 17 16 7 -20 8 18 -20 -19 -20 -20 -20 -20 -20 -20 -20 -16 15 23 20 -11 -20
-18 -15 -20 -20 -8 4 -11 24 25 -20 -20 -20 -20 -20 -20 -8 -9 -20 -17 -20 -6 -19 -19 -20 23 18 -8 -20 -20 -20 -8 14 -20 -20 -20 -20 -20 -20 -20 -18 -20 3 22 -13
-20 -19 1 -20 8 13 -12 -20 -19 -18 -20 -18 -20 -20 -20 -20 -20 -20 -13 -14 -1 -17 -20 -20 6 -20 -20 -20 -20 -20 -20 -20 -20 -20 -20 -20 -20 -20 -20 -20 -20 11 -5 10
-18 -20 -20 -20 -9 21 -20 -20 17 -19 -16 -20 -20 2 -18 -20 -20 -20 -20 -18 9 -2 32 -6 18 -13 -20 -20 -20 -20 -20 -20 -20 -20 -20 -20 -20 -20 -20 -20 -20 -20 -8 -17
-8 -17 3 18 -19 20 -20 -18 -9 26 -18 -20 -20 -20 -20 -4 -18 -20 -20 -20 -9 32 35 17 16 -18 -20 -19 -20 -20 -20 -20 -20 -20 -6 -20 -20 -20 -20 -20 -20 -20 -20 22
-20 -20 -20 -20 -13 19 -17 -20 -20 5 16 -20 -20 -20 -20 -20 -17 -18 -13 -20 3 34 12 -2 -8 -19 -20 -20 -20 -10 -20 -20 -20 -20 -4 -17 -20 -20 -20 -20 -20 -20 -20 6
-11 -20 -20 15 3 -11 -16 -20 -20 -15 -10 -20 -9 -20 -20 -20 -20 -20 -20 -19 2 -7 -20 -20 -20 -20 -20 -20 -20 -20 -20 -20 -20 -19 6 -12 -20 -20 -20 -20 -20 -20 -20 -18
-19 -1 -14 -19 -14 -2 24 4 -10 -20 -16 -20 -20 -20 -20 -20 -20 -20 -20 7 17 30 18 -3 -17 10 -20 -20 -20 -20 0 22 6 -20 -20 -20 -20 -20 -20 -20 -12 28 24 20
-8 1 -1 -1 11 12 20 20 -20 11 20 -11 -20 -20 -20 -20 -20 -20 -4 14 3 30 10 29 10 -20 -19 -20 -20 -20 4 36 34 31 8 -8 -20 -20 10 -20 -20 -14 -4 38
-20 -20 -7 1 20 21 24 37 11 6 -2 -20 -20 -20 -20 -20 -20 -20 7 -15 5 6 13 26 6 -20 6 -15 8 8 24 -8 -20 13 30 8 11 -10 -8 11 12 21 11 -19
9 11 31 17 21 31 35 35 29 26 6 -8 -20 -20 -20 -20 -20 -20 -17 -18 6 -20 -9 -14 -19 -18 22 27 30 15 12 -9 -17 -1 25 22 20 28 4 5 6 2 -14 -5
13 16 13 21 24 39 39 30 39 19 -20 -20 -20 -20 -20 -20 -20 -20 -20 -19 -20 -19 11 13 -15 9 25 28 20 12 2 6 18 24 36 35 34 37 16 -13 21 28 26 18
21 15 9 -11 27 27 24 7 -11 -20 -16 -19 -15 -20 -20 -20 -20 -20 -20 -20 -20 -20 5 -4 -9 0 16 24 24 12 1 21 22 26 33 15 0 5 8 7 -20 -20 -19 -8
25 15 25 -11 11 9 -19 -19 -20 -20 -20 -20 -20 -20 -20 -16 -20 -20 -20 -20 -20 -6 12 -15 -8 -12 4 -15 21 -6 -17 11 4 -20 -20 -10 -2 -13 -1 -0 -20 -20 -18 -4
10 16 29 23 -20 -20 14 5 6 -20 -20 -20 -15 -20 -20 -16 17 -20 -18 -20 -20 3 -11 7 -16 -20 6 -5 -20 -20 -20 -20 -20 -20 -20 -20 -20 -20 -20 -20 -20 -20 -5 -5
15 6 -5 -19 -20 15 20 9 -16 -20 -20 -5 -19 -20 7 17 28 10 8 -17 -20 10 -20 19 15 -20 -16 -20 -20 -20 -20 -20 -20 -20 -20 -20 -20 -20 -20 -20 -20 -20 -20 -20
-20 -20 -18 -20 8 -16 -20 -19 -10 -16 5 -20 -20 -11 -8 -6 25 24 30 -16 19 -19 -16 -13 -2 -20 -20 -20 -20 -20 -20 -20 -20 -20 -20 -20 -20 -20 -20 -20 -20 -20 -20 -20
-20 -20 -20 -20 -20 -12 -6 -10 -20 -7 -20 -20 -20 -12 -11 11 20 27 -10 -20 -12 -4 -19 -17 -20 -9 -20 -20 -20 -20 -20 -20 -20 -20 -20 -20 -20 -20 -20 -20 -20 -20 -20 -20
-20 -20 -20 -16 -19 8 -9 -17 -20 -20 -20 -20 1 -17 -17 -15 9 -8 -16 -7 -20 -3 -3 -20 -20 -20 -20 -20 -20 -20 -20 -20 -20 -20 -20 -20 -20 -20 -20 -20 -20 -20 -20 -20
-19 -20 -11 -10 -20 -20 -20 -20 -20 -20 -20 -15 -20 -20 -20 -18 -20 -5 -20 -20 -18 -20 -20 -20 -20 -20 -20 -20 -20 -20 -20 -20 -20 -20 -20 -20 -20 -20 -20 -20 -20 -20 -20 -20
-15 -9 -18 -20 -20 -20 -20 -20 -20 -19 19 6 -7 -13 -20 -20 -20 -20 -20 -20 -20 -20 -20 -20 -20 -20 -20 -20 -20 -20 -20 -20 -20 -20 -20 -20 -20 -20 -20 -20 -20 -20 -20 -20
-20 -20 -14 -20 -20 -20 -20 -18 -19 -11 -9 -13 -20 -20 -20 -20 -20 -20 -20 -20 -20 -20 -20 -20 -20 -20 -20 -20 -20 -20 -20 -20 -20 -20 -20 -20 -20 -20 -20 -20 -20 -20 -20 -20
-20 -20 -20 -20 -20 -20 -20 -20 -15 -8 -20 -20 -20 -20 -20 -20 -20 -20 -20 -20 -20 -20 -20 -20 -20 -20 -20 -20 -20 -20 -20 -20 -20 -20 -20 -20 -20 -20 -20 -20 -20 -20 -20 -20

GFSNW_prec_radar_075.txt.gz
Reflectivity
6 -20 -19 10 -20 -20 -20 -20 -20 -20 -20 -20 -20 -20 -20 -20 -20 -20 -20 -20 -20 -20 -20 -9 -20 -20 -20 -20 -20 -5 -20 17 -20 -20 -20 -20 1 3 -19 12 -8 24 -8 -11
-4 -20 -16 -14 -20 -20 -20 -20 -20 -20 -20 -20 -20 -20 -20 -20 -20 -20 -20 -20 -5 -15 -20 -20 -20 -20 -20 -5 -20 14 -6 16 8 -14 -12 -20 -20 5 32 28 24 -5 14 15
10 -20 -20 -20 -20 -20 -20 -20 -20 -20 -20 -20 -20 -20 -20 -20 -5 -7 14 -7 -20 -5 -20 2 -20 -20 -20 -20 30 3 -9 -20 14 17 -9 -20 -20 -20 -20 -3 15 15 26 11
-2 -20 -20 -20 -20 -20 -20 -20 -20 -20 -20 -2 -20 -20 -20 -20 -19 -20 -19 25 20 12 19 20 -18 -20 -20 -20 19 32 5 -20 20 18 -20 -20 -20 -20 -20 -20 1 -18 -20 -17
-12 -15 -20 -20 -12 -20 -20 -20 -20 -20 -20 -20 -20 -20 -20 -20 -10 -20 -20 -20 8 -10 10 -10 9 1 -20 -19 -2 34 35 -1 27 5 -20 -20 -20 -20 -20 -20 -20 -16 -20 -20
-20 -20 -16 -12 -16 -20 -18 1 -16 -20 -20 -20 -20 -20 -20 -20 -20 -20 -20 -20 -20 1 17 -7 6 -20 -7 8 15 35 27 29 13 -20 -20 -20 -20 -20 -20 -20 -20 3 -20 -20
-20 -13 -20 15 -7 -20 -20 -20 -8 7 -20 -13 -20 -20 -20 -20 -20 -20 -20 -20 -20 -7 -20 -20 -20 -20 -20 -13 -9 11 20 14 14 -7 -20 -20 -20 -20 -20 -4 -5 -20 -20 -12
-20 -20 -20 6 16 -20 -20 -20 -20 -20 -20 -20 -20 -20 -20 -20 -20 -20 -20 -20 -20 -20 -20 -2 -13 -20 -19 -5 -10 16 -13 12 11 -20 -20 -20 -20 -20 -20 -16 -20 -20 -20 -19
-2 -12 -20 -20 7 12 -20 -20 -13 -20 -20 -20 -20 -20 -20 -20 -20 -20 -20 -20 -20 -20 8 11 16 9 -20 -20 -0 -17 -20 -20 -20 -20 -19 -20 -20 -20 -20 -20 -20 -19 -20 -20
-20 -5 0 -20 8 1 -20 -20 -20 -11 -2 -20 -20 -20 -20 -20 -20 -20 -20 -20 -20 -20 -9 18 25 14 -17 4 13 -6 -19 -20 -20 4 4 -20 -20 -20 -20 -20 -20 -20 -20 -20
-20 -20 -20 -9 13 15 -20 -20 -20 -20 -13 -20 -20 -20 -20 -20 -20 -20 -20 -20 -20 -20 7 13 23 -14 -11 -3 -17 17 19 -20 -20 -2 2 -20 -20 -20 -20 -12 2 -12 -20 -15
-20 -20 -20 -4 -11 -6 -18 -20 -12 -20 -20 -20 -20 -20 -20 -20 -20 -20 -20 -20 -19 -0 3 -12 -18 5 -19 -19 15 -20 -20 -18 16 -20 -20 -20 -20 -20 -2 14 -2 6 -20 -19
6 -7 -20 -20 6 -17 20 -8 -19 4 26 -17 -20 -20 -20 -20 -20 -20 3 -20 -20 11 28 15 15 6 -16 8 -7 -20 -14 3 -1 -3 26 6 2 -18 -0 16 15 12 0 -20
5 -20 -16 -7 -20 20 22 -1 -20 -20 -2 -20 -20 -20 -20 -20 -20 -20 -20 -20 -5 -20 -20 5 9 -20 0 -20 -9 4 7 4 -2 39 32 24 11 15 3 3 -8 -4 17 13
-20 -13 9 9 -19 -11 21 20 23 -15 -17 -20 -20 -20 -20 -20 -20 -20 -20 -20 -20 -20 -8 -13 7 -3 14 -20 5 -18 0 0 13 6 9 4 2 3 2 2 6 18 1 -8
-20 9 1 -13 -4 11 28 29 15 28 32 22 8 -20 -20 -20 -20 -20 -20 -20 -20 -20 9 11 -15 -20 15 -19 -20 3 7 20 26 1 5 -16 -11 -16 -2 -2 -16 -17 -18 -16
-15 -11 -4 12 18 34 35 28 17 16 26 27 22 1 -20 -20 -20 -20 -20 -20 -20 -20 -20 -20 -20 -20 -1 16 7 -17 23 19 17 18 18 11 6 8 -16 -19 -20 -19 -20 -20
-5 12 11 24 20 25 37 17 13 24 34 24 -1 -20 -20 -20 -20 -20 -20 -20 -20 -18 -16 -20 -18 -20 -10 12 17 7 15 18 17 18 13 -4 -10 -17 -20 -20 -20 -20 -20 -20
26 21 33 31 35 0 -1 17 29 29 0 -18 -20 -20 -20 -20 -10 -20 -12 -19 11 -20 5 -20 1 -20 7 11 14 17 13 -7 -7 -18 -20 -20 -20 -20 -20 -20 -20 -20 -20 -20
37 26 4 -6 15 5 16 32 -4 -20 -20 -20 -20 -20 -20 -20 -20 -7 -10 3 -20 -20 -20 -19 14 -20 -20 -20 -20 -18 -20 -20 -20 -20 -20 -20 -20 -20 -20 -20 -20 -20 -20 -20
22 30 14 5 11 -20 -20 -20 -20 -20 -20 -20 -20 -20 -20 -20 -20 11 -20 -13 -20 -5 -9 -10 -16 -20 -20 -18 -19 -20 -20 -20 -20 -20 -20 -20 -20 -20 -20 -20 -20 -20 -20 -20
11 1 15 16 -12 -20 -20 1 0 -20 -20 -20 -20 -20 -20 -20 -15 -7 3 -20 -2 9 -10 -20 -20 -20 -20 -20 -20 -20 -20 -20 -20 -20 -20 -20 -20 -20 -20 -20 -20 -20 -20 -20
14 1 -17 -20 -20 -20 -20 -20 -18 -17 -20 -20 -8 15 8 5 25 25 20 14 -14 -1 6 -20 -20 -20 -20 -20 -20 -20 -20 -20 -20 -20 -20 -20 -20 -20 -20 -20 -20 -20 -20 -20
-20 -20 -20 -20 -20 -20 -20 -20 -20 -20 -20 -11 30 -3 13 7 -9 8 -7 -3 4 -20 -20 -20 -20 -20 -20 -20 -20 -20 -20 -20 -20 -20 -20 -20 -20 -20 -20 -20 -20 -20 -20 -20
-20 -20 -20 -20 -20 -20 -20 -20 -20 -20 15 16 15 -15 11 -20 -20 -20 -20 -20 -20 -20 -20 -20 -20 -20 -20 -20 -20 -20 -20 -20 -20 -20 -20 -20 -20 -20 -20 -20 -20 -20 -20 -20
-20 -20 -20 -20 -20 -20 -20 -20 -20 -20 -18 4 -3 -20 -20 -20 -20 -20 -20 -20 -20 -20 -20 -20 -20 -20 -20 -20 -20 -20 -20 -20 -20 -20 -20 -20 -20 -20 -20 -20 -20 -20 -20 -20
-20 -20 -20 -20 -20 -20 -20 -20 -20 -20 -20 -20 -20 -20 -20 -20 -20 -20 -20 -20 -20 -20 -20 -20 -20 -20 -20 -20 -20 -20 -20 -20 -20 -20 -20 -20 -20 -20 -20 -20 -20 -20 -20 -20

GFSNW_prec_radar_078.txt.gz
Reflectivity
-20 -19 -20 -15 -20 -20 -20 -20 -20 -20 -20 -20 -20 -20 -20 -20 -20 -20 -20 -20 -20 -20 -20 -20 -20 -20 -20 -20 -20 -16 10 21 19 -20 -20 -20 -20 17 18 18 22 15 14 10
-1 5 -20 -20 -20 -20 -20 -20 -20 -20 -20 -20 -20 -20 -20 -20 -20 -2 -15 3 1 -20 -2 1 -20 -20 -20 14 -10 9 -2 10 20 19 -11 -9 -9 21 -20 -19 -16 11 13 27
11 -10 -20 -20 -20 -20 -20 -20 -20 -20 -20 -20 -20 -20 -20 -20 -15 -4 -20 -1 10 0 4 13 -12 -20 -8 -20 -20 6 30 4 -15 13 2 18 23 1 -20 -20 -20 -9 -20 -20
-9 -20 -20 -20 -20 -20 -20 -20 -20 -20 2 -3 -20 -20 -20 -20 -20 -20 -20 8 -17 2 -2 -4 19 7 -20 -20 -1 5 14 31 16 -20 -9 -1 7 -20 -20 -20 -20 -20 -20 -20
-20 -20 -20 -20 -20 -20 -20 0 -13 -20 -6 -20 -20 -20 -20 -20 -12 -20 -20 -15 -20 -20 -5 4 19 22 19 17 23 20 18 30 8 4 -6 17 -20 -20 -20 -20 -20 -20 -20 -17
-5 -20 -20 -20 -20 -20 -18 -6 -18 -13 -18 -9 -20 -20 -20 -20 -20 -20 -13 -20 -20 -20 -14 4 -20 -20 -20 -12 5 15 28 33 15 17 9 11 -20 -20 -20 -20 -20 -0 2 -1
5 -20 -20 -20 -20 -20 -20 -2 -17 -3 -12 -20 -20 -20 -20 -20 -20 -0 -20 -20 6 -10 -20 -20 -20 -20 -20 -20 -20 12 28 30 7 4 -20 -20 -20 -20 -20 -20 -20 -12 -20 16
5 -14 1 -20 -20 -20 -20 -20 -18 5 5 -17 -20 -20 -20 -20 -20 -20 -20 -20 -15 -20 -8 5 -15 22 -12 -20 -20 5 20 32 21 11 -20 -20 -20 -20 -20 -20 -14 -20 -19 -4
13 -20 9 -20 -20 -20 -18 -15 -20 -20 -20 -20 -20 -20 -20 -16 1 -20 -20 -20 -20 6 7 7 17 21 18 -19 6 -19 12 7 24 15 -14 -20 2 -20 -20 -20 -20 -20 -20 -5
-7 -20 -20 -20 -20 -13 9 4 -20 -6 2 -20 -20 1 3 -11 -10 1 -20 -20 -20 -18 10 7 18 20 -17 7 8 21 -2 6 18 17 5 -12 -20 -20 -20 -20 4 -20 -20 -20
-20 -20 -20 -2 21 5 -3 7 -20 -3 1 -20 -20 -20 -20 -7 3 6 -20 -16 -3 -3 10 10 21 24 18 10 15 -10 16 17 12 12 6 5 -20 -20 -20 -2 -13 -20 -20 -20
16 -20 -20 -20 9 -0 -20 13 -20 8 9 -18 -20 -20 -20 -20 -20 -11 -19 -6 6 9 15 8 9 19 4 -1 21 25 18 11 23 21 20 -20 -20 -20 -6 -20 -8 -2 -9 -5
15 -20 -20 -20 -10 -1 -19 6 11 14 12 -18 -10 -20 -20 -20 -20 -20 4 -7 7 11 14 10 10 16 5 18 22 23 17 -20 -8 -13 -5 -0 6 -6 -4 -3 -3 -17 -12 -20
0 -20 -20 -5 -20 9 19 5 -20 -6 3 6 -20 -20 -20 -20 -20 -20 -20 -20 -20 10 8 10 11 15 12 3 9 13 -3 -13 -3 1 11 29 20 7 -9 -3 -8 -14 12 8
-20 -20 -20 -20 -20 -5 21 18 4 -5 -11 11 -12 -20 -20 -20 -20 -20 -20 -20 -20 4 1 12 13 11 14 19 3 -2 2 -2 5 4 17 20 12 1 -2 -17 -7 15 5 2
-20 -20 -20 -18 19 -7 23 27 14 6 0 24 10 -17 -7 -20 -20 -20 -20 -20 -2 -2 8 10 14 14 14 9 20 4 2 -0 21 12 12 -2 -2 -5 -11 -20 -20 -9 -19 -19
-20 -20 -20 -20 -10 20 24 11 -8 6 25 32 13 -18 -18 -20 -20 -20 -16 -10 5 7 9 9 6 4 6 15 20 7 -2 12 15 23 16 -5 -3 -20 -20 -20 -20 -20 -20 -20
-20 -20 -18 15 26 26 25 10 31 33 31 34 19 -16 -15 -11 16 18 3 13 6 12 12 12 8 5 18 12 0 3 4 12 5 3 4 -14 -20 -20 -20 -20 -20 -20 -20 -20
-7 20 23 15 28 30 16 28 23 23 18 14 -20 -20 15 -4 19 16 7 18 6 6 12 11 3 4 7 1 13 11 18 20 15 5 -5 -20 -20 -20 -20 -20 -20 -20 -20 -20
19 26 35 32 30 24 21 20 21 16 -14 9 -9 -20 1 0 4 -8 5 4 16 10 6 8 8 4 -16 10 -17 -13 -2 2 -6 -2 -2 -20 -20 -20 -20 -20 -20 -20 -20 -20
22 28 7 12 -2 9 6 -20 -20 -20 -20 -20 -15 -20 -20 -7 12 19 -0 -7 8 -2 -7 4 9 -1 -5 -9 -20 -19 -19 -20 -20 -20 -20 -20 -20 -20 -20 -20 -20 -20 -20 -19
-3 4 21 21 -2 -14 -4 -20 -4 -5 -20 -6 -6 -15 -13 5 4 12 -5 8 -2 6 6 10 10 -13 -4 -20 -20 -20 -20 -20 -20 -20 -20 -20 -20 -20 -20 -20 -20 -20 -20 -20
27 18 20 2 -2 3 -20 -17 -2 1 -20 8 1 5 3 12 -6 2 19 7 19 -8 15 13 -13 -6 -3 -20 -20 -20 -20 -20 -20 -20 -20 -20 -3 -20 -20 -20 -20 -20 -20 -20
16 -17 -20 -5 -6 -20 -20 -20 -19 -4 -20 7 4 11 7 4 10 23 19 5 -3 11 5 1 -5 -6 -3 -20 -20 -20 -11 -20 -20 -20 -20 -20 -20 -20 -20 -20 -20 -20 -20 -20
-8 -20 -20 -20 -20 -20 -20 -20 -20 -20 7 21 26 9 21 8 9 -0 -6 1 7 -6 -20 -13 -5 -1 -11 -20 -20 -20 -20 -20 -20 -20 -20 -20 -20 -20 -20 -20 -20 -20 -20 -20
-20 -20 -20 -12 -20 -7 4 3 -4 -20 -13 17 16 4 -12 -20 -20 -20 -20 -20 -20 -20 -8 0 -9 -20 -20 -20 -20 -20 -20 -20 -20 -20 -20 -20 -20 -20 -20 -20 -20 -20 -20 -20
-20 -20 -20 -18 -18 -3 -20 -20 -20 -20 2 4 -20 -20 -20 -20 -20 -20 -20 -20 -20 -2 1 1 -19 -20 -20 -20 -20 -20 -20 -20 -20 -20 -20 -20 -20 -20 -20 -20 -20 -20 -20 -20

GFSNW_prec_radar_081.txt.gz
Reflectivity
-1 0 -20 -20 -20 -20 -20 -20 -20 -20 -20 -20 -20 -20 -20 -20 -20 -20 -20 -20 -20 -20 -20 -20 -20 -20 -20 -9 -20 -2 14 -8 -20 -20 -20 -5 -10 -3 -12 20 16 19 8 16
8 -14 -20 -20 -20 -20 -20 -20 -20 -20 -20 -20 -20 -20 -20 -20 -20 -20 -20 -17 -20 -20 -20 -4 -20 -20 -20 -20 -20 26 -6 16 15 -13 -11 -3 -20 -20 -19 13 -20 -18 21 25
-20 -18 -7 -20 -20 -20 -20 -20 -15 -20 -20 -20 -20 -20 -20 -20 -20 -7 -20 -14 -14 6 4 -20 -10 -20 -16 -20 -19 -20 -8 -17 16 3 24 10 26 -20 -20 21 15 18 22 1
-20 -20 -20 -20 -20 -20 -20 -18 -9 -19 -8 -20 -20 -20 -20 -20 -10 -15 -20 -0 -11 -18 -5 -20 3 -8 -20 -20 -16 -14 21 -8 -20 -2 -10 -7 -8 32 3 23 19 -20 -17 -16
-20 -20 -20 -20 -20 -20 -20 0 -20 -20 -20 -20 -20 -20 -20 -20 -20 -20 -7 -20 -15 -20 -6 -20 -20 6 2 19 12 27 20 -8 11 -20 18 14 -20 10 -17 -20 -20 -20 -20 -20
-20 -20 -20 -20 -20 -20 -17 -20 -20 -20 -20 -20 -20 -20 -20 -20 -20 -20 -20 -20 -20 -6 -20 -20 -20 -20 -20 -20 15 5 20 20 11 -16 24 15 -19 -9 3 -9 -20 -20 1 21
-20 -20 -20 -20 -20 -20 -20 -20 -20 -7 -8 -20 -20 -20 -20 -20 -20 -20 -20 -20 -7 -20 -20 -20 -20 -20 -20 -2 -20 -14 16 13 13 17 21 18 -20 2 11 -20 -20 -20 -12 -20
-20 -20 -20 -20 -20 -20 -17 -20 -14 1 6 -4 -20 -20 -20 -20 -20 -20 -20 -20 -20 -20 -20 3 -3 -20 -8 -16 -20 -20 -14 7 17 33 18 -20 -20 -16 -11 5 29 -7 -6 -17
-18 -20 -20 -20 -20 -20 -18 -18 -20 -20 10 -18 -20 -20 -20 -16 -20 -18 -20 -20 -20 1 7 12 7 2 6 22 -17 -20 7 23 21 18 16 9 25 -20 -20 -20 18 -20 -20 -20
8 -20 -20 -20 -20 -20 3 3 -20 5 5 -20 -20 2 2 -15 -9 5 -8 -20 -10 5 13 13 22 17 10 19 -1 -8 15 9 20 22 15 16 -20 -20 -20 -20 6 1 -20 -20
15 -1 -20 -20 -20 -20 -20 12 -20 1 0 -0 -20 -20 -20 -7 -20 5 2 -2 15 9 16 20 16 23 24 23 -13 -20 12 19 19 17 20 20 -20 -18 -4 8 -13 -12 -20 -20
15 -18 -20 -20 -19 -20 -20 9 -20 -20 -2 -3 -20 -20 -20 -20 -20 -5 -20 5 2 11 15 12 10 20 13 21 21 -20 17 5 30 13 23 2 -20 -7 -18 -5 -4 -3 -20 -20
-5 -20 -20 -20 -20 -3 -20 19 -20 9 11 -19 -18 -20 -20 -20 -20 -20 2 -14 5 20 22 20 13 20 14 18 23 27 23 -20 4 13 -3 -4 -4 -4 -13 -5 -4 -18 -20 -18
-20 -1 -20 -20 -20 -16 -20 10 16 8 10 5 8 -20 -20 -20 -20 -20 -20 -7 -16 -7 3 11 12 14 20 16 19 19 -1 3 -10 -5 -19 -17 -6 7 10 3 -2 -0 4 2
-20 4 -17 -20 -20 -9 1 17 18 -11 10 15 11 -20 -20 -20 -20 -20 -20 -20 4 5 8 9 16 12 20 14 8 -1 -12 4 1 7 -3 -10 5 11 10 7 1 8 -4 -14
-15 16 -20 -20 -20 -16 21 25 4 -19 16 17 6 6 -20 -20 -20 -20 -19 6 5 -20 8 -2 13 -11 20 3 21 4 -0 -3 5 0 8 5 16 22 17 8 -3 -2 -3 -5
-20 -20 -20 -20 -18 13 19 12 -2 8 -10 25 19 6 -16 -20 -18 17 16 -0 -9 -20 11 8 7 -13 11 13 17 7 -5 1 17 20 23 9 13 6 8 -7 -17 -20 -20 -20
-20 -20 -20 -19 4 2 16 9 -4 3 25 27 16 10 -20 -20 7 18 13 -14 -9 -14 5 14 11 -3 19 14 -0 -1 3 19 15 23 21 2 1 -4 -7 -11 -20 -20 -20 -20
-20 -20 12 18 21 22 12 -1 13 22 30 20 10 13 20 6 19 25 6 16 17 -1 16 18 9 12 10 -6 -4 -20 -16 10 10 10 1 -20 -20 -20 -20 -20 -20 -20 -20 -20
-0 12 29 28 17 15 9 26 19 27 23 13 4 -3 19 3 13 7 20 17 13 17 12 4 6 5 -20 -20 -0 -20 -19 12 17 1 -19 -20 -20 -20 -20 -20 -20 -20 -20 -20
14 30 30 11 9 21 26 9 15 11 14 4 -4 -15 14 -3 5 15 2 20 18 8 7 4 13 8 -5 -19 -12 -20 -20 -20 -20 -20 -20 -20 -20 -20 -20 -20 -20 -20 -20 -20
24 17 13 18 16 13 6 4 2 2 -19 -2 4 -4 2 9 9 23 19 7 7 6 16 9 17 -4 -8 -15 -20 -20 -20 -20 -20 -20 -20 -20 -20 -20 -12 -20 -5 -9 -4 -3
29 26 17 11 5 12 1 -0 0 6 3 12 8 -0 -1 3 4 15 16 6 6 -3 16 22 -3 -20 -18 -14 -20 -20 -20 -20 -20 -9 -20 -20 -20 -20 -20 -6 -4 -4 -4 -17
19 8 5 3 -2 1 3 10 1 10 11 13 11 -1 5 20 6 -3 14 22 13 17 19 10 -20 -20 -19 -20 -20 -20 -5 -8 -6 -6 -4 -5 -4 -5 -4 -8 -20 -20 -20 -20
22 -14 -1 -3 4 -16 -1 -8 -14 -13 -2 -1 14 17 12 16 15 10 8 14 17 5 -1 -1 -9 -20 -12 -4 -3 -5 -4 -4 -4 -3 -3 -3 -9 -14 -3 -4 -10 -20 -20 -20
-17 -16 -15 -20 -14 -14 -14 10 7 -16 16 -3 6 21 14 12 8 3 3 2 16 -4 0 -1 -5 -11 -5 -4 -3 -4 -3 -2 -2 -3 -2 -4 -12 -10 -8 -20 -20 -20 -20 -20
-16 1 -16 -18 -13 -1 -4 -15 -2 -18 1 17 15 8 13 5 1 -18 -20 2 -1 -4 2 3 -19 -3 -2 -2 -4 -3 -1 -2 -1 -4 -4 -3 -17 -20 -20 -20 -20 -20 -20 -20

GFSNW_prec_radar_084.txt.gz
Reflectivity
-6 -4 2 -1 2 7 -3 -20 -11 -19 -20 -20 -20 -20 -20 -20 -20 -20 -20 -20 -20 -20 -20 -20 -20 -20 -20 -20 -20 -20 -8 -6 14 -20 -20 10 -9 -13 1 16 -20 8 11 13
-4 -5 3 -5 -16 -17 -15 -9 -4 -18 -20 -20 -20 -20 -20 -20 -20 -20 -20 -20 -20 -20 -20 -20 -20 -20 -20 -20 -20 -20 -20 4 -0 -20 -1 -16 -11 -0 13 16 22 -19 16 10
-14 -18 -20 -20 -20 -13 -20 -18 -13 -20 -20 -20 -20 -20 -20 -20 -20 -20 -20 -20 -20 -20 -20 -20 -20 -20 -20 -20 -20 -20 -12 -20 11 -9 22 15 0 23 21 -8 21 13 1 10
-20 -20 -20 -20 -6 -19 -20 -20 -18 -20 -20 -20 -20 -20 -20 -20 -20 -20 -20 -14 -20 -20 -5 -20 -20 -20 -20 -20 -20 -20 -18 4 -18 -2 -20 16 8 23 4 -17 24 13 -4 -5
-20 -20 -12 -20 -20 -20 -20 -20 -7 -20 -20 -20 -20 -20 -20 -20 -20 -20 -19 -20 -20 -20 -20 -20 -11 -20 -20 -20 -20 -20 -8 -3 -6 -20 -20 -20 14 16 -4 -17 30 -2 11 2
-20 -17 -20 -20 -20 -20 -20 -20 -20 -20 -20 -20 -20 -20 -20 -20 -20 -20 -20 -20 -20 -20 -20 -20 -20 -20 -20 -20 -20 -20 10 21 19 -20 -19 -17 -20 -20 -20 7 25 24 15 23
-20 -20 -20 -20 -20 -20 -20 -20 -20 -14 -6 -20 -20 -20 -20 -20 -20 -20 -20 -20 -20 -20 -20 -20 -20 -20 -20 -20 -20 -20 -5 4 19 8 -5 -13 -20 -20 -20 -12 26 20 20 -2
-20 -20 -20 -20 -20 -20 -20 -20 -20 -18 -16 -20 -20 -20 -20 -20 -20 -20 -20 -20 -20 -20 -20 -6 -15 -20 -20 -18 9 19 -7 13 22 17 9 5 25 -20 -20 13 12 -19 -19 -20
4 -20 -20 -20 -20 -20 -18 -20 -20 -20 9 -20 -20 -20 -20 -20 -20 -15 -19 -16 -20 -20 8 3 4 -1 -20 10 25 -9 -20 1 15 2 20 33 35 9 -20 -20 16 21 -20 -20
-4 -20 -20 -20 -20 -20 -20 -6 -20 -13 -20 -20 -20 -5 -19 -20 -10 -20 -8 -20 -14 -4 -3 6 12 6 -8 14 20 -20 -5 1 3 15 21 37 28 12 -20 -20 15 -3 -20 -20
16 -20 -20 -20 -20 -20 -20 13 -20 -6 -14 -7 -20 -20 -20 -7 -20 7 -10 -12 -8 -3 11 22 5 8 7 18 25 -20 -18 16 5 8 23 25 14 4 -13 8 6 2 -20 -20
1 14 -14 -20 -20 -20 -20 15 -20 -20 -10 -17 -20 -20 -20 -20 -20 -20 -20 -17 4 11 18 5 7 4 27 19 24 25 21 21 25 9 20 14 -4 1 -7 -19 -13 -20 -20 -20
10 6 -18 -20 -20 -20 -20 18 -3 -16 -3 -20 -19 -20 -20 -20 -20 -20 -20 -5 15 7 3 13 10 14 18 17 20 22 12 -9 20 26 5 2 -18 -1 -15 -14 -17 -17 -17 -12
12 -20 -20 -20 -20 -20 -20 15 16 -15 -0 1 15 -20 -20 -20 -20 -20 -20 -20 -20 -18 -19 12 6 11 19 -0 19 20 -9 -14 -7 -4 -1 -12 -20 9 -5 4 -1 1 9 2
-20 -20 -20 -20 -20 -20 -20 -1 8 -16 4 14 -20 -20 -20 -20 -20 -20 -20 -20 -15 -8 4 -0 3 -12 18 14 23 -1 3 6 -3 4 1 -7 4 7 -9 -14 10 16 1 -1
-11 -20 -20 -20 -20 -20 13 -19 -20 -20 11 10 5 15 -20 -20 -20 -20 -20 -20 0 -7 2 4 -13 -20 21 7 20 13 -8 -20 -3 -4 7 -4 5 9 9 1 0 -0 -2 2
17 -2 -1 -20 -20 -15 -7 16 23 9 -20 -15 6 6 -20 -20 -20 -14 15 8 6 -19 6 -11 -18 -4 19 11 15 -9 -20 -20 1 13 19 7 11 -2 10 -0 -20 -20 -20 -20
15 -20 -20 -20 8 -3 11 8 3 -1 1 -2 11 0 4 -20 -13 9 -19 5 -17 3 -1 -10 10 -8 15 10 -15 -20 -15 2 4 18 21 10 -7 -20 -20 -20 -20 -20 -20 -20
-15 -20 -20 5 6 -1 -4 -20 -7 -16 19 17 9 6 19 -7 10 21 22 10 7 -2 -7 -0 7 13 3 -11 -20 -20 -20 12 14 20 6 -20 -20 -20 -20 -20 -20 -19 -17 -18
-20 -4 7 5 -6 5 -20 1 6 23 31 16 9 -10 21 16 -9 12 22 14 10 20 -1 -1 6 2 -20 -20 -20 -20 -1 2 1 20 10 -15 -20 -20 -20 -20 -20 -20 -20 -20
5 4 21 21 16 7 17 12 10 -7 16 -1 -9 -16 18 -8 -2 13 13 21 17 18 21 12 10 7 -20 -20 -20 -20 -20 -11 -4 -20 -20 -20 -20 -20 -20 -20 -20 -20 -20 -20
-20 22 18 22 17 24 7 7 1 13 4 11 3 5 -6 22 1 21 20 -7 12 2 17 3 7 -3 -20 -20 -20 -20 -20 -20 -20 -20 -20 -20 -20 -20 -20 -20 -20 -20 -17 -14
10 28 16 26 13 14 -2 1 2 2 -19 12 5 8 6 17 17 18 19 -5 -7 18 16 5 -8 -20 -20 -20 -20 -20 -20 -20 -20 -20 -20 -20 -20 -20 -20 -12 -4 -20 -8 -20
28 7 8 11 -15 -2 -15 10 16 8 18 12 9 6 1 15 3 -5 -0 15 14 19 5 5 -20 -20 -20 -20 -20 -20 -20 -14 -20 -20 -20 -20 -20 -19 -20 -11 -5 -20 -20 -20
30 17 14 -11 -8 -20 -8 -10 -20 -16 -20 15 -8 15 8 -4 -3 -6 -4 10 -1 11 19 -2 -7 -20 -20 -20 -20 -20 -17 -15 -15 -5 -4 -3 -9 -12 -4 -18 -20 -20 -20 -20
10 -10 -20 -20 -2 -13 -20 -20 10 -10 -11 -11 -6 17 11 13 9 11 -0 7 12 -3 -5 -6 -20 -20 -20 -20 -20 -1 2 -9 -20 -2 -11 -9 -11 -20 -20 -20 -20 -20 -20 -20
-19 -19 -6 1 -2 -1 -8 -19 11 -20 18 10 8 16 17 13 9 4 -20 4 -4 -7 -4 -2 -20 -20 -19 -18 -19 0 2 3 1 -18 -3 -20 -20 -20 -20 -20 -20 -20 -20 -20

GFSNW_prec_radar_087.txt.gz
Reflectivity
-20 -2 1 -7 11 12 5 -3 3 7 -11 -17 -2 -9 -18 -19 -20 -20 -20 -20 -20 -20 -20 -20 -20 -20 -20 -20 -20 -20 -20 -20 -20 -20 -20 -20 18 -3 14 20 9 5 14 -10
-20 -18 -8 -2 -1 -11 -4 -6 -6 -19 -19 -19 -18 -20 -20 -20 -20 -20 -20 -20 -20 -20 -20 -20 -20 -20 -20 -20 -20 -20 -20 -13 -20 -20 -20 -20 -20 7 33 0 17 22 9 -10
-20 -19 -18 3 5 -9 -15 -6 -15 -10 -18 -17 -20 -20 -20 -20 -20 -20 -20 -20 -20 -20 -20 -20 -20 -20 -20 -20 -20 -20 -20 -20 -20 9 -20 -19 -2 -11 17 7 27 29 9 -8
-0 -7 -20 -20 -18 -20 -9 2 0 -18 -20 -20 -20 -20 -20 -20 -20 -20 -20 -20 -20 -20 -20 -20 -20 -20 -20 -20 -20 -20 -20 -20 -20 -20 -20 -13 15 -11 0 7 8 21 25 19
-19 -9 -20 -20 -4 3 2 -20 -20 -20 -20 -20 -20 -20 -20 -20 -20 -20 -20 -20 -20 -20 -20 -20 -20 -20 -20 -20 -20 -20 -20 -20 -20 -20 -20 -20 -17 -20 -20 16 7 -17 -20 39
-20 -20 -20 -20 -17 -20 -20 -20 -20 -20 -20 -20 -20 -20 -20 -20 -20 -20 -20 -20 -20 -20 -20 -20 -20 -20 -20 -20 -20 -20 -20 -20 -8 -20 3 12 -4 -15 10 -6 22 -19 -14 31
-20 -15 -19 -20 -20 -20 -20 -20 -20 -20 -20 -20 -20 -20 -20 -20 -20 -20 -20 -20 -20 -20 -20 -20 -20 -20 -20 -20 -20 -20 -20 -20 5 -19 -14 3 -20 17 2 2 33 27 35 31
-20 -4 -20 -20 -20 -20 -20 -20 -20 -20 -20 -20 -20 -20 -20 -20 -20 -20 -20 -20 -20 -20 -20 -20 -20 -20 -20 -20 -20 -20 -19 -17 9 13 16 -20 -20 27 32 13 23 -16 -20 -14
8 -18 -20 -20 -20 -20 -20 -20 -20 -20 -20 -20 -20 -20 -20 -20 -20 -20 -18 -20 -20 -20 -20 -20 -6 -20 -20 -18 -19 -20 -20 -9 -14 10 8 -9 23 29 17 35 13 23 -17 -20
9 -20 -20 -20 -20 -20 -20 -20 -20 -20 -20 -20 -20 -20 -20 -20 -20 -20 -20 -20 -20 -20 -20 -20 13 -19 -20 -6 25 -20 -20 3 -15 -20 -11 15 32 37 24 18 15 -20 -19 -20
-2 -20 -20 -20 -20 -20 -20 -20 -20 -20 -20 -20 -20 -20 -20 -20 -20 -20 -20 -20 -20 -20 -20 4 -20 -20 -20 24 33 14 5 10 5 12 18 20 16 20 13 25 -2 -13 -20 -20
11 -20 -20 -20 -20 -20 -20 -20 -20 -20 -20 -19 -20 -20 -20 -20 -20 -20 -20 -20 -20 -20 -20 -20 -20 -11 -1 13 16 32 30 32 20 19 20 30 9 4 7 1 11 -18 -20 -20
-20 10 -20 -20 -20 -20 -20 -20 -20 -20 -20 -20 -20 -20 -20 -20 -20 -20 -20 -20 -20 -20 -20 -20 -20 -20 -10 10 24 15 8 7 23 12 5 1 3 6 -1 5 -14 -18 -19 -20
-20 9 -20 -20 -20 -20 -20 -20 -20 -20 -20 -20 -8 -20 -20 -20 -20 -20 -20 -20 -20 -20 -20 -20 -20 -20 -14 3 19 -1 -6 -20 2 17 11 -8 -17 7 11 7 -20 -16 -1 -2
-13 -20 -20 -20 -20 -20 -20 -20 -20 -20 -7 -17 -20 -20 -20 -20 -20 -20 -20 -20 -20 -20 -20 -20 -20 -20 -17 -13 21 -16 -1 -2 -18 -3 -0 -12 8 15 11 -6 8 -1 -10 -7
-13 1 -20 -20 -20 -20 -20 -20 -20 -20 -20 -20 -20 -20 -20 -20 -20 -20 -20 -20 -20 -20 -20 -20 -20 -20 -20 -20 -20 -17 -15 -9 -20 -18 -2 -20 -1 6 -3 -20 -20 -20 -20 -20
17 -20 -20 -20 -20 -20 -14 -15 9 3 -20 -20 -20 -20 -20 -20 -20 -20 -19 -18 -20 -20 -20 -20 -20 -20 -1 -20 -20 -20 -13 -12 -18 -5 4 -16 -6 -5 -19 -20 -20 -20 -20 -20
12 11 -20 -20 -20 -15 -18 -18 -16 -3 -20 -14 -18 -20 -20 -20 -20 -20 -20 -20 -20 -20 -20 -20 -20 -20 -18 -14 -19 -20 -5 -20 -5 -11 -20 -20 -20 -20 -20 -20 -20 -20 -20 -20
17 -12 -20 -20 -20 -20 -15 -8 1 -19 -20 -17 -20 -20 -20 -20 -20 -20 -8 -14 -20 -20 -20 -20 -20 -20 -20 -20 2 -20 -20 -15 -17 -13 -20 -20 -20 -20 -20 -15 -20 -20 -20 -20
-12 -20 -20 -20 -17 -9 -9 -17 -3 16 -3 1 -20 -20 -20 -19 -20 -19 -19 -20 -20 -20 -20 -20 -20 -20 -20 -20 -20 -20 -20 11 -8 6 -11 -20 -20 -20 -20 -20 -20 -20 -20 -20
-20 -20 -20 12 12 -10 12 -6 -5 -20 4 -20 -20 -20 -20 -1 -20 -20 -19 9 -14 -12 20 -20 -20 -19 -19 -20 -20 -20 -15 9 10 3 -13 -20 -20 -20 -20 -20 -20 -20 -20 -20
-20 -0 28 23 19 5 -2 -14 -20 -1 -20 -20 -20 -20 -20 0 -0 -20 7 -20 -20 -14 1 -20 -20 -9 -19 -20 -20 -20 -20 -20 -20 -20 -20 -20 -20 -20 -20 -20 -20 -20 -20 -20
0 24 -15 7 -20 15 -20 -20 -18 -20 -20 -20 -20 -20 -16 -20 -20 -20 10 -15 -17 -15 -3 -10 -20 -20 -20 -20 -20 -20 -20 -20 -20 -20 -20 -20 -20 -20 -20 -20 -20 -20 -20 -20
-17 7 -20 -1 -4 -20 -20 -20 -20 -20 -17 -20 -20 -20 -20 -20 -20 -20 -20 -20 -17 21 -19 7 -20 -20 -20 -20 -20 -20 -20 -20 -20 -20 -20 -20 -20 -20 -20 -20 -20 -20 -20 -20
13 -0 -8 -20 -20 -20 -20 -20 -20 -20 -20 -20 -20 -20 -20 -3 -20 -20 -20 -20 -20 13 24 -19 -19 -20 -20 -20 -20 -20 -20 -20 -20 -20 -20 -20 -20 -20 -20 -20 -20 -20 -20 -20
24 3 -20 -20 -18 -20 -0 -20 -20 -20 -15 -20 -20 -15 -6 -20 -20 -20 -20 1 18 -12 -20 -20 -20 -20 -20 -20 -20 -20 -20 -20 -20 -20 -20 -20 -20 -20 -20 -20 -20 -20 -20 -20
-14 -20 -20 -20 2 -5 -20 -20 -17 -20 -17 -9 -20 -15 -20 20 -19 -20 -20 -20 -20 -20 -19 -20 -20 -20 -20 -20 -20 -20 -20 -20 -20 -20 -20 -20 -20 -20 -20 -20 -20 -20 -20 -20

GFSNW_prec_radar_090.txt.gz
Reflectivity
7 -20 -20 -20 -4 -2 -8 -2 13 14 5 0 -5 4 7 5 -4 -19 -18 -20 -20 -20 -20 -20 -20 -20 -20 -20 -20 -20 -20 -20 -20 -20 -20 -20 -10 8 -19 13 -16 -18 -5 -15
-20 -20 -20 -20 -20 -16 -3 -11 11 12 9 6 -10 -12 -1 -11 -19 -20 -20 -20 -20 -20 -20 -20 -20 -20 -20 -20 -20 -20 -20 -20 -20 -20 -20 -20 -20 -6 -3 -5 -1 1 8 -12
-20 -20 -20 -20 -20 -20 -16 -9 -13 -7 -20 -16 -13 -4 -20 -20 -20 -20 -20 -20 -20 -20 -20 -20 -20 -20 -20 -20 -20 -20 -20 -20 -20 -20 -20 -20 -20 -20 6 0 6 -2 -5 -8
-20 -20 -20 -20 -20 -20 -20 -20 -20 -20 -20 -20 -20 -20 -20 -20 -20 -20 -20 -20 -20 -20 -20 -20 -20 -20 -20 -20 -20 -20 -20 -20 -20 -20 -20 -20 -20 -20 -20 -14 -20 25 -4 19
-20 -17 -20 -20 -20 -20 -20 -20 -20 -20 -20 -20 -20 -20 -20 -20 -20 -20 -20 -20 -20 -20 -20 -20 -20 -20 -20 -20 -20 -20 -20 -20 -20 -20 -20 -20 -20 -20 -20 -20 -20 -2 10 18
-20 -20 -20 -20 -20 -19 -16 -19 -20 -20 -20 -20 -20 -20 -20 -20 -20 -20 -20 -20 -20 -20 -20 -20 -20 -20 -20 -20 -20 -20 -20 -20 -20 -20 -20 -20 -20 -20 -20 -18 3 8 14 4
-17 -14 -20 -20 -20 -17 -20 -20 -20 -20 -20 -20 -20 -20 -20 -20 -20 -20 -20 -20 -20 -20 -20 -20 -20 -20 -20 -20 -20 -20 -20 -20 -20 -12 -20 -16 11 24 -6 7 11 34 25 28
-20 -20 -20 -20 -20 -20 -20 -20 -20 -20 -20 -20 -20 -20 -20 -20 -20 -20 -20 -20 -20 -20 -20 -20 -20 -20 -20 -20 -20 -20 -20 1 16 7 -17 -18 -8 22 22 10 20 10 30 15
-20 -20 -20 -20 -20 -20 -20 -20 -20 -20 -20 -20 -20 -20 -20 -20 -20 -20 -20 -20 -20 -20 -20 -20 -20 -20 -20 -20 -20 -20 -11 -2 11 6 8 -1 0 -19 18 31 22 32 30 -3
-20 -20 -20 -20 -20 -20 -20 -20 -20 -20 -20 -20 -20 -20 -20 -20 -20 -20 -20 -20 -20 -20 -20 -20 -14 -20 -20 8 -7 15 -20 -8 -8 -20 2 -10 9 9 33 23 18 14 -2 -13
-20 -20 -20 -20 -20 -20 -20 -20 -20 -20 -20 -20 -20 -20 -20 -20 -20 -20 -20 -20 -20 -20 -20 -20 -20 -20 -19 8 22 9 17 13 4 12 16 7 4 18 24 26 28 -10 -20 -20
-17 -20 -20 -20 -20 -20 -20 -20 -20 -20 -20 -20 -20 -20 -20 -20 -20 -20 -20 -20 -20 -20 -20 -20 -20 -20 -18 -12 18 23 19 21 21 1 11 18 17 12 31 25 1 -2 -19 -20
-20 -20 -20 -20 -20 -20 -20 -20 -20 -20 -20 -20 -20 -20 -20 -20 -20 -20 -20 -20 -20 -20 -20 -20 -20 -20 -20 -15 11 -8 1 18 11 8 8 1 13 19 16 16 -6 -15 -20 -20
-16 -20 -20 -20 -20 -20 -20 -20 -20 -20 -20 -20 -20 -20 -20 -20 -20 -20 -20 -20 -20 -20 -20 -20 -20 -20 -20 -11 27 -20 -6 -16 -20 -11 1 -16 -15 -5 6 -7 -19 -10 -14 -20
3 -14 -20 -20 -20 -20 -20 -20 -20 -20 -20 -20 -20 -20 -20 -20 -20 -20 -20 -20 -20 -20 -20 -20 -20 -20 -20 -18 -13 -20 -8 -20 -10 -20 -15 -20 5 0 -14 -11 -15 -20 -20 -17
18 -20 -20 -20 -20 -20 -20 -20 -20 -20 -20 -20 -20 -20 -20 -20 -20 -20 -20 -20 -20 -20 -20 -20 -20 -20 -20 -20 -20 -20 -15 -20 -20 -20 -20 -20 3 -20 -10 -20 -20 -20 -20 -20
18 -20 -20 -20 -20 -20 -20 -20 -20 -20 -20 -20 -20 -20 -20 -20 -20 -20 -20 -20 -20 -20 -20 -20 -20 -20 -20 -18 -20 -20 -20 -7 -19 11 -20 -20 -0 -20 -3 -15 -20 -20 -9 -17
15 -20 -20 -20 -20 -20 -20 -19 1 -20 -20 -20 -20 -20 -20 -20 -20 -20 -20 -20 -20 -20 -20 -20 -20 -20 -20 -20 -20 -4 -20 -20 -12 -20 -19 -20 -20 -8 -10 -20 -20 -20 -20 -20
11 -20 -20 -20 -20 -20 -20 -20 -19 -20 -20 -20 -20 -20 -20 -20 -20 -20 -20 -20 -11 -20 -20 -20 -20 -20 -17 -20 -20 -9 -20 -17 -20 14 -13 -17 -6 -20 -20 -20 -20 -20 -20 -20
-20 -20 -20 -20 -20 4 -20 -20 -20 -11 11 -6 -20 -20 -20 -20 -20 -20 -20 -20 -20 -20 -20 -20 -20 -20 -17 -20 -20 -20 -3 -20 13 -3 -5 -8 -11 -20 -20 -20 -20 -20 -20 -20
-20 -20 -17 2 10 -20 -13 -16 -20 -20 -20 -20 -20 -20 -20 -20 -20 -20 -20 -5 3 12 2 -17 -17 -20 -20 -19 -20 -20 -16 16 13 11 8 13 -6 -20 -20 -20 -20 -20 -20 -20
-20 -10 17 13 -1 2 -15 -20 -20 -20 -20 -20 -20 -20 -20 -20 -9 -20 -19 -6 -4 11 6 -20 -20 -19 -17 -20 -20 -20 -20 -20 -12 -13 -15 -20 -20 -20 -20 -20 -20 -20 -20 -20
-5 3 4 -19 -20 -17 -20 -20 -20 -20 -20 -20 -20 -5 -20 -20 -20 -20 -9 17 -18 -15 -12 -20 -20 -20 -20 -20 -20 -20 -20 -20 -20 -20 -20 -20 -20 -20 -20 -20 -20 -20 -20 -20
-20 -10 -4 -20 -20 -20 -20 -20 -20 -20 -20 -20 -20 -20 -20 -20 -20 -20 -20 -20 -9 -19 -19 -20 -20 -20 -20 -20 -20 -20 -20 -20 -20 -20 -20 -20 -20 -20 -20 -20 -20 -20 -20 -20
-3 -11 -20 -20 -20 -20 -20 -20 -20 -20 -20 -20 -20 -20 -20 -20 -20 -20 -20 -10 -12 19 16 -20 -20 -20 -20 -20 -20 -20 -20 -20 -20 -20 -20 -20 -20 -20 -20 -20 -20 -20 -20 -20
-9 -3 -19 -20 -8 -20 -6 -10 -20 -20 -10 -20 -20 -20 -14 -20 -20 -17 -13 5 11 -20 -20 -20 -20 -20 -20 -20 -20 -20 -20 -20 -20 -20 -20 -20 -20 -20 -20 -20 -20 -20 -20 -20
1 -20 -20 -20 -20 -20 -20 -19 -5 -16 -1 -20 -20 -18 -20 -4 -19 -20 -20 -20 -20 -20 -20 -20 -20 -20 -20 -20 -20 -20 -20 -20 -20 -20 -20 -20 -20 -20 -20 -20 -20 -20 -20 -20

GFSNW_prec_radar_093.txt.gz
Reflectivity
14 3 3 -20 -20 -20 -20 -20 -20 -20 -13 0 -2 -10 -1 11 14 11 13 15 7 5 8 -1 -20 -20 -20 -20 -20 -20 -20 -20 -20 -20 -20 -20 -20 -17 -20 -3 14 -20 -9 -18
-20 -20 -20 -20 -20 -20 -20 -20 -20 -20 -20 2 -5 -4 8 12 7 8 2 1 2 -3 -20 -20 -20 -20 -20 -20 -20 -20 -20 -20 -20 -20 -20 -20 -20 -20 -20 -20 -13 -11 12 -14
-20 -20 -20 -20 -20 -20 -20 -20 -20 -19 -20 -15 -9 1 9 8 0 -1 -1 -6 -16 -20 -20 -20 -20 -20 -20 -20 -20 -20 -20 -20 -20 -20 -20 -20 -20 -20 -20 -20 -20 -20 -20 -20
-20 -20 -20 -20 -20 -20 -20 -20 -20 -20 -20 -20 -20 -4 -3 -20 -20 -20 -20 -20 -20 -20 -20 -20 -20 -20 -20 -20 -20 -20 -20 -20 -20 -20 -20 -20 -20 -20 -20 -20 -20 -20 -20 -20
-20 -20 -20 -20 -20 -20 -20 -20 -20 -20 -20 -20 -20 -20 -20 -20 -20 -20 -20 -20 -20 -20 -20 -20 -20 -20 -20 -20 -20 -20 -20 -20 -20 -20 -20 -20 -20 -20 -20 -20 -20 -20 -20 -20
-20 -20 -20 -20 -20 -20 -19 -20 -20 -20 -20 -20 -20 -20 -20 -20 -20 -20 -20 -20 -20 -20 -20 -20 -20 -20 -20 -20 -20 -20 -20 -20 -20 -20 -20 -20 -20 -11 -7 -17 -20 -7 -20 -20
-20 -20 -20 -20 -16 -19 -20 -20 -20 -20 -20 -20 -20 -20 -20 -20 -20 -20 -20 -20 -20 -20 -20 -20 -20 -20 -20 -20 -20 -20 -20 -20 -20 -20 -20 -20 -20 -17 32 13 -12 13 8 1
-20 -20 -20 -20 -20 -20 -20 -20 -20 -20 -20 -20 -20 -20 -20 -20 -20 -20 -20 -20 -20 -20 -20 -20 -20 -20 -20 -20 -20 -20 -20 -20 -20 -20 -20 -20 -20 4 25 23 15 13 30 16
-17 -20 -20 -20 -20 -20 -20 -20 -20 -20 -20 -20 -20 -20 -20 -20 -20 -20 -20 -20 -20 -20 -20 -20 -20 -20 -20 -20 -20 -20 -20 -15 3 12 -20 -20 -18 -14 -11 29 20 7 18 15
-20 -20 -20 -20 -20 -20 -20 -20 -20 -20 -20 -20 -20 -20 -20 -20 -20 -20 -20 -20 -20 -20 -20 -20 -20 -20 -20 -11 -20 5 -20 3 -18 -20 -18 -17 -6 -4 29 21 11 5 15 16
-20 -20 -20 -20 -20 -20 -20 -20 -20 -20 -20 -20 -20 -20 -20 -20 -20 -20 -20 -20 -20 -20 -20 -20 -20 -20 -20 -16 -9 1 14 -3 3 3 9 8 6 19 16 19 11 15 -1 4
-20 -20 -20 -20 -20 -20 -20 -20 -20 -20 -20 -20 -20 -20 -20 -20 -20 -20 -20 -20 -20 -20 -20 -20 -20 -20 -20 -20 -18 6 10 12 6 7 11 12 9 19 14 26 11 5 -1 -13
-20 -20 -20 -20 -20 -20 -20 -20 -20 -20 -20 -20 -20 -20 -20 -20 -20 -20 -20 -20 -20 -20 -20 -20 -20 -20 -20 -20 -20 -17 -17 5 13 3 -0 15 19 14 11 9 -17 -9 -0 -14
-20 -20 -20 -20 -20 -20 -20 -20 -20 -20 -20 -20 -20 -20 -20 -20 -20 -20 -20 -20 -20 -20 -20 -20 -20 -20 -20 -20 -5 -20 -12 -20 -20 -20 -2 3 12 19 -0 -16 -7 -7 -9 -20
-20 -20 -20 -20 -20 -20 -20 -20 -20 -20 -20 -20 -20 -20 -20 -20 -20 -20 -20 -20 -20 -20 -20 -20 -20 -20 -20 -17 -20 -20 -9 -4 -20 -20 -15 -20 0 -7 -6 -12 -13 -20 -20 -20
-19 -20 -20 -20 -20 -20 -20 -20 -20 -20 -20 -20 -20 -20 -20 -20 -20 -20 -20 -20 -20 -20 -20 -20 -20 -20 -20 -20 -20 -20 -20 -20 -15 -19 -11 -20 -20 -5 -3 3 1 -14 -20 -20
-12 -20 -20 -20 -20 -20 -20 -20 -17 -20 -20 -20 -20 -20 -20 -20 -20 -20 -20 -20 -20 -20 -20 -20 -20 -20 -20 -20 -20 -20 -20 -14 -20 -1 -20 -20 -5 1 6 -20 -20 -20 -19 -20
-20 -20 -20 -20 -20 -20 -20 -11 -20 -20 -20 -20 -20 -20 -20 -20 -20 -20 -20 -20 -20 -20 -20 -20 -20 -20 -20 -20 -20 -20 -20 -20 -20 -8 -20 -20 -20 -19 -20 -20 -20 -20 -20 -20
-20 -20 -20 -20 -20 -20 -20 -20 -20 -20 -20 -20 -20 -20 -20 -20 -20 -20 -20 -20 -20 -20 -20 -20 -20 -20 -0 -20 -20 -20 -20 -20 -20 -12 -14 -20 -20 -20 -20 -20 -20 -20 -20 -20
-20 -20 -20 -20 -20 5 -20 -20 -20 -20 -19 -20 -20 -20 -20 -20 -20 -20 -20 -20 -20 -20 -20 -20 -20 -20 -20 -20 -20 -20 -20 -20 -20 -20 -20 -20 -20 -20 -20 -20 -20 -20 -20 -20
-20 -20 -18 -18 -8 -14 -20 -20 -20 -20 -20 -20 -20 -20 -20 -20 -20 -20 -20 -20 -15 -19 -20 -20 -17 -20 -20 -19 -20 -20 -20 -20 -20 -20 -20 -20 -20 -20 -20 -20 -20 -20 -20 -20
-20 -17 5 -18 -18 -18 -20 -20 -20 -20 -20 -20 -20 -20 -20 -20 -20 -20 -20 8 3 4 14 -20 -16 -20 -20 -20 -20 -20 -20 -20 -20 -11 -20 -20 -20 -20 -20 -20 -20 -20 -20 -20
-6 -17 -11 -19 -20 -20 -20 -20 -20 -20 -20 -20 -20 -20 -20 -20 -20 -20 -20 16 -0 -12 21 -20 -20 -20 -20 -20 -20 -20 -20 -20 -20 -20 -20 -20 -20 -20 -20 -20 -20 -20 -20 -20
-20 -19 -20 -20 -20 -20 -20 -20 -20 -20 -20 -20 -20 -20 -20 -20 -20 -20 -20 -20 -20 -20 -20 -20 -20 -20 -20 -20 -20 -20 -20 -20 -20 -20 -20 -20 -20 -20 -20 -20 -20 -20 -20 -20
-20 -20 -20 -20 -20 -20 -20 -20 -20 -20 -20 -20 -20 -20 -20 -20 -20 -20 -20 -19 -15 11 -4 -20 -20 -20 -20 -20 -20 -20 -20 -20 -20 -20 -20 -20 -20 -20 -20 -20 -20 -20 -20 -20
-18 -14 -12 -20 -19 -14 -7 1 -20 -7 -20 -20 -20 -20 -20 -20 -20 -20 -16 -13 -20 -17 -20 -20 -20 -20 -20 -20 -20 -20 -20 -20 -20 -20 -20 -20 -20 -20 -20 -20 -20 -20 -20 -20
-20 -20 -20 -20 -20 -20 -20 1 1 -7 -8 -20 -20 -20 -20 -20 -20 -20 -20 -20 -20 -20 -20 -20 -20 -20 -20 -20 -20 -20 -20 -20 -20 -20 -20 -20 -20 -20 -20 -20 -20 -20 -20 -20

GFSNW_prec_radar_096.txt.gz
Reflectivity
16 9 -16 -20 -20 -17 -20 -20 -20 -11 -19 -6 16 7 5 9 -5 6 -3 19 20 11 0 -18 -20 -20 -15 9 10 1 -10 -20 -20 -16 -13 -8 -20 -8 -20 -20 -19 -20 -3 -19
19 7 -7 -20 -20 -20 -20 -20 -13 -15 -20 5 8 -6 -20 -8 4 6 7 11 12 13 -10 -20 -16 -6 -3 -1 -0 -18 -20 -20 -20 -20 -20 -13 -16 -20 -20 -20 -20 -20 -15 -20
-16 6 -20 -20 -20 -20 -20 -20 -20 -20 -4 -18 -20 -20 -12 1 9 12 -6 10 14 9 -0 -0 -5 -11 -20 -20 -20 -20 -20 -20 -20 -20 -20 -20 -20 -20 -20 -20 -20 -20 -20 -20
-20 -19 -20 -20 -20 -20 -4 -20 -20 -20 -20 -20 -20 -20 -20 -20 -8 -1 14 -2 -1 -3 -13 -20 -20 -20 -20 -20 -20 -20 -20 -20 -20 -20 -20 -20 -20 -20 -20 -20 -20 -20 -20 -20
-16 -20 -20 -20 -20 -20 -17 -20 -20 -17 -20 -16 -20 -20 -20 -20 -8 -20 -20 -19 -20 -20 -20 -20 -20 -20 -20 -20 -20 -20 -20 -20 -20 -20 -20 -20 -20 -20 -20 -20 -20 -20 -20 -20
-20 -20 -20 -20 -20 -18 1 -14 -20 -20 -20 -20 -20 -20 -20 -20 -20 -20 -20 -20 -20 -20 -20 -20 -20 -20 -20 -20 -20 -20 -20 -20 -20 -20 -20 -20 -20 -20 -20 -16 -20 -20 -20 -20
-20 -20 -20 -20 -14 -16 -13 -7 -11 -12 -20 -20 -20 -20 -20 -20 -20 -20 -20 -20 -20 -20 -20 -20 -20 -20 -20 -20 -20 -20 -20 -20 -20 -20 -20 -20 -20 -20 -20 -20 5 8 -14 -5
-20 -20 -20 -20 -20 -20 -13 -19 -20 -20 -20 -20 -20 -20 -20 -20 -20 -20 -20 -20 -20 -20 -20 -20 -20 -20 -20 -20 -20 -20 -20 -20 -20 -20 -20 -20 -20 -0 -18 -2 -19 12 -8 -2
-20 -20 -20 -19 -3 -20 -20 -20 -20 -20 -20 -20 -20 -20 -20 -20 -20 -20 -20 -20 -20 -20 -20 -20 -20 -20 -20 -20 -20 -20 -20 -20 -20 -5 -20 -20 -20 -20 -13 8 4 7 13 18
-20 -20 -7 -20 -20 -20 -20 -20 -20 -20 -20 -20 -20 -20 -20 -20 -20 -20 -20 -20 -20 -20 -20 -20 -20 -20 -20 -20 -20 -1 -20 0 -20 -20 -17 -20 -20 -18 -14 10 8 13 26 24
-20 -17 -20 -20 -20 -15 -20 -20 -20 -20 -20 -20 -20 -20 -20 -20 -20 -20 -20 -20 -20 -20 -20 -20 -20 -20 -20 -20 -20 -20 -9 -20 -13 -6 -20 -20 -20 -20 -8 11 13 21 24 21
-20 -20 -20 -7 -20 -20 -20 -20 -20 -20 -20 -20 -20 -20 -20 -20 -20 -20 -20 -20 -20 -20 -20 -20 -20 -20 -20 -20 -17 -20 -20 -14 -20 -20 -20 2 -3 9 14 12 17 20 18 18
-20 -20 -3 -20 -20 -20 -20 -20 -20 -20 -20 -20 -20 -20 -20 -20 -20 -20 -20 -20 -20 -20 -20 -20 -20 -20 -20 -20 -20 -20 -17 2 -18 -12 3 -7 -3 7 0 10 14 15 7 -14
-20 13 -19 -20 -20 -20 -20 -20 -20 -20 -20 -20 -20 -20 -20 -20 -20 -20 -20 -20 -20 -20 -20 -20 -20 -20 -20 -20 -20 -20 -13 -20 -20 -20 5 -19 2 -0 2 10 5 -18 -18 -20
-6 -15 -20 -20 -20 -20 -20 -20 -20 -20 -20 -20 -20 -20 -20 -20 -20 -20 -20 -20 -20 -20 -20 -20 -20 -20 -20 -18 -20 -20 -20 -20 -20 -20 -19 -8 -5 4 3 -16 -13 -19 -20 -20
-20 -20 -20 -20 -20 -20 -20 -20 -20 -20 -20 -20 -20 -20 -20 -20 -20 -20 -20 -20 -20 -20 -20 -20 -20 -20 -20 -20 -20 -20 -20 -11 -20 -20 -20 -17 -14 -20 -20 -20 -20 -20 -20 -20
-20 -20 -20 -20 -20 -20 -16 -14 -20 -20 -20 -20 -20 -20 -20 -20 -20 -20 -20 -20 -20 -20 -20 -20 -20 -20 -20 -20 -20 -20 -7 -20 -20 -20 -20 -20 -16 -18 -18 -20 -20 -20 -20 -20
-20 -20 -20 -20 -20 -20 -20 -20 -20 -20 -20 -20 -20 -20 -20 -20 -20 -11 -20 -20 -20 -20 -20 -20 -20 -20 -20 -20 -20 -20 -20 -20 -20 -5 -20 -20 -20 -20 -20 -20 -20 -20 -20 -20
-20 -20 -20 -20 -20 -20 -19 -20 -20 -20 -20 -20 -20 -20 -20 -20 -20 -20 -20 -20 -20 -20 -20 -20 -20 -20 -20 -20 -20 -20 -20 -20 0 -12 -20 -20 -20 -20 -20 -20 -20 -20 -20 -20
-20 -20 -20 -20 -20 -20 -20 -20 -20 -20 -20 -20 -20 -20 -20 -20 -20 -20 -20 -20 -20 -20 -20 -20 -20 -20 -20 -20 -20 -20 -20 -20 -20 -20 -20 -20 -20 -20 -20 -20 -20 -20 -20 -20
-20 -20 -19 -13 -20 -20 -20 -20 -20 -20 -20 -20 -20 -20 -20 -20 -20 -20 -20 -20 -20 -20 -10 -20 -20 -20 -20 -18 -20 -20 -20 -20 -20 -20 -20 -20 -20 -20 -20 -20 -20 -20 -20 -20
-20 -20 -20 -20 -16 -19 -20 -20 -20 -20 -20 -20 -20 -20 -20 -20 -20 -20 -20 -20 -6 -11 -20 -14 7 -20 -20 -20 -18 -20 -20 -20 -17 -20 -20 -20 -20 -20 -20 -20 -20 -20 -20 -20
-20 -20 -10 -17 -20 -19 -20 -20 -20 -20 -20 -20 -20 -20 -20 -20 -20 -20 -20 -13 15 -12 15 -20 -20 -20 -20 -20 -20 -20 -20 -20 -20 -20 -20 -20 -20 -20 -20 -20 -20 -20 -20 -20
-20 -20 -20 -20 -20 -20 -20 -20 -20 -20 -20 -20 -20 -20 -20 -20 -20 -20 -20 -20 -20 -20 -20 -20 -20 -20 -20 -20 -20 -20 -20 -20 -20 -20 -20 -20 -20 -20 -20 -20 -20 -20 -20 -20
-16 -18 -20 -20 -20 -20 -17 -20 -20 -20 -20 -20 -20 -20 -20 -20 -20 -20 -20 -20 -20 -20 -20 -20 -20 -20 -20 -20 -20 -20 -20 -20 -20 -20 -20 -20 -20 -20 -20 -20 -20 -20 -20 -20
-20 -20 -19 -20 -20 -20 -19 -18 -20 -20 -20 -20 -20 -20 -20 -20 -20 -20 -20 -20 -20 -20 -20 -20 -20 -20 -20 -20 -20 -20 -20 -20 -20 -20 -20 -20 -20 -20 -20 -20 -20 -20 -20 -20
-20 -20 -20 -18 -20 -20 -18 -19 -20 -15 -20 -20 -20 -20 -20 -20 -20 -20 -20 -20 -20 -20 -20 -20 -20 -20 -20 -20 -20 -20 -20 -20 -20 -20 -20 -20 -20 -20 -20 -20 -20 -20 -20 -20

GFSNW_prec_radar_099.txt.gz
Reflectivity
14 10 10 3 -20 0 -20 -20 -13 -3 23 6 23 -20 -20 -9 -16 -10 -20 -14 11 10 -3 -9 9 -2 14 13 17 5 1 -5 2 -7 -20 -20 -20 -20 -20 -20 -20 -20 -20 -20
19 2 5 -5 -1 -15 -20 -15 15 -9 3 -2 -20 -20 -20 -20 -20 -20 -2 2 12 -5 10 -5 -4 5 15 7 1 -6 -8 -20 -20 -20 -20 -20 -20 -20 -20 -20 -20 -20 -20 -20
13 4 4 -20 6 -20 -19 -20 1 22 -3 17 -12 -20 -20 -20 -20 -4 -3 -17 11 1 -8 -18 -20 -20 -5 4 -2 -13 -20 -20 -12 -9 -16 -20 -20 -20 -20 -20 -20 -20 -20 -20
14 -20 -8 -20 -20 -20 -14 -20 -20 -16 -20 -20 -20 -20 -20 -20 -19 -1 -20 -12 -6 4 -12 1 -9 -20 -20 -20 -20 -20 -20 -19 -19 -20 -20 -20 -20 -20 -20 -20 -20 -20 -20 -20
-20 -20 -1 -20 -20 -20 -19 -20 -20 -20 -20 -16 -20 -20 -20 -20 -20 -11 -4 -20 -15 -17 -10 -20 -20 -20 -20 -20 -20 -20 -20 -20 -20 -20 -20 -20 -20 -20 -20 -20 -20 -20 -20 -20
-13 -20 -19 -20 -20 -20 2 -20 -20 -20 -20 -20 -17 -20 -20 -20 6 -3 -20 -20 -20 -20 -20 -20 -20 -20 -20 -20 -20 -20 -20 -20 -20 -20 -20 -20 -20 -20 -20 -20 -20 -13 -1 -16
12 -18 -5 -20 -20 -20 -7 -20 -20 -20 -20 -20 -20 -20 -13 -20 -20 -20 -20 -20 -20 -20 -20 -20 -20 -20 -20 -20 -20 -20 -20 -20 -20 -20 -20 -20 -11 -20 -15 -15 4 -20 -12 5
-20 -18 -5 -20 -20 17 -6 -20 -20 -20 -20 -20 -20 -20 -20 -20 -20 -20 -20 -20 -20 -20 -20 -20 -20 -20 -20 -20 -20 -20 -20 -20 -20 -20 -20 -20 -1 -18 -15 -0 -2 -17 -18 9
-20 -15 -20 -20 -20 -18 -20 8 -17 -20 -20 -20 -20 -20 -20 -20 -20 -20 -20 -20 -20 -20 -20 -20 -20 -20 -20 -20 -20 -20 -20 -20 -20 -6 -20 -20 -20 -20 -20 -3 -17 -20 -19 -13
-20 -20 -20 -20 -19 -3 -7 -20 -20 -20 -20 -20 -20 -20 -20 -20 -20 -20 -20 -20 -20 -20 -20 -20 -20 -20 -20 -20 -20 -3 -20 -9 -20 -20 -20 -20 -20 -20 -20 -6 -9 -3 -6 10
-20 -20 -20 -19 -8 -20 -20 -14 -20 -20 -20 -20 -20 -20 -20 -20 -20 -20 -20 -20 -20 -20 -20 -20 -20 -20 -20 -20 -20 6 -12 -11 -19 -7 -11 -20 -20 -20 -20 -14 4 6 18 19
-20 -18 -15 -20 -20 -20 -10 -20 -20 -20 -20 -20 -20 -20 -20 -20 -20 -20 -20 -20 -20 -20 -20 -20 -20 -20 -20 -20 -17 -20 -20 -20 -20 -20 -20 2 -5 -4 -3 1 5 17 18 20
-17 -20 -20 -20 -13 -14 -20 -20 -20 -20 -20 -20 -20 -20 -20 -20 -20 -20 -20 -20 -20 -20 -20 -20 -20 -20 -20 -20 -20 -20 -14 -20 -19 -17 3 -9 -0 0 -3 8 8 6 13 14
-20 -20 2 3 -20 -20 -20 -20 -20 -20 -20 -20 -20 -20 -20 -20 -20 -20 -20 -20 -20 -20 -20 -20 -20 -20 -20 -20 -20 -20 -20 -20 -11 -19 -3 -5 -5 -1 -1 9 6 12 16 10
-20 4 -13 -20 -20 -20 -20 -20 -20 -20 -20 -20 -20 -20 -20 -20 -20 -20 -20 -20 -20 -20 -20 -20 -20 -20 -20 -20 -20 -20 -20 -20 -20 -20 -12 -20 2 6 4 10 16 10 -15 -20
2 -20 -20 -20 -20 -20 -20 -20 -20 -20 -20 -20 -20 -20 -20 -20 -20 -20 -20 -20 -20 -20 -20 -20 -20 -20 -20 -20 -20 -20 -18 -19 -20 -19 -20 -20 -19 2 -9 -19 -20 -20 -20 -20
-4 -20 -20 -20 -20 -20 -16 -20 -20 -20 -20 -20 -20 -20 -20 -20 -20 -20 -20 -20 -20 -20 -20 -20 -20 -20 -20 -20 -20 -20 -11 -20 -20 -20 -20 -18 -12 -20 -20 -20 -20 -20 -20 -20
2 -20 -20 -20 -20 -20 -20 -20 -20 -20 -20 -20 -20 -20 -20 -20 -20 -20 -20 -20 -20 -20 -20 -20 -20 -20 -20 -20 -20 -8 -20 -6 -16 -20 -20 -20 -20 -20 -20 -20 -20 -20 -20 -20
-14 -20 -20 -20 -20 -20 -20 -20 -20 -20 -20 -20 -20 -20 -20 -20 -20 -20 -20 -20 -20 -20 -20 -20 -20 -20 -20 -20 -20 -20 -20 -20 -14 -20 -20 -20 -20 -20 -20 -20 -20 -20 -20 -20
-20 -20 -20 -20 -20 -16 -20 -20 -20 -20 -20 -20 -20 -20 -20 -20 -20 -20 -20 -20 -20 -20 -20 -20 -20 -20 -20 -20 -20 -20 -20 -20 -20 -20 -2 -15 -20 -20 -20 -20 -20 -20 -20 -20
-20 -20 -20 -20 -20 -20 -20 -20 -20 -20 -20 -20 -20 -20 -20 -20 -20 -20 -20 -20 -20 -20 -20 -20 -20 -20 -20 -20 -20 -19 -19 -20 -20 -20 -20 -20 -20 -20 -20 -20 -20 -20 -20 -20
-20 -15 -18 -20 -20 -20 -20 -20 -15 -20 -20 -20 -20 -20 -20 -20 -20 -20 -20 -20 -20 -18 -20 -16 -18 -19 -18 -20 -19 -18 -20 -20 -20 -20 -20 -20 -20 -20 -20 -20 -20 -20 -20 -20
-20 -20 -20 -20 -20 -20 -20 -20 -20 -20 -20 -20 -20 -20 -20 -20 -20 -20 -20 -20 4 -3 14 -17 -8 -17 -19 -20 -20 -20 -20 -20 -20 -20 -19 -20 -20 -20 -20 -20 -20 -20 -20 -20
-20 -20 -20 -20 -20 -20 -20 -20 -20 -20 -20 -20 -20 -20 -20 -20 -20 -20 -20 -20 -20 -20 -20 -10 -20 -20 -20 -20 -20 -20 -20 -20 -9 -20 -20 -20 -20 -20 -20 -20 -20 -20 -20 -20
-20 -20 -20 -20 -20 -14 -17 -17 -20 -20 -20 -20 -20 -20 -20 -20 -20 -20 -20 -20 -20 -20 -20 -20 -20 -20 -20 -20 -20 -20 -20 -20 -20 -20 -20 -20 -20 -20 -20 -20 -20 -20 -20 -20
-20 -20 -20 -20 -20 -19 -20 -20 -20 -20 -20 -20 -20 -20 -20 -20 -20 -20 -20 -20 -20 -20 -20 -20 -20 -20 -20 -20 -20 -20 -20 -20 -20 -20 -20 -20 -20 -20 -20 -20 -20 -20 -20 -20
-20 -20 -19 -20 -20 -20 -20 -20 -20 -20 -20 -20 -20 -20 -20 -20 -13 -20 -20 -20 -20 -20 -20 -20 -20 -20 -20 -20 -20 -20 -20 -20 -20 -20 -20 -20 -20 -20 -20 -20 -20 -20 -20 -20

GFSNW_prec_radar_102.txt.gz
Reflectivity
-20 -18 4 15 12 -18 -16 -16 -12 14 23 26 23 8 -20 -20 -20 -20 -20 -20 -20 -20 -8 18 -20 -20 -20 -20 -20 -4 12 -13 -9 -2 -20 -19 -20 -20 -20 -20 -20 -20 -19 -20
18 -5 12 5 9 -20 -20 12 4 6 23 15 10 4 -20 -20 -18 -12 8 -20 -20 -20 -9 -20 -20 7 18 -9 18 22 -8 -20 -18 -20 -20 -20 -20 -20 -20 -20 -20 -20 -20 -20
14 8 -16 -4 -6 7 7 2 5 25 29 14 11 4 0 -4 -20 -18 -20 8 -19 -18 -3 -19 -20 -20 -10 -4 -16 8 -4 -20 -20 -20 -20 -20 -16 -20 -20 -20 -20 -20 -20 -20
14 8 -20 -20 17 -9 -1 -20 10 -20 7 12 10 -7 1 8 -4 -1 -20 -20 -20 16 -1 -20 -20 -20 -19 -12 8 -20 -20 -20 -20 -20 -20 -20 -20 -20 -20 -20 -20 -20 -20 -20
20 13 5 -20 16 -2 2 17 -20 -20 -20 -20 9 11 -20 9 -6 -20 -20 -20 -20 4 -16 -11 -17 -20 -15 -20 -20 -20 -20 -20 -20 -20 -20 -20 -20 -20 -20 -20 -20 -20 -20 -20
21 8 3 -18 21 2 0 -20 -20 -20 -18 -15 12 1 -14 1 -20 -20 8 -20 -20 -20 -20 -20 -20 -20 -20 -20 -20 -20 -20 -20 -20 -20 -20 -20 -20 -20 -20 -20 -20 -4 -8 -1
12 6 7 -20 -8 4 20 -13 -20 -20 -2 -20 -14 -20 -17 -20 -19 -13 -19 -20 -20 -20 -20 -20 -20 -20 -20 -20 -20 -20 -20 -20 -20 -20 -20 -20 -4 -10 -4 -20 -20 -11 -20 -16
12 3 -20 -20 -4 -9 20 -18 -20 -20 -18 -20 -20 -20 -20 -20 -20 -20 -20 -20 -20 -20 -20 -20 -20 -20 -20 -3 -20 -20 -20 -20 -20 -20 -20 -20 -17 -9 -20 -4 -4 -7 -15 -14
14 8 -2 -20 -2 -19 23 -13 -13 -17 -16 -20 -19 -20 -20 -20 -20 -20 -20 -20 -20 -20 -20 -20 -20 -20 -20 1 2 -20 -20 -20 -20 -3 4 0 6 -20 -20 2 6 -20 -4 -3
-20 -16 -10 -20 -1 -12 27 -14 -7 -20 -20 -18 -20 -20 -20 -20 -20 -20 -20 -20 -20 -20 -20 -20 -20 -20 -20 -6 7 8 -1 -10 4 6 8 7 -20 -20 -20 9 6 -7 -4 -1
-20 -17 -20 -18 12 -6 8 -4 -20 -20 -20 -20 -20 -20 -20 -20 -20 -20 -20 -20 -20 -20 -20 -20 -20 -1 2 -9 -9 13 8 7 3 5 6 11 -20 -19 -6 2 4 -1 -3 3
-20 -18 -20 -20 -20 9 -12 -14 -9 -20 -20 -20 -20 -20 -20 -20 -20 -20 -20 -20 -20 -20 -20 -20 -20 -20 -4 0 6 -3 5 -10 12 -11 5 -12 -4 -1 -2 3 3 4 9 14
-20 -14 -7 -3 -5 -20 -1 -20 -13 -20 -20 -20 -20 -20 -20 -20 -20 -20 -20 -20 -20 -20 -20 -20 -20 -4 -16 7 4 -4 -20 -4 2 -14 4 1 -0 -3 -1 2 -3 10 5 3
-20 -8 -12 -20 -20 -8 -13 -20 -20 -20 -20 -20 -20 -20 -20 -20 -20 -20 -20 -20 -20 -20 -20 -20 -20 -20 -17 -6 -8 -5 -17 -10 -13 3 4 -1 1 2 -2 -3 -4 5 10 0
-13 -18 -20 -15 8 -7 -20 -20 -20 -20 -20 -20 -20 -20 -20 -20 -20 -20 -20 -20 -20 -20 -20 -20 -20 -20 -6 -0 -13 -16 -20 -18 -1 -7 -9 2 2 3 2 -1 -3 -4 -20 -20
-19 -9 -19 -19 -20 -20 -20 22 -20 -20 -20 -20 -20 -20 -20 -20 -20 -20 -20 -20 -20 -20 -20 -20 -20 -20 -15 1 1 -12 -20 -20 -20 -7 2 -20 1 0 -2 -20 -13 -19 -20 -20
-3 -20 -20 -16 -20 -20 -20 -20 -20 -20 -20 -20 -20 -20 -20 -20 -20 -20 -20 -20 -20 -20 -20 -20 -20 -20 -17 -0 -1 -20 -9 -1 -14 -20 -20 -2 -13 -17 -20 -20 -20 -18 -20 -20
-20 -20 -20 -20 -20 -20 -20 -20 -20 -20 -20 -20 -20 1 -20 -20 -20 -12 -20 -20 -20 -19 -20 -20 -20 -20 -8 -20 -20 -10 -6 -20 -1 2 -7 -20 -20 -20 -20 -20 -20 -20 -20 -20
-20 -20 -20 -20 -20 -20 -20 -20 -20 -20 -20 -20 -20 -20 4 -20 -15 -10 -5 -16 -11 -17 1 -20 -20 2 -8 -17 -17 -20 -11 -8 -10 -6 -20 -20 -20 -20 -20 -20 -20 -20 -20 -20
-20 -20 -20 -20 -20 -20 -20 -20 -20 -20 -20 -20 -20 -20 1 -12 -8 -15 -1 -13 2 2 0 -19 1 4 -20 -20 -20 -3 -15 1 -15 -5 -15 -20 -20 -20 -20 -20 -20 -20 -20 -20
-20 -20 -6 -20 -20 -20 -20 -20 -20 -20 -20 -20 -20 -13 -9 -20 5 4 -19 -5 -2 -13 9 2 9 -1 -15 -20 -17 -20 -3 -1 -1 -5 -15 -20 -20 -20 -20 -20 -20 -20 -20 -20
-20 -20 -20 -20 -20 -20 -20 -20 -20 -20 -20 -20 -3 -3 5 -12 -20 -12 -20 -9 -13 14 -19 6 9 12 -1 -4 -12 -0 -17 -18 -20 -20 -20 -20 -20 -20 -20 -20 -20 -20 -20 -20
-20 -20 -20 -20 -20 -20 -20 -20 -15 -1 -6 -8 -20 -16 -20 -20 -10 -1 -4 -14 16 -17 12 19 5 -16 -18 -19 -20 -20 -20 -20 -20 -20 -20 -20 -20 -20 -20 -20 -20 -20 -20 -20
-20 -20 -20 -20 -20 -19 -15 -2 1 0 -2 -20 -20 -20 14 -20 -9 -20 -4 -18 -20 2 9 20 -19 -20 -20 -19 -19 -20 -20 -20 -20 -20 -20 -20 -20 -20 -20 -20 -20 -20 -20 -20
-20 -20 -3 4 -4 -8 1 -1 5 -20 -20 -20 -20 -20 -2 -20 -20 -19 -20 -7 0 8 14 -13 -20 -20 -20 -20 -20 -20 -20 -20 -20 -20 -20 -20 -20 -20 -20 -20 -20 -20 -20 -20
-20 -13 8 -14 13 15 14 12 5 2 -14 -17 -20 -20 -20 -20 -15 -16 -14 2 7 4 -2 -16 -5 -9 -20 -20 -20 -20 -20 -20 -20 -20 -20 -20 -20 -20 -20 -20 -20 -20 -20 -20
-14 10 -17 1 2 6 0 13 1 -19 5 -2 -20 -20 -20 -3 -14 -20 -5 1 0 -20 -18 -15 -20 -20 -20 -20 -20 -20 -20 -20 -20 -20 -20 -20 -20 -20 -20 -20 -20 -20 -20 -20

GFSNW_prec_radar_105.txt.gz
Reflectivity
33 15 -20 -20 7 6 -18 16 19 10 17 29 21 -1 -19 -20 -20 -20 -20 -20 -20 -5 1 -8 1 2 -1 -20 -20 -20 -20 3 19 -16 -20 -9 -4 -12 7 6 9 27 -2 13
37 19 -20 -20 16 -7 18 20 17 24 21 12 7 -10 -5 -20 -20 -20 -15 5 -18 -20 6 -0 -12 -3 -16 -20 -20 -5 -17 -13 9 -15 -16 -20 -20 -20 -20 -20 -20 -20 6 10
38 39 8 -19 23 18 25 22 15 32 33 5 10 -0 5 -1 -20 -20 -6 7 -15 1 8 -20 15 5 -20 -20 -20 -20 -20 -20 -6 11 14 -1 -20 -20 -20 -20 -20 -20 -20 -20
26 40 17 10 -20 21 26 21 13 -14 10 -0 6 12 -17 5 6 -20 -20 14 13 12 11 4 4 -18 -20 -14 -8 -5 -8 -12 -20 -20 -20 -20 -20 -20 -20 -20 -20 -20 -20 -18
26 36 16 -10 14 22 20 18 7 1 5 -0 7 14 14 7 8 -1 9 8 15 18 13 2 -19 -20 -20 -20 -9 -1 -20 -20 -16 -20 -20 -20 -20 -20 -20 -20 -20 -20 -20 -20
33 44 20 -20 5 23 10 3 1 4 3 7 14 15 -2 11 10 -17 7 11 6 14 -8 -20 -4 -15 -20 -20 -20 -20 -20 -20 -20 -20 -20 -20 -20 -20 -20 -20 -20 -20 -15 -7
18 36 -19 -20 8 17 16 20 22 16 12 6 -8 8 10 10 16 -14 -20 5 -11 -5 -20 -19 -16 -20 -20 -20 -20 -20 -20 -20 -20 -20 -20 -20 -20 -20 -20 -20 -20 -20 -20 -20
21 34 1 -20 -10 23 20 27 18 21 25 -18 12 12 -12 17 10 9 -20 -20 -20 -20 -20 -20 -20 -20 -20 -20 -20 -20 -20 -20 -20 -20 -20 -4 -20 -12 -17 -19 1 -20 -19 -20
33 27 10 7 12 25 17 -5 22 18 25 7 -2 -4 14 13 3 -18 -20 -20 -20 -20 -20 -20 -20 -20 -20 -20 -11 -20 -20 -20 -20 -3 7 5 -2 -20 -20 -6 -17 -16 -6 -19
32 8 -20 -19 -3 8 20 2 19 7 27 -20 -13 15 -6 5 -16 3 -20 -20 -20 -20 -20 3 1 -12 -20 -6 2 3 -1 2 6 4 6 1 -6 -20 -20 4 6 -8 -10 -20
-3 -20 -20 -20 10 7 7 28 -15 10 24 -20 -18 -20 -18 -20 -20 3 -20 -20 -20 -20 -19 -3 -16 4 -7 6 -8 7 0 3 -3 7 11 17 -20 -20 -1 -3 -5 -20 -5 3
-20 -20 -20 -10 1 15 21 29 -2 -20 11 -20 -10 -20 -20 -20 -20 -20 -20 -20 -20 -20 -4 -20 -20 6 -11 -4 5 -20 5 -0 22 -1 7 -18 -7 -20 -19 -20 -5 2 -1 1
-19 -14 -14 17 21 18 9 18 -16 7 -18 -8 -20 -20 -20 -20 -20 -20 -20 -20 -20 -20 -20 9 6 14 -15 5 -18 -16 -5 -17 2 -14 -3 -18 -15 -11 -2 -4 -4 -2 -2 -4
-3 15 -1 18 2 2 -14 6 -0 -4 -2 6 -20 -20 -20 -20 -20 -20 -20 -20 -20 -20 -20 -20 14 7 -13 17 -8 21 -4 -1 -10 -4 -15 -9 -20 -12 -7 -6 -2 -2 -2 -5
-2 -19 -15 -2 -4 -20 -10 13 -19 -19 -4 -20 -20 -20 -20 -20 -20 -20 -20 -20 -20 -20 -20 -20 9 -11 -9 -8 -0 -8 -16 -6 -10 12 -20 -8 -20 -8 -8 -3 -4 -14 -20 -15
21 -14 -20 -20 -15 -16 3 20 -20 -20 -20 -20 2 -20 -20 -20 -20 -20 -20 -20 -20 -20 -20 -20 -20 -20 -16 6 6 -20 -20 -20 -20 -20 -20 -20 -20 -18 -6 -3 -4 -20 -20 -20
-19 -20 -20 9 -20 -20 12 2 -20 -20 -20 -20 -20 -20 -20 -20 -20 -20 -20 -20 -20 -20 -20 -20 -20 -20 -16 2 9 -20 -8 -20 -20 -20 -20 -10 -18 -7 -20 -20 -20 -20 -20 -20
-7 -20 -17 -20 -20 -20 -6 -15 -20 -20 1 -20 -20 3 -20 -20 -20 -9 -20 -20 -20 -20 -20 -20 -20 -20 -20 0 -18 -20 -10 -17 -12 -13 -11 -20 -20 -20 -20 -20 -20 -20 -20 -20
-20 -20 -20 -20 -20 -20 -20 -20 -20 -20 -20 -20 -20 -19 4 -20 -8 -6 -20 -20 -15 -20 -1 -2 -20 7 -2 3 -20 -20 -18 -10 -20 -20 -20 -20 -20 -20 -20 -20 -20 -20 -20 -20
-20 -20 -20 -20 -20 -20 -20 -20 -20 -20 -20 -20 0 -20 -6 -20 2 2 1 -20 3 6 4 -19 -9 6 -20 -20 -20 -20 -17 -20 -20 -20 -9 -20 -20 -20 -20 -20 -20 -20 -20 -20
-20 -20 -17 -20 -20 -20 -20 -20 -20 -20 -20 -20 -8 -3 1 -8 5 3 -19 4 5 8 10 5 11 7 -12 -20 -20 -5 -20 -20 -20 -2 -20 -20 -20 -20 -20 -20 -20 -20 -20 -20
-20 -20 -20 -20 -20 -20 -20 -20 -20 -20 -20 -20 -3 5 4 4 -20 7 -19 3 -1 15 10 9 2 0 -20 -20 -18 -20 -20 -20 -20 -11 -11 -8 -20 -20 -20 -20 -20 -20 -20 -20
-20 -20 -20 -20 -20 -20 -20 -20 -20 -3 0 -16 2 -11 3 -20 5 0 -4 -13 18 6 13 22 8 -19 -20 -7 -2 -19 -20 -20 -9 -3 -20 -20 -20 -20 -20 -20 -20 -20 -20 -20
-20 -20 -20 -20 -20 -18 -15 -0 -2 -3 -6 6 -5 0 8 8 6 4 2 5 -8 5 17 24 -5 -18 -20 -18 -13 -4 -20 -19 -4 -19 -20 -20 -20 -20 -20 -20 -20 -20 -20 -20
-15 -20 -4 4 2 9 8 -8 -3 -18 6 8 7 -16 10 5 -11 -14 -7 -4 -5 9 24 -3 -20 -20 -15 -9 -18 -20 -20 -20 -20 -20 -20 -20 -20 -20 -20 -20 -20 -20 -20 -20
-4 -3 10 12 12 14 13 13 4 -14 -0 14 7 -13 8 -2 2 -3 -2 10 15 17 -10 -20 -20 -12 -20 -4 1 -11 -9 -5 -16 -20 -20 -20 -20 -20 -20 -20 -20 -20 -20 -20
10 12 3 19 12 14 -1 19 12 -6 14 4 1 -13 2 -6 -2 1 -0 9 3 -6 -20 -20 -20 -19 -4 -12 -19 -7 -9 -20 -20 -20 -20 -20 -20 -20 -20 -20 -20 -20 -20 -20

GFSNW_prec_radar_108.txt.gz
Reflectivity
-20 -19 -19 26 20 3 21 27 34 0 18 25 38 5 1 -1 26 5 -20 -20 -20 -20 -20 -11 -20 4 28 -11 8 -12 -7 -20 9 -20 6 -20 -20 -17 18 27 29 24 6 -13
-7 -20 -20 37 26 4 -20 24 26 10 22 19 -9 -16 -0 -2 -18 4 -20 -20 -20 -20 -20 1 -20 16 -20 5 -6 3 -2 -13 -10 -12 -4 -20 -20 -20 -0 -0 -19 -19 -19 5
7 -13 -20 30 40 -1 -18 35 15 28 36 15 2 -2 -9 9 -20 -20 -20 -20 -20 -20 3 -20 7 12 -20 -20 13 -19 -20 -20 -20 11 -11 -13 -20 -20 -4 -20 -20 -20 -9 15
-20 -20 20 18 41 -9 6 24 37 -14 7 -5 0 21 -20 1 -4 -20 -20 3 9 -12 5 -2 2 14 3 -20 -14 -2 -19 -20 -2 9 -20 -20 -20 -20 -20 -20 -20 -20 -20 8
20 -20 6 29 39 28 20 25 35 20 13 -20 3 0 14 9 -9 -12 -20 9 10 -20 6 10 5 16 -0 -20 -20 -20 -20 -20 -2 -20 -20 -20 -20 -20 -20 -20 -20 -20 -20 -16
-11 5 10 29 37 31 31 2 -5 27 15 31 8 -20 -2 15 5 2 -8 1 7 12 12 -4 -20 16 -20 -20 -20 2 -10 -16 -18 -20 -11 -17 -19 -20 -20 -20 -20 -20 -17 -20
-20 17 6 30 35 9 -20 15 22 18 -0 16 13 -14 -20 -11 14 7 16 -20 7 16 -4 -16 -20 -20 -20 -20 -7 -6 -20 -20 -20 -20 -20 -20 -20 -20 -20 -20 -20 -20 -20 -20
8 -18 3 33 26 5 10 19 25 18 23 -14 16 11 3 17 25 5 13 -20 -9 -18 -20 -20 -9 -20 -20 -20 -18 -20 -20 -20 -20 -20 -20 -8 -20 -20 -20 -20 -6 -20 -20 -20
15 4 36 35 14 14 25 17 29 11 11 -2 21 18 7 30 25 25 -4 -20 -20 -20 -20 -2 -14 -20 -19 -20 -20 -20 -20 -20 -20 -20 -15 -2 -11 -20 -20 -20 -5 -20 -20 -20
-19 12 30 12 -3 6 23 34 16 21 37 7 17 16 33 11 22 2 -20 -20 -20 -20 -20 13 3 -6 -1 -19 -20 -20 -20 -17 -20 -4 -2 -6 -20 -20 -20 -15 -2 -20 -20 -13
12 27 24 3 -18 18 24 24 14 29 38 8 32 13 34 19 -16 -20 -20 -20 -20 -20 -14 -9 11 14 -20 -10 -9 -20 -14 -4 -20 -9 4 9 -20 -20 -18 -8 -20 -20 -20 1
18 26 22 2 -20 6 15 20 12 26 33 -6 -6 8 -19 -19 12 23 -20 -19 -20 -20 -20 -20 -20 -16 -20 -4 8 1 7 -18 24 -19 -0 -20 -20 -6 -20 1 -20 -14 -20 -20
-0 5 8 4 -17 -8 -10 29 15 19 2 -11 -1 -0 -7 -10 -20 -2 -13 -20 -20 -20 -20 19 9 10 -17 -10 9 -20 -20 -20 -20 -20 -20 -20 -20 -20 -20 -20 -20 -20 -4 -16
-20 -20 -20 11 5 21 27 26 5 10 22 21 -16 -20 -20 -20 -20 -20 -20 -20 -20 -20 -20 3 7 16 -11 6 -15 2 -15 -20 -18 -3 -20 -20 -20 -13 -16 -20 -20 -20 -20 -20
-3 8 -13 7 29 11 28 11 21 27 15 -8 -10 -19 -20 -20 -20 -20 -20 -20 -20 -20 -20 3 20 -8 -20 -3 2 -3 -7 -20 -4 6 -20 -15 -17 -20 -11 -20 -15 -20 -20 -20
-0 -20 -8 8 -16 -6 34 31 17 16 -10 -19 3 -20 -20 -20 -20 -20 -20 -20 -20 -20 -20 -20 -19 -20 -20 2 2 -20 -20 -20 -20 -20 -20 -20 -20 -20 -20 -20 -20 -20 -20 -20
1 9 -20 -13 -20 23 -1 5 -20 -20 -20 4 -20 -20 -20 -20 -20 -20 -20 -20 -20 -20 -20 -20 -20 -20 -16 15 14 -20 -20 -20 -20 -20 -20 -20 -20 -14 -20 -20 -20 -20 -20 -20
-20 -20 -20 -14 4 19 -15 -20 -19 -8 -20 2 -10 5 -20 -20 -20 -19 -20 -20 -20 -20 -20 -20 -20 -20 -20 5 -20 -20 -20 -20 -20 -20 -20 -20 -20 -20 -20 -20 -20 -20 -20 -20
-20 -5 11 -5 9 8 -4 -20 -20 -20 -20 7 -14 -19 -5 -20 -6 -19 -20 -20 -14 -20 -5 -20 -20 11 -17 -6 -20 -20 -20 -20 -20 -20 -20 -20 -20 -20 -20 -20 -20 -20 -20 -20
-20 -16 17 18 -20 -8 -20 -20 25 -19 -20 -20 -7 -12 -20 -20 -9 -16 -5 -20 8 4 -18 -20 -20 9 -20 -20 -20 -20 -20 -20 -20 -20 -20 -20 -20 -20 -20 -20 -20 -20 -20 -20
-20 -8 2 -20 -20 -20 -20 -1 -10 -20 -20 -20 3 -20 -18 -20 -5 -15 -18 -3 -5 2 8 -12 5 -6 -20 -20 -20 -20 -20 -20 -20 -20 -20 -20 -20 -20 -20 -20 -20 -20 -20 -20
-20 -20 -20 -20 -20 -20 -20 -20 -20 -16 -20 -20 1 2 -9 1 -20 -4 -20 -7 -13 9 0 10 1 -18 -20 -7 -20 -17 -20 -10 -20 -20 -20 -20 -20 -20 -10 -20 -20 -20 -20 -20
-20 -15 -17 -20 -20 -8 -20 -20 -20 1 -20 -2 3 4 -20 -1 -5 -19 -8 -18 7 -1 4 2 -10 -20 -20 -7 -17 -19 0 -20 -20 -20 -20 -20 -20 -20 -20 -20 -20 -20 -20 -20
-3 -20 -20 11 -11 -11 7 21 -19 -20 -20 10 -17 -18 14 9 -20 2 1 4 -5 2 13 20 -20 -20 -6 -12 -17 -20 -11 -10 -20 -20 -20 -20 -20 -20 -20 -20 -20 -20 -20 -20
-5 -20 2 5 -9 3 4 -7 -10 -19 11 -20 -20 -8 -10 -8 -18 -17 -8 -9 -7 -2 20 2 -20 -20 -20 -10 -10 -18 -20 -20 -20 -20 -20 -20 -20 -20 -20 -20 -20 -20 -20 -20
-19 -2 9 12 9 12 11 -15 -11 -13 11 17 -9 -10 -7 -11 -4 -2 -6 9 16 2 3 -8 -20 -20 -20 -19 -20 -20 -20 -20 -20 -20 -20 -20 -20 -20 -15 -18 -20 -20 -20 -20
8 2 13 21 -6 3 16 11 -16 -20 20 14 4 -9 -2 -1 2 8 3 8 -1 9 -6 -10 -20 -20 -9 7 3 -3 -11 -20 -19 -20 -20 -20 -20 -20 -20 -20 -20 -20 -20 -20

GFSNW_prec_radar_111.txt.gz
Reflectivity
-20 -0 20 -16 19 26 30 15 23 -20 5 21 35 26 25 -11 -20 -20 -20 1 -20 -20 -17 -20 -8 -11 -20 -20 -20 31 13 3 3 -20 -20 -20 4 -6 1 12 21 12 29 23
-19 16 -14 -20 19 24 8 26 20 17 10 21 3 15 -18 12 -12 5 27 7 -20 -20 -20 -18 -20 -20 -20 -20 -14 33 24 23 19 -16 -20 -20 -20 -18 -20 -3 4 -10 -1 4
-13 3 15 -20 -20 -1 33 29 22 24 29 28 13 -12 -8 21 -1 -6 -14 -18 1 -18 -18 -20 -20 -20 -20 -20 -20 4 -6 -13 -20 -20 -20 -20 -20 -18 -20 -15 -19 -20 -9 9
-18 -4 -10 1 -20 18 34 40 21 -20 -9 -8 10 14 -1 -19 15 12 -20 -11 -20 -20 -20 -20 -20 6 -20 -20 -20 3 18 -0 -0 -20 -20 -20 -2 -20 -3 1 -19 -20 -19 -18
-20 -20 -20 -17 -20 24 28 33 15 12 -20 -20 -20 -3 32 -12 -20 25 9 -6 -20 -20 -20 -20 -20 -17 26 -20 -20 -12 4 9 4 -20 -20 -20 -20 -20 -20 -20 -20 -20 -20 -20
-20 -20 -20 18 15 25 36 34 -20 13 25 13 3 -20 -20 -20 8 -20 -20 -20 -17 -0 -20 1 -20 -20 -20 -2 -20 -20 -20 1 -19 -20 -15 3 -20 -20 -20 -20 -20 -20 -20 -20
-4 -2 21 4 16 22 18 21 -15 10 9 40 4 -3 -20 -20 10 26 -12 -6 -20 -6 -17 7 5 -19 2 -8 -20 -20 -18 -11 4 1 -20 -20 -20 -20 -20 -20 -20 -20 -20 -20
-12 5 12 19 19 19 34 29 13 22 14 -12 12 -13 -20 -20 13 18 24 15 -20 16 -19 -11 -4 -13 -20 -15 -20 -20 -5 -3 -20 -20 -20 -13 -20 -20 -20 -20 -20 -20 -20 -20
14 -11 -13 16 5 27 28 7 -20 15 -3 -20 -13 16 21 17 25 29 36 -1 -10 8 -18 -16 -19 -20 -20 -20 -20 -19 -20 -20 -20 -20 -20 -20 -20 -20 -20 -20 -20 -20 -20 -20
8 18 20 7 1 24 30 8 -15 23 13 -20 -10 -13 22 14 10 29 23 6 -17 -16 -20 -20 -20 -20 -20 -20 -20 -20 -20 -20 -20 -20 -18 -20 -20 -20 -20 -20 -20 -20 -20 -20
7 12 11 27 29 22 24 -3 20 1 23 36 33 -20 -19 2 21 23 -1 -20 -20 -20 -20 -20 3 9 -14 -20 -20 -20 -20 -20 -20 -20 -20 -3 -20 -20 -20 -20 -20 -20 -20 -20
-19 11 23 37 28 16 -20 11 22 9 35 30 29 22 31 33 -2 -10 -9 -20 -18 -19 -18 -15 -14 5 -12 -20 -18 -20 -11 -20 -20 -20 -20 -20 -20 -20 -13 -20 -20 -20 -20 -20
-7 -2 24 17 -10 -19 4 -2 21 30 29 24 22 24 20 30 14 -20 -20 -20 -20 -20 -20 -20 -20 5 -20 -20 -20 -20 -20 -20 -20 -20 -20 -20 -20 -20 -20 -20 -20 -20 -20 -20
2 25 20 -12 2 -20 22 16 27 30 24 10 -8 13 19 -2 -20 -20 -20 -20 -8 -20 -20 -20 -2 18 -15 -20 -20 -20 -20 -20 -20 -12 -20 -13 -20 -20 -20 -20 -20 -20 -20 -20
-1 1 -8 -4 -10 15 10 21 27 32 -1 -19 -20 -13 -16 -20 -20 -20 -20 -20 -20 -20 -20 -20 10 -9 -20 -20 -20 -20 -20 -20 -20 -20 -20 -20 -20 -20 -20 -20 -20 -20 -20 -6
-15 -20 -20 -19 18 26 21 32 13 -2 -20 -20 -20 -20 -20 -20 -20 -20 -20 -20 -20 -20 -20 -20 -20 -20 -20 -20 -20 -20 -20 -20 -20 -20 -20 -20 -20 -20 -20 -20 -20 -20 -20 -20
10 -14 12 27 21 16 0 16 11 -20 -20 -20 -20 -20 -20 -20 -20 -20 -20 -20 -20 -20 -20 -20 -20 -20 -20 -20 -20 -20 -20 -20 -20 -20 -20 -20 -20 -19 -20 -20 -20 -20 -20 -20
15 12 -6 13 5 -20 -16 -20 -20 -20 -17 -20 -20 -20 -20 -20 -20 -20 -20 -20 -20 -20 -20 -20 -20 -20 -20 -20 -20 -20 -20 -20 -20 -20 -20 -20 -20 -20 -20 -20 -20 -20 -20 -20
-20 -20 3 25 26 -14 -12 -10 -20 -17 -13 -20 -20 -20 -20 -20 -20 -20 -20 -20 -20 -20 -20 -20 -20 -20 -20 -20 -20 -20 -20 -20 -20 -20 -20 -20 -20 -20 -20 -20 -20 -20 -20 -20
-20 8 3 23 -20 -20 -18 -20 -20 -20 -20 -20 -20 -20 -20 -20 -20 -20 -20 -20 -20 -20 -20 -20 -20 -20 -20 -20 -20 -20 -20 -20 -20 -20 -20 -20 -20 -20 -20 -20 -20 -20 -20 -20
18 25 -6 -20 -16 -20 -20 -20 -20 -20 -20 -20 -20 -20 -20 -20 -20 -20 -20 -20 -20 -20 -20 -20 -20 -20 -20 -20 -20 -20 -20 -20 -20 -20 -20 -20 -20 -20 -20 -20 -20 -20 -20 -20
-20 -20 -20 -19 -12 -20 -20 -20 -20 -20 -20 -20 -20 -20 -20 -20 -20 -20 -20 -20 -20 -0 -20 -20 -20 -20 -20 -20 -20 -20 -20 4 -15 -20 -20 -20 -20 -20 -15 5 -1 -20 -20 -20
-20 -20 -7 -9 -20 -20 -20 -20 -20 -20 -20 -20 -20 -20 -20 -20 -20 -20 -20 -20 -20 -20 -20 -20 -20 -20 -20 -20 -20 -20 -20 -19 -20 -20 -20 -20 -20 -2 15 -1 -20 -19 -20 -20
-20 -20 -20 -20 -20 -20 -20 -20 -20 -20 -20 -20 -20 -20 -20 -20 -20 -20 -20 -20 -20 -20 -20 -7 -20 -20 -20 -20 -19 -20 -19 -20 -20 -20 -20 -20 -20 -19 7 9 -13 -14 -20 -20
-20 -20 -18 -20 -20 -20 -20 -20 -20 -20 -20 -20 -20 -20 -20 -20 -20 -20 -20 -20 -20 -20 -3 -6 -20 -20 -20 -20 -20 -20 -20 -20 -20 -20 -20 -20 -20 -20 -20 -20 -20 -20 -20 -20
-20 -20 -1 -20 -20 -20 -20 -20 -20 -20 -20 -20 -20 -20 -20 -20 -20 -20 -20 -7 -20 -18 -15 -20 -20 -20 -20 -20 -20 -20 -20 -20 -20 -20 -20 -18 -20 -20 -20 -20 -20 -20 -20 -20
-20 -19 3 4 -20 -20 9 -20 -20 -20 -20 -20 -20 -20 -20 -20 -20 -20 -20 -20 -20 -20 -3 -4 -20 -20 -20 -20 -20 -20 -20 -20 -20 -20 -20 -20 -20 -20 -20 -20 -20 -20 -20 -20

GFSNW_prec_radar_114.txt.gz
Reflectivity
17 -3 12 5 -19 -18 -13 16 9 -20 -20 32 36 19 -20 -20 -20 -20 -20 -20 -20 -20 -20 -20 -20 -20 -20 -20 -20 -8 11 -3 -20 -20 -19 -20 -20 -20 3 -7 -20 14 -20 8
-20 21 17 -11 -20 6 12 24 30 -19 26 8 -8 6 17 -15 -12 -17 -20 7 -4 7 -20 -20 -20 -20 -20 -20 -17 1 -20 8 2 26 -4 -20 -20 -20 -20 -4 7 -12 -20 -20
-20 -20 -6 -20 -13 22 21 30 18 25 24 14 11 -10 21 16 -18 -18 10 -8 20 -17 -20 -20 -20 -20 -20 -18 -20 -20 5 -2 11 2 22 1 -20 -20 -19 8 -5 -20 -20 -20
-17 -5 -20 15 19 6 25 37 15 -13 -7 4 -20 -15 -20 -20 14 11 4 24 -4 -20 -20 -20 -19 -11 -20 -20 -20 -20 -20 -20 9 12 15 -19 -20 -20 -20 -3 -19 -20 -20 -20
-20 -20 -19 -17 19 19 14 8 24 34 -8 -20 -20 -9 8 -20 -20 16 -12 3 17 6 -20 -20 -10 8 -19 -20 -20 -20 -20 -20 -20 -20 -19 -4 2 -20 -20 -20 -20 -20 -20 -20
-13 -6 -20 -20 11 21 27 -3 -4 33 -13 -13 -8 -20 -20 -20 -20 6 -20 -20 21 15 -20 -10 -20 -20 -20 -20 -20 -13 -19 -20 -19 14 27 20 -2 -20 -20 -20 -20 -20 -20 -20
-20 -20 -20 -20 -20 22 -12 19 -1 19 7 -2 -20 -20 -20 -20 -20 8 23 12 -3 -14 13 11 -20 -20 -20 -20 -20 -20 -20 -20 -20 -10 -4 18 -18 -20 -20 -18 -20 -20 -20 -20
7 10 -20 -20 -20 5 -14 15 24 22 3 19 10 5 23 -20 -20 -10 -6 26 3 -1 18 1 9 4 -18 1 -20 -20 -20 -20 9 -10 -8 -18 -20 -20 -20 -20 -20 -20 -20 -20
15 15 -19 8 -20 23 17 -15 21 23 15 -20 -20 10 25 12 -20 4 5 32 26 7 6 2 7 4 -20 -20 -20 -20 -16 -19 -7 -20 -20 -20 -20 -20 -20 -20 -20 -20 -20 -20
-18 -20 1 13 6 22 7 14 36 33 23 -20 -14 3 -20 -0 -20 -20 -20 -7 37 18 -14 24 -4 -20 -20 -20 -20 -20 -20 -20 -20 -18 -20 -20 -20 -5 -20 -20 -20 -20 -20 -20
-11 -20 -17 -19 -3 20 27 26 26 23 28 -20 -4 -4 8 -6 -20 -20 12 18 18 15 -20 -20 -20 -20 -20 -20 -20 -20 -9 -20 -20 -20 -20 -20 -20 -20 -20 -20 -20 -20 -20 -20
18 20 -20 21 7 4 31 24 25 7 -20 -16 -1 20 28 -16 11 -20 -20 11 17 0 -20 -20 -20 -20 -18 -20 -20 -20 -20 -20 -20 -20 -20 -20 -20 -20 -20 -20 -20 -20 -20 -20
13 -20 11 23 32 34 17 24 25 11 -3 13 30 28 -1 -12 -13 -19 7 -20 -20 -20 -20 -20 -20 -20 4 -20 -7 -20 -20 -20 -20 -20 -20 -20 -20 -20 -20 -20 -20 -20 -20 -20
-19 -5 21 33 36 32 23 -13 -11 -14 -3 -10 29 28 29 31 28 13 -10 -5 -20 -20 -20 -20 -20 -3 -13 -20 -20 -20 -20 -20 -20 -13 -20 -20 -19 -20 -20 -20 -20 -20 -20 -20
-12 6 28 30 21 -20 -20 -20 -2 -5 -20 -20 -10 7 19 20 -16 -20 -20 -20 -20 -20 -20 -20 -20 -16 -20 -20 -20 -20 -20 -20 -20 -20 -20 -20 -20 -20 -20 -20 -20 -20 -20 -20
0 24 18 -19 10 12 -12 30 -1 -1 -20 -20 -18 -20 -20 -20 -8 -19 -20 -20 -20 -20 -20 -20 -20 -19 -12 -20 -20 -20 -20 -20 -20 -20 -20 -20 -20 -20 -20 -20 -20 -20 -20 -20
18 -2 -20 -14 3 -20 3 -6 19 -20 -20 -20 -20 -20 -20 -20 -20 -20 -20 -20 -20 -20 -20 -20 -20 -20 -20 -20 -20 -20 -20 -20 -20 -20 -20 -20 -20 -19 -20 -20 -20 -20 -20 -20
-20 -15 -2 19 17 -16 -0 -20 -19 -20 -20 -20 -20 -20 -20 -20 -20 -20 -20 -20 -20 -20 -20 -20 -20 -20 -20 -20 -20 -20 -20 -20 -20 -20 -20 -20 -20 -20 -20 -20 -20 -20 -20 -20
-2 24 32 24 16 13 8 0 -20 -20 -20 -20 -20 -20 -20 -20 -20 -20 -20 -20 -20 -20 -20 -20 -20 -20 -20 -20 -20 -20 -20 -20 -20 -20 -20 -20 -20 -20 -20 -20 -20 -20 -20 -20
13 28 20 25 8 -15 -20 -20 -20 -20 -20 -20 -20 -20 -20 -20 -20 -20 -20 -20 -20 -20 -20 -20 -20 -20 -20 -20 -20 -20 -20 -20 -20 -20 -20 -20 -20 -20 -20 -20 -20 -20 -20 -20
25 -11 -20 -19 -14 -19 -20 -20 -20 -20 -20 -20 -20 -20 -20 -20 -20 -20 -20 -20 -20 -20 -20 -20 -20 -20 -20 -20 -20 -20 -20 -20 -20 -20 -20 -20 -20 -20 -20 -20 -20 -20 -20 -20
13 -20 -20 -16 3 -19 -20 -20 -20 -20 -20 -20 -20 -20 -20 -20 -20 -20 -20 -20 -20 -13 -20 -20 -20 -20 -20 -20 -20 -20 -20 -20 -20 -20 -20 -20 -20 -20 -20 -20 -20 -20 -20 -20
14 -16 -20 -20 -20 -20 -20 -20 -20 -20 -20 -20 -20 -20 -20 -20 -20 -20 -20 -20 -20 -20 -20 -20 -20 -20 -20 -19 -19 -20 -20 -20 -20 -20 -20 -20 -20 -19 4 6 -20 -20 -20 -20
-20 -20 -20 -20 -20 -20 -20 -20 -20 -20 -20 -20 -20 -20 -20 -20 -20 -20 -20 -20 -20 -20 -20 -20 -16 -20 -20 -20 -20 -20 -20 -20 -20 -20 -20 -20 -20 3 -14 -6 8 6 -5 -6
-20 -20 -20 -20 -20 -20 -19 -20 -20 -20 -20 -20 -20 -20 -20 -20 -20 -20 -20 -20 -20 -20 -20 -20 -20 -20 -20 -20 -20 -20 -20 -20 -20 -20 -20 -18 -7 -13 -8 5 3 8 1 -20
-20 -20 -6 -20 -20 -20 -20 -20 -20 -20 -20 -20 -20 -20 -20 -20 -20 -20 -20 -20 -20 -20 -20 -20 -20 -20 -20 -20 -20 -20 -20 -20 -20 -20 -15 12 11 -1 2 10 10 10 -4 -20
-20 -20 -13 -20 -20 -18 -17 -20 -20 -20 -20 -20 -20 -20 -20 -20 -20 -20 -20 -20 -20 -20 -20 -20 -20 -20 -20 -20 -20 -20 -20 -20 -20 -20 -15 2 7 -19 -20 -18 -11 -20 -20 -20

GFSNW_prec_radar_117.txt.gz
Reflectivity
14 -20 -20 20 -2 7 9 15 14 -20 -2 12 32 11 -5 -20 -20 -20 -20 -20 -20 -20 -20 -20 -20 -20 -20 -20 -20 -20 -20 20 9 -19 -20 -18 -14 -20 1 -20 -20 -20 -20 -20
-3 -18 -20 19 21 23 11 15 6 -20 23 14 3 -19 -11 2 -20 -20 -15 -20 -20 -20 -20 -2 -20 -20 -20 -20 -20 -20 -20 -5 -8 -15 -20 -20 27 3 -5 -11 -20 -20 -20 -20
-12 -20 -20 18 -3 20 19 23 8 29 22 22 -15 -17 2 12 -13 -9 12 -11 -3 -20 -20 -13 -8 -20 -20 -20 -20 -20 -14 -20 -5 -20 -20 -20 -20 26 13 5 -12 -20 -20 -20
-20 -20 -20 -19 -1 18 17 27 23 -20 10 13 -15 -1 -19 5 7 -13 -3 -2 -12 -20 15 -18 6 -9 -0 -20 -20 -20 11 -1 -20 -20 -10 -20 -17 25 32 19 -20 -19 -20 -20
6 -19 13 -17 -7 22 28 24 19 8 -20 -20 -9 -6 -1 -20 -20 0 9 12 -20 19 6 -20 -18 -17 10 -20 -20 -20 -20 -20 -20 -20 18 -20 -20 13 -10 -20 -12 -7 -19 -1
-10 -1 11 -18 -20 21 26 12 30 -9 -19 -20 -4 -16 -13 -20 -11 -20 -20 -2 12 15 -20 2 -9 18 8 16 -9 -1 5 -20 -14 -7 -20 12 21 -20 -18 -18 -14 -20 -20 -20
13 15 23 -19 8 -6 1 9 -20 5 -17 17 -20 -20 -20 -20 -20 -20 -20 -17 -12 -20 -17 -12 44 35 -7 -20 -20 -12 -19 -20 12 8 -20 7 -20 -14 17 6 -10 -20 -20 -20
-20 15 -10 13 -20 19 -20 8 25 -14 8 -18 -8 -19 -20 -20 -20 -20 -20 -16 -20 19 20 15 27 23 -4 -17 -20 -20 -19 -20 -20 -9 -20 -20 -20 -20 -20 -20 -20 -20 -20 -20
16 17 -17 19 8 -16 15 -20 -18 15 15 8 20 18 -17 -20 -20 -20 -20 -7 -5 25 28 21 4 -2 -13 -3 -18 -20 -20 -20 -2 -20 -20 -20 -20 -20 -20 -20 -20 -20 -20 -20
11 13 -15 4 12 -15 6 -8 1 15 16 -14 -0 -15 -20 -20 -19 -20 -20 0 3 24 27 -14 -11 -20 -20 -20 -20 -1 1 -1 -20 -20 -20 -20 -20 -20 -20 -20 -20 -20 -20 -20
-20 -20 -4 16 0 -11 8 -10 16 7 33 15 -20 -20 -20 -16 -9 -20 -19 -2 -11 2 26 19 -13 -20 -20 -20 -20 -7 -20 -20 -20 -20 -20 -20 -20 -20 -20 -20 -20 -20 -20 -20
-3 -20 -12 2 -18 4 24 15 -8 5 36 24 -20 -20 -20 -20 -20 -20 -20 -20 -20 -20 9 23 -4 21 -17 -20 -20 -20 -20 -20 -20 -20 -20 -20 -20 -20 -20 -20 -20 -20 -20 -20
-12 12 13 -18 -20 7 18 7 26 24 12 -14 3 -16 -20 -20 -19 -18 -20 -20 -8 5 15 11 -11 -19 -20 -20 -20 -20 -20 -20 -20 -20 -20 -20 -20 -20 -20 -20 -20 -20 -20 -20
22 -2 -16 -19 -3 -7 29 31 24 33 16 -20 -14 -6 27 19 10 20 18 -7 3 25 -7 -19 -19 -20 -20 -20 -20 -20 -13 -20 -20 -14 -14 -20 -20 -20 -20 -20 -20 -20 -20 -20
19 18 21 7 9 16 9 13 31 6 -18 -20 16 24 33 7 7 8 3 3 4 -20 -20 -20 -20 -20 -20 -20 -20 -20 -20 -20 -20 -20 -20 -20 -20 -20 -20 -20 -20 -20 -20 -20
13 18 19 25 39 27 32 33 6 30 -16 -15 9 27 35 26 6 16 -17 -20 -20 -20 -20 -20 -20 -20 -20 -20 -20 -20 -20 -20 -20 -20 -20 -20 -20 -20 -20 -20 -20 -20 -20 -20
-8 14 30 37 35 24 -18 -20 -20 -16 -20 -20 -19 -20 4 -19 -17 -20 -20 -20 -20 -20 -20 -20 -20 -20 -10 -20 -20 -20 -20 -20 -20 -20 -20 -20 -20 -20 -20 -20 -20 -20 -20 -20
20 31 34 21 8 -11 21 -7 -20 -7 -20 -20 -20 -20 -20 -20 -20 -20 -20 -20 -20 -20 -20 -20 -20 -20 -20 -20 -20 -20 -20 -20 -20 -20 -20 -20 -20 -20 -20 -20 -20 -20 -20 -20
20 17 18 14 -1 18 31 10 -1 -20 -20 -20 -20 -20 -20 -20 -20 -20 -20 -20 -20 -20 -20 -20 -20 -20 -20 -20 -20 -20 -20 -20 -20 -20 -20 -20 -20 -20 -20 -20 -20 -20 -20 -20
19 19 19 28 23 19 20 3 -20 -20 -20 -20 -20 -20 -20 -20 -20 -20 -20 -20 -20 -20 -20 -20 -20 -20 -20 -20 -20 -20 -20 -20 -20 -20 -20 -20 -20 -20 -20 -20 -20 -20 -20 -20
7 -20 -11 25 19 -20 -17 -20 -20 -20 -20 -20 -20 -20 -20 -20 -20 -20 -20 -20 -20 -20 -20 -20 -20 -20 -20 -20 -20 -20 -20 -20 -20 -20 -20 -20 -20 -20 -20 -20 -20 -20 -20 -20
-20 -13 15 -9 -20 -20 -20 -20 -20 -20 -20 -20 -20 -20 -20 -20 -20 -20 -20 -20 -20 -20 -20 -20 -20 -20 -20 -20 -20 -20 -20 -20 -20 -20 -20 -20 -20 -20 -20 -20 -20 -20 -20 -20
5 2 -4 -3 -20 -20 -20 -20 -20 -20 -20 -20 -20 -20 -20 -20 -20 -20 -20 -20 -20 -20 -20 -20 -20 -20 -20 -20 -20 -20 -20 -20 -20 -20 -20 -20 -20 -20 -20 -13 -19 -20 -20 -20
-20 -20 -20 -20 -20 -20 -20 -20 -20 -20 -20 -20 -20 -20 -20 -20 -20 -20 -20 -20 -20 -20 -20 -20 -20 -20 -20 -20 -20 -20 -20 -20 -20 -20 -20 -20 -20 -3 -3 -2 -14 -1 -12 -20
-16 -20 -20 -20 -20 -20 -20 -20 -20 -20 -20 -20 -20 -20 -20 -20 -20 -20 -20 -20 -20 -20 -20 -20 -20 -20 -20 -20 -20 -20 -20 -20 -20 -20 -20 -4 -20 -16 1 8 -6 -12 -2 -19
-20 -20 -20 -20 -20 -19 -20 -20 -20 -20 -20 -20 -20 -20 -20 -20 -20 -20 -20 -20 -20 -20 -20 -20 -20 -20 -20 -20 -20 -20 -20 -20 -20 -20 -20 -19 -1 -5 10 12 9 7 6 6
-20 -15 -20 -20 -19 -16 -8 -20 -20 -20 -20 -20 -20 -20 -20 -20 -20 -20 -20 -20 -20 -20 -20 -20 -20 -20 -20 -20 -20 -20 -20 -20 -20 -20 4 11 12 12 9 9 11 9 7 2

GFSNW_prec_radar_120.txt.gz
Reflectivity
19 16 14 21 26 25 11 2 11 -20 15 25 23 13 -3 -20 -20 -20 -20 -20 -20 -20 -20 -20 -20 -20 -20 -20 -20 -20 -20 -19 9 -20 -20 -20 -18 15 13 17 -20 -20 -20 -20
18 21 3 13 16 23 16 15 -3 -13 23 22 19 8 -1 -20 -20 -19 -17 -20 -20 -20 -20 -17 -20 -20 -20 -20 -20 -20 -17 21 7 7 11 10 -19 -20 -5 7 -15 -8 -20 -20
9 28 -5 -20 15 -3 24 20 14 -7 26 21 -2 2 -1 -4 -1 8 11 2 0 -9 -20 -20 -20 -20 -20 -20 -20 -20 18 7 -20 -20 -20 -20 -20 -20 -20 15 18 5 7 -13
34 20 -14 -20 -9 21 22 22 24 2 14 9 -3 0 -20 -20 -12 9 13 16 7 17 11 -20 -20 -20 -20 -20 -20 11 8 11 18 -1 0 -10 -20 -20 -20 -2 -15 13 18 2
18 -19 -20 -20 -20 5 28 26 23 1 -20 -9 12 4 0 -18 -20 8 -18 0 -20 9 -19 -20 -20 -20 -20 -20 -20 -20 11 12 5 -20 -20 -1 15 -20 -20 -20 -5 33 30 5
18 5 -7 -20 4 19 35 34 17 -20 -20 -20 1 12 -20 -20 -18 -20 -20 -14 2 24 -20 -20 -17 14 12 6 23 7 16 14 -17 -13 -20 -20 -13 -20 -20 -20 -20 -20 -20 -20
17 -20 -20 2 2 -6 26 28 18 15 -20 -18 -20 -20 -20 -20 -20 -20 -20 -20 -14 -20 -20 -20 -20 -20 -20 -20 -20 -4 -15 13 10 -5 -17 15 -20 -20 -20 -20 -20 -20 -20 -20
11 -9 9 -20 -20 9 -20 8 34 26 12 -20 -18 -20 -20 -20 -20 -20 -20 -20 -20 -11 -13 5 14 -19 -20 -2 18 24 12 13 -4 -18 -19 -20 -20 -20 -20 -20 -20 -20 -20 -20
-20 -5 -13 -15 11 19 -15 -20 -17 10 -20 -14 -20 -16 -9 -20 -20 -20 -20 -20 -20 -20 14 18 15 10 -2 0 20 30 12 -20 9 1 -20 -20 -20 -20 -20 -20 -20 -20 -20 -20
12 -2 -20 12 16 22 -20 -20 -20 17 19 -20 -20 -20 -9 -18 -20 -20 -19 -20 17 6 9 2 5 5 -20 7 23 8 6 6 -13 -20 -20 -20 -20 -20 -20 -20 -20 -20 -20 -20
-20 -20 -16 16 11 6 7 -20 -20 -12 -1 -19 -20 -1 -20 4 24 -1 -20 22 -4 3 18 -2 -13 28 -14 -20 -20 -20 -20 -20 -15 -18 -20 -20 -20 -20 -20 -20 -20 -20 -20 -20
-15 -20 -10 -12 19 17 22 -20 -14 -20 9 -17 4 -20 -15 8 22 15 -20 -8 14 -2 13 24 17 25 9 -20 -20 -20 -20 -20 -20 -20 -20 -20 -20 -20 -20 -20 -20 -20 -20 -20
1 -19 -20 -20 5 2 -15 -20 -18 22 24 2 4 16 -18 -20 -20 -20 9 -20 -20 -20 6 -20 -20 -8 19 -10 -16 -20 -20 -20 -20 -20 -20 -20 -20 -20 -20 -20 -20 -20 -20 -20
-8 2 -17 -20 -20 -12 16 -13 5 12 23 -6 -19 -18 -20 -20 -20 -20 -20 -20 -20 3 -19 23 7 2 4 10 -20 -20 -20 -20 -20 -20 -18 -20 -20 -20 -20 -20 -20 -20 -20 -20
19 13 3 -7 -20 -20 14 8 20 18 21 4 -20 -20 -20 -20 -6 -5 9 11 17 0 7 19 14 -18 -13 -20 -20 -20 -20 -20 -20 -20 -16 -20 -20 -20 -20 -20 -20 -20 -20 -20
13 22 -15 6 6 19 23 26 24 28 36 20 -17 -2 18 26 21 32 37 39 10 32 23 -6 -20 -20 -20 -20 -20 -20 -20 -20 -20 -20 -20 -20 -20 -20 -20 -20 -20 -20 -20 -20
21 17 10 15 21 17 17 12 -6 4 31 24 15 22 35 34 25 25 6 -15 -15 -0 -20 -20 -20 -20 -20 -16 7 -20 -20 -20 -20 -20 -20 -20 -20 -20 -20 -20 -20 -20 -20 -20
18 15 -2 20 24 25 14 19 3 34 30 5 3 22 19 29 20 28 19 6 -20 -20 -20 -20 -20 -20 -20 7 -20 -20 -20 -20 -20 -20 -20 -20 -20 -20 -20 -20 -20 -20 -20 -20
21 28 35 37 37 29 17 16 17 11 23 -20 -19 -20 -20 -17 -18 -8 -20 -20 -20 -20 -20 -20 -20 -20 -20 -20 -20 -20 -20 -20 -20 -20 -20 -20 -20 -20 -20 -20 -20 -20 -20 -20
33 31 30 20 0 19 25 30 32 31 -2 -20 -20 -20 -20 -20 -20 -20 -20 -20 -20 -20 -20 -20 -20 -20 -20 -20 -20 -20 -20 -20 -20 -20 -20 -20 -20 -20 -20 -20 -20 -20 -20 -20
11 -17 8 28 40 26 17 -9 -20 -20 -20 -20 -20 -20 -20 -20 -20 -20 -20 -20 -20 -20 -20 -20 -20 -20 -20 -20 -20 -20 -20 -20 -20 -20 -20 -20 -20 -20 -20 -20 -20 -20 -20 -20
-20 3 21 26 14 2 -20 -20 -20 -20 -20 -20 -20 -20 -20 -20 -20 -20 -20 -20 -20 -20 -20 -20 -20 -20 -20 -20 -20 -20 -20 -20 -20 -20 -20 -20 -20 -20 -20 -20 -20 -20 -19 -20
4 -18 -20 -1 -20 -20 -20 -20 -20 -20 -20 -20 -20 -20 -20 -20 -20 -20 -20 -20 -20 -20 -20 -20 -20 -20 -20 -20 -20 -20 -20 -20 -20 -20 -20 -20 -20 -20 -20 -20 -2 1 -17 -20
-11 -15 -15 -20 -20 -20 -20 -20 -20 -20 -20 -20 -20 -20 -20 -20 -20 -20 -20 -20 -20 -20 -20 -20 -20 -20 -20 -20 -20 -20 -20 -20 -20 -20 -20 -20 -20 -20 -8 2 5 1 -10 -11
-8 -20 -20 -20 -20 -20 -20 -19 -20 -20 -20 -20 -20 -20 -20 -20 -20 -20 -20 -20 -20 -20 -20 -20 -20 -20 -20 -20 -20 -20 -20 -20 -20 -20 -20 -20 -20 -20 -13 -9 -5 6 6 6
-20 -20 -20 -20 -20 -19 -20 -20 -20 -20 -20 -20 -20 -20 -20 -20 -20 -20 -20 -20 -20 -20 -20 -20 -20 -20 -20 -20 -20 -20 -20 -20 -20 -20 -20 -20 -20 -19 -7 -3 2 9 6 6
-20 -20 -20 -17 -20 -17 -20 -20 -20 -20 -20 -20 -20 -20 -20 -20 -20 -20 -20 -20 -20 -20 -20 -20 -20 -20 -20 -20 -20 -20 -20 -20 -20 -20 -20 -20 -20 -19 -11 -11 6 10 5 6